     2              OBSERVATION DATA    GPS                 RINEX VERSION / TYPE
teqc 2000Feb29 Duncan Agnew 20000425 21:38:41UTC            PGM / RUN BY / DATE
                                                            COMMENT
L2: 1 -> 1; 150 -> 5; 250 -> 9                              COMMENT
L2: 1 -> 1; 150 -> 5; 250 -> 9                              COMMENT
L2: 1 -> 1; 150 -> 5; 250 -> 9                              COMMENT
L2: 1 -> 1; 150 -> 5; 250 -> 9                              COMMENT
L2: 1 -> 1; 150 -> 5; 250 -> 9                              COMMENT
Original Marker Name: BAGJ                                  COMMENT
Campaign Name: Hector Postseismic                           COMMENT
4-Character Station Name: BAGJ                              COMMENT
6-Character Antenna Code: DMRCHT                            COMMENT
Vertical Measurement Point: BCR                             COMMENT
Vertical Offset to Rinex Ref. Point: 0.0348                 COMMENT
Radial Measurement Point: ECF                               COMMENT
Radial Offset to Rinex Ref. Point: 0.1897                   COMMENT
Antenna Height from Field Measurement: 1.1950 m             COMMENT
Additional Antenna Identification Info.:                    COMMENT
Turborogue and Ashtech Choke Ring                           COMMENT
Original XYZ: -2328843.9442 -4706489.1287 3609263.7475      COMMENT
New XYZ position is based on association with SCEC monument COMMENT
E1F2K8J7+0011. Position of that monument is believed to be  COMMENT
valid to within 1 m horizontally; vertical accuracy         COMMENT
should be no worse than 3-times this value.                 COMMENT
                                                            COMMENT
Revised Rinex header created by UCSD GPS archive for        COMMENT
GSAC on 31-Jul-2000 (2000:213) 22:07:18 GMT                 COMMENT
For assistance contact dagnew@ucsd.edu                      COMMENT
or anderson@python.ucsd.edu                                 COMMENT
                                                            COMMENT
BAGUIO                                                      MARKER NAME
MWA UNIV CALIF LOS ANGELES                                  OBSERVER / AGENCY
174 ASHTECH Z-XII3 CD00                                     REC # / TYPE / VERS
364 DORNE-MARGOL. TYPE T                                    ANT # / TYPE
 -2324418.2451 -4710582.4134  3606882.5535                  APPROX POSITION XYZ
        1.1450        0.0000        0.0000                  ANTENNA: DELTA H/E/N
     1     1     0                                          WAVELENGTH FACT L1/2
     7    C1    L1    L2    P1    P2    S1    S2            # / TYPES OF OBSERV
     0                                                      INTERVAL
  2000     4    19    21    23   30.000000                  TIME OF FIRST OBS
  2000     4    19    23    59   30.000000                  TIME OF LAST OBS
                                                            END OF HEADER
 00  4 19 21 23 30.0000000  0  2G 5G10
  21797540.874      105722.44749     74952.46246  21797539.827    21797554.265
       233.000         186.000
  20989620.837      -25496.88949    -17817.80747  20989619.899    20989629.990
       240.000         198.000
 00  4 19 21 24  0.0000000  0  6G30G17G 5G 6G24G10
                    -46501.37749    -35643.67243
       235.000          76.000
  22921378.240     -324996.04059   -234930.72145  22921378.440    22921390.418
       217.000         155.000
  21806492.324      152758.11159    111603.28946  21806491.810    21806504.584
       236.000         182.000
  21434509.105     -265581.95749   -183653.30446  21434509.238    21434520.033
       235.000         187.000
  22899811.084      114685.18549     83430.53845  22899810.201    22899823.579
       227.000         160.000
  20987643.373      -35889.48249    -25915.93647  20987642.108    20987652.825
       242.000         196.000
 00  4 19 21 24 30.0000000  0  5G30G17G 5G 6G24
                   -355610.58349   -277050.56943
       236.000          72.000
  22845393.475     -724314.34259   -546087.89145  22845389.806    22845404.021
       214.000         153.000
  21759396.895      -94726.76449    -81242.17746  21759397.173    21759409.876
       222.000         179.000
  21360325.310     -655429.03459   -487429.97246  21360324.395    21360334.186
       237.000         181.000
  22850769.043     -143037.31549   -117392.26945  22850767.603    22850781.743
       217.000         156.000
 00  4 19 21 25  0.0000000  0  6G30G17G 5G 6G24G10
                   -331526.92149   -258818.07843
       245.000          84.000
  22832742.692     -790787.52759   -597884.92746  22832739.943    22832754.458
       229.000         166.000
  21775657.176       -9279.16949    -14659.81246  21775656.357    21775670.832
       228.000         179.000
  21349464.254     -712501.35149   -531901.83047  21349463.634    21349473.623
       240.000         194.000
  22865023.595      -68128.34049    -59021.76046  22865022.554    22865035.624
       225.000         165.000
  20935083.771     -312091.40449   -241138.17947  20935082.944    20935093.501
       242.000         200.000
 00  4 19 21 25 30.0000000  0  6G30G17G 5G 6G24G10
                   -306911.05849   -172943.16046                  20679774.601
       243.000         165.000
  22820124.699     -857091.50549   -649550.19446  22820122.788    22820137.358
       228.000         173.000
  21791963.871       76412.50549     52112.75346  21791964.197    21791977.103
       233.000         184.000
  21338628.289     -769442.99249   -576271.90147  21338627.695    21338637.851
       241.000         199.000
  22879271.974        6748.51349      -676.28546  22879271.840    22879285.110
       226.000         166.000
  20940607.139     -283065.65849   -218520.71747  20940606.290    20940616.735
       241.000         202.000
 00  4 19 21 26  0.0000000  0  6G30G17G 5G 6G24G10
  20684558.176     -281719.57349   -153313.53947  20684558.588    20684569.050
       245.000         209.000
  22807546.498     -923188.45049   -701054.20146  22807545.265    22807559.843
       229.000         172.000
  21808321.623      162372.36849    119094.22747  21808320.874    21808335.720
       228.000         189.000
  21327826.360     -826206.56959   -620503.23747  21327826.173    21327836.717
       234.000         197.000
  22893522.499       81635.62159     57677.29145  22893522.354    22893534.951
       205.000         147.000
  20946240.672     -253461.14849   -195452.28647  20946239.750    20946251.744
       224.000         188.000
 00  4 19 21 26 30.0000000  0  4G30G17G 5G24
  20689464.320     -255937.74449   -133223.51747  20689468.499    20689476.275
       205.000         198.000
  22795008.683     -989073.58249   -752393.06046  22795006.505    22795020.968
       225.000         171.000
  21824735.887      248629.90259    186308.10946                  21824848.102
       209.000         177.000
  22907779.659      156556.99658    116057.42144  22907780.304
       177.000         125.000
 00  4 19 21 27  0.0000000  0  6G30G17G 5G 6G24G10
  20693866.556     -229500.73249   -112628.61046                  20694039.854
       245.000         164.000
                   -169244.65349   -120134.19743
       214.000          74.000
                    335263.80749    253813.48545
       244.000         150.000
                   -162274.13149   -116709.51543
       221.000          74.000
  22922055.584      231576.85149    174513.68445  22922026.801
       216.000         138.000
                   -111373.07949    -85389.89046                  20957869.093
       229.000         165.000
 00  4 19 21 27 30.0000000  0  6G30G17G 5G 6G24G10
                   -202486.27949    -91578.43945
       245.000         148.000
                   -234638.08949   -171090.07645                  22770093.120
       214.000         147.000
                    422214.82849    321567.35145
       244.000         143.000
                   -218445.16549   -160480.61545                  21295656.960
       217.000         148.000
  22936337.045      306626.32849    232993.75044  22936287.958
       211.000         106.000
  20963843.811      -79924.76349    -60884.72446  20963842.004    20963853.742
       230.000         179.000
 00  4 19 21 28  0.0000000  0  6G30G17G 5G 6G24G10
                   -174920.05549    -70098.31345
       245.000         143.000
  22757668.154     -299856.05149   -221909.09645  22757667.205    22757681.744
       215.000         158.000
                    509480.80749    -17734.33543                  21874391.855
       245.000          74.000
  21284983.378     -274476.60049   -204141.44546  21284983.073    21284993.760
       224.000         166.000
                    381684.56849    291480.41243
       205.000          89.000
  20969935.160      -47910.93749    -35938.90846  20969934.776    20969945.951
       230.000         182.000
 00  4 19 21 28 30.0000000  0  6G30G17G 5G 6G24G10
                   -146749.54749       927.67347                  20710252.865
       241.000         195.000
  22745305.758     -364818.61949   -272529.13345  22745305.143    22745320.370
       220.000         161.000
  21891053.298      597127.59249     50561.65447  21891053.099    21891067.114
       243.000         205.000
  21274362.669     -330286.99049   -247630.03946  21274362.835    21274373.268
       226.000         170.000
                    456817.79549      8132.45343
       200.000          74.000
  20976146.902      -15273.13348    -10506.87346  20976143.658    20976149.097
       193.000         180.000
 00  4 19 21 29  0.0000000  0  6G30G17G 5G 6G24G10
  20715684.942     -118148.63049     23214.04047  20715685.739    20715696.097
       239.000         198.000
  22732959.836     -429698.11549   -323084.42945  22732960.289    22732975.421
       220.000         162.000
  21907769.155      684969.68259    119009.89947  21907770.276    21907782.869
       230.000         191.000
  21263753.271     -386041.21149   -291074.82346  21263754.559    21263767.244
       241.000         181.000
                    531840.29349     66592.18743
       223.000          74.000
  20982442.676       17814.31059     15275.65447  20982441.458    20982451.482
       241.000         188.000
 00  4 19 21 29 30.0000000  0  6G30G17G 5G 6G24G10
  20721229.339      -89013.21249     45916.89547  20721229.711    20721239.832
       241.000         202.000
  22720648.030     -494398.09049   -373499.81846  22720647.753    22720660.740
       211.000         166.000
  21924538.532      773092.21349    187676.59047  21924539.047    21924552.515
       234.000         188.000
  21253173.702     -441638.39749   -334397.28547  21253174.074    21253183.932
       234.000         193.000
                    606843.99949    125036.34045                  22993479.786
       224.000         153.000
  20988841.772       51441.98449     41479.00247  20988840.738    20988851.745
       241.000         203.000
 00  4 19 21 30  0.0000000  0  6G30G17G 5G 6G24G10
  20726883.102      -59302.70649     69067.85547  20726883.737    20726893.526
       245.000         208.000
  22708378.880     -558873.27649   -423740.12746  22708378.357    22708392.278
       230.000         179.000
  21941366.836      861524.89649    256584.98746  21941366.248    21941381.688
       231.000         187.000
  21242627.668     -497058.87949   -377582.03747  21242627.825    21242637.823
       236.000         199.000
  23007741.819      681857.69949    183488.44645  23007741.722    23007755.651
       220.000         162.000
  20995347.892       85632.22849     68120.72847  20995347.194    20995358.287
       240.000         205.000
 00  4 19 21 30 30.0000000  0  6G30G17G 5G 6G24G10
  20732648.578      -29005.48249     92676.01347  20732649.196    20732658.930
       246.000         209.000
  22696158.010     -623094.15349   -473782.22746  22696157.017    22696171.296
       230.000         181.000
  21958253.045      950261.62749    325730.32046  21958252.658    21958267.877
       231.000         185.000
  21232112.994     -552314.23749   -420638.11347  21232113.444    21232123.204
       236.000         203.000
  23022015.728      756867.09749    241937.20445  23022015.410    23022030.013
       218.000         162.000
  21001960.879      120383.66249     95199.73447  21001960.225    21001971.086
       242.000         206.000
 00  4 19 21 31  0.0000000  0  6G30G17G 5G 6G24G10
  20738530.215        1902.26749    116759.92747  20738530.584    20738540.531
       242.000         210.000
  22683983.601     -687070.46749   -523633.73746  22683982.626    22683996.553
       227.000         180.000
  21975199.417     1039314.37349    395121.86646  21975199.716    21975213.099
       231.000         185.000
  21221628.913     -607408.43249   -463568.60747  21221628.952    21221638.975
       240.000         204.000
  23036290.401      831880.72649    300389.24746  23036290.928    23036304.631
       222.000         164.000
  21008682.889      155707.87049    122725.06847  21008682.022    21008693.011
       240.000         205.000
 00  4 19 21 31 30.0000000  0  6G30G17G 5G 6G24G10
  20744527.917       33419.98449    141319.12547  20744528.412    20744538.366
       243.000         209.000
  22671855.493     -750803.56549   -573295.75246  22671854.492    22671868.584
       227.000         180.000
  21992204.560     1128676.39549    464754.41546  21992204.963    21992216.870
       232.000         185.000
  21211173.042     -662354.54549   -506383.71347  21211172.911    21211182.913
       240.000         205.000
  23050568.250      906910.45749    358853.83946  23050568.454    23050582.349
       223.000         166.000
  21015512.649      191598.64749    150691.88447  21015511.924    21015522.806
       241.000         206.000
 00  4 19 21 32  0.0000000  0  6G30G17G 5G 6G24G10
  20750640.011       65538.93149    166346.81047  20750640.610    20750650.534
       243.000         209.000
  22659772.777     -814298.01149   -622771.80746  22659771.507    22659785.528
       227.000         180.000
  22009264.220     1218324.40449    534609.80646  22009265.043    22009277.362
       232.000         185.000
  21200745.438     -717151.79149   -549082.81547  21200745.319    21200755.324
       240.000         205.000
  23064849.213      981956.60749    417331.23346  23064849.307    23064863.235
       223.000         166.000
  21022450.049      228054.53649    179099.04947  21022449.661    21022460.254
       241.000         206.000
 00  4 19 21 32 30.0000000  0  6G30G17G 5G 6G24G10
  20756865.469       98253.55349    191838.66647  20756865.951    20756876.030
       243.000         209.000
  22647731.052     -877576.99349   -672079.95746  22647730.133    22647744.088
       227.000         180.000
  22026378.055     1308257.43849    604687.30346  22026378.066    22026391.748
       231.000         185.000
  21190350.774     -771776.04549   -591647.11647  21190350.586    21190360.838
       241.000         205.000
  23079134.448     1057025.24149    475826.15646  23079134.448    23079149.163
       224.000         166.000
  21029497.922      265091.28449    207958.84047  21029497.302    21029508.100
       241.000         206.000
 00  4 19 21 33  0.0000000  0  6G30G17G 5G 6G24G10
  20763204.565      131565.34149    217795.84047  20763205.062    20763215.155
       243.000         209.000
  22635728.563     -940649.92449   -721227.56046  22635728.151    22635741.994
       227.000         181.000
  22043548.179     1398485.95349    674995.03146  22043547.390    22043562.068
       230.000         185.000
  21179997.075     -826185.27449   -634043.87147  21179996.863    21180007.083
       241.000         206.000
  23093429.234     1132143.84149    534360.00346  23093429.272    23093443.470
       223.000         167.000
  21036657.836      302716.24049    237276.96747  21036657.515    21036667.803
       242.000         206.000
 00  4 19 21 33 30.0000000  0  6G30G17G 5G 6G24G10
  20769655.379      165464.19249    244210.46447  20769655.727    20769665.627
       243.000         209.000
  22623766.038    -1003513.13449   -770211.74146  22623765.263    22623778.698
       228.000         181.000
  22060775.045     1489012.77849    745535.20146  22060774.214    22060789.903
       228.000         185.000
  21169686.058     -880369.88449   -676265.59247  21169685.772    21169695.870
       242.000         206.000
  23107732.769     1207308.80649    592929.99246  23107732.789    23107746.387
       225.000         167.000
  21043928.971      340925.78549    267050.62347  21043928.322    21043938.931
       241.000         206.000
 00  4 19 21 34  0.0000000  0  6G30G17G 5G 6G24G10
  20776216.899      199944.84349    271078.43747  20776217.464    20776227.554
       242.000         209.000
  22611842.379    -1066171.92049   -819036.63446  22611841.738    22611855.124
       228.000         181.000
  22078061.213     1579851.24249    816318.21346  22078060.127    22078076.288
       228.000         184.000
  21159421.433     -934311.00349   -718297.58347  21159421.267    21159431.314
       241.000         206.000
  23122042.459     1282506.37749    651525.37346  23122042.903    23122055.828
       223.000         167.000
  21051314.459      379736.92449    297293.05547  21051313.859    21051324.624
       241.000         206.000
 00  4 19 21 34 30.0000000  0  6G30G17G 5G 6G24G10
  20782890.367      235013.88749    298404.89847  20782890.754    20782900.688
       242.000         209.000
  22599960.347    -1128611.92149   -867691.04646  22599959.703    22599973.632
       228.000         182.000
  22095411.490     1671026.43749    887363.60546  22095411.335    22095426.787
       228.000         184.000
  21149205.356     -987996.87049   -760130.68147  21149205.240    21149215.299
       241.000         206.000
  23136358.820     1357738.67949    710147.82146  23136358.802    23136373.305
       224.000         168.000
  21058817.022      419163.03449    328014.67147  21058816.465    21058827.158
       240.000         205.000
 00  4 19 21 35  0.0000000  0  6G30G17G 5G 6G24G10
  20789676.567      270675.26949    326192.92347  20789676.886    20789687.030
       242.000         208.000
  22588122.981    -1190817.70849   -916162.95846  22588122.518    22588136.687
       229.000         182.000
  22112824.491     1762531.15949    958665.77846  22112824.840    22112838.574
       229.000         183.000
  21139036.504    -1041434.43949   -801770.29847  21139036.340    21139046.396
       241.000         207.000
  23150681.459     1433004.08649    768796.06546  23150682.226    23150695.977
       224.000         167.000
  21066434.318      459191.88149    359205.95547  21066433.591    21066444.381
       242.000         205.000
 00  4 19 21 35 30.0000000  0  6G30G17G 5G 6G24G10
  20796574.782      306925.55549    354439.83647  20796575.261    20796585.170
       242.000         208.000
  22576332.751    -1252775.70749   -964441.77846  22576332.250    22576345.454
       229.000         183.000
  22130297.113     1854349.67149   1030212.45346  22130297.554    22130310.786
       230.000         183.000
  21128910.580    -1094646.44749   -843234.15347  21128910.310    21128920.226
       241.000         207.000
  23165007.841     1508289.28049    827459.73746  23165008.258    23165021.695
       223.000         167.000
  21074166.382      499823.92349    390867.26047  21074165.749    21074176.434
       241.000         205.000
 00  4 19 21 36  0.0000000  0  6G30G17G 5G 6G24G10
  20803586.145      343770.04549    383149.75647  20803586.747    20803596.769
       243.000         208.000
  22564592.121    -1314473.01549  -1012517.46946  22564591.119    22564604.727
       228.000         183.000
  22147826.643     1946467.39349   1101992.26646  22147826.898    22147840.675
       230.000         183.000
  21118826.612    -1147637.84949   -884526.11447  21118826.281    21118836.517
       243.000         207.000
  23179336.396     1583585.88949    886132.30246  23179335.640    23179351.105
       223.000         166.000
  21082011.908      541052.21049    422993.16147  21082011.227    21082021.807
       241.000         205.000
 00  4 19 21 36 30.0000000  0  6G30G17G 5G 6G24G10
  20810707.879      381194.55849    412311.63947  20810708.436    20810718.562
       242.000         208.000
  22552902.241    -1375903.38949  -1060385.15946  22552901.581    22552914.802
       229.000         183.000
  22165410.231     2038868.85149   1173993.17646  22165410.925    22165424.941
       228.000         183.000
  21108780.894    -1200428.20049   -925661.41047  21108780.625    21108790.746
       241.000         207.000
  23193666.977     1658893.02949    944813.07846  23193667.308    23193680.986
       223.000         166.000
  21089963.151      582835.93949    455551.87647  21089962.563    21089973.290
       241.000         205.000
 00  4 19 21 37  0.0000000  0  6G30G17G 5G 6G24G10
  20817935.792      419177.11749    441908.37347  20817936.133    20817946.449
       242.000         208.000
  22541259.697    -1437085.22049  -1108059.17646  22541259.291    22541272.410
       229.000         183.000
  22183040.116     2131513.41349   1246183.52746  22183040.371    22183054.902
       228.000         182.000
  21098770.773    -1253031.75949   -966651.15647  21098770.585    21098780.803
       241.000         207.000
  23207995.135     1734187.32749   1003483.83746  23207995.919    23208010.287
       224.000         168.000
  21098012.015      625132.93849    488510.54547  21098011.091    21098022.446
       241.000         205.000
 00  4 19 21 37 30.0000000  0  6G30G17G 5G 6G24G10
  20825265.086      457692.39049    471920.20047  20825265.519    20825275.746
       242.000         208.000
  22529660.646    -1498038.11849  -1155554.80846  22529660.081    22529673.296
       229.000         183.000
  22200715.779     2224398.42349   1318561.24046  22200715.954    22200730.176
       228.000         182.000
  21088793.997    -1305460.21049  -1007504.45247  21088793.792    21088803.772
       242.000         207.000
  23222317.040     1809448.75149   1062128.99646  23222316.974    23222330.760
       223.000         168.000
  21106156.244      667930.97249    521859.62847  21106155.553    21106166.332
       240.000         204.000
 00  4 19 21 38  0.0000000  0  6G30G17G 5G 6G24G10
  20832694.577      496734.30149    502342.39547  20832695.035    20832705.181
       242.000         208.000
  22518101.236    -1558782.47749  -1202887.93346  22518099.814    22518113.993
       228.000         183.000
  22218437.648     2317526.45549   1391128.31046  22218438.275    22218451.560
       230.000         182.000
  21078851.446    -1357708.52049  -1048217.37847  21078851.085    21078861.187
       241.000         208.000
  23236632.777     1884677.77849   1120748.89246  23236633.234    23236647.770
       223.000         168.000
  21114394.566      711223.39449    555593.94447  21114393.340    21114404.409
       239.000         204.000
 00  4 19 21 38 30.0000000  0  6G30G17G 5G 6G24G10
  20840219.971      536280.31849    533157.39447  20840220.276    20840230.789
       242.000         208.000
  22506578.731    -1619332.86149  -1250069.91746  22506577.800    22506591.389
       229.000         183.000
  22236203.866     2410887.68149   1463877.07746  22236204.156    22236218.490
       228.000         182.000
  21068943.994    -1409772.37949  -1088786.58247  21068943.754    21068953.745
       241.000         208.000
  23250942.739     1959876.40449   1179345.10046  23250943.257    23250957.608
       221.000         168.000
  21122725.935      755005.46549    589709.79947  21122725.322    21122736.062
       240.000         203.000
 00  4 19 21 39  0.0000000  0  6G30G17G 5G 6G24G10
  20847842.821      576338.50049    564371.48647  20847843.308    20847853.672
       242.000         208.000
  22495090.292    -1679704.19849  -1297112.38246  22495089.394    22495102.963
       229.000         183.000
  22254015.430     2504486.99849   1536811.39846  22254015.006    22254031.052
       227.000         181.000
  21059074.750    -1461635.52949  -1129199.38347  21059074.406    21059084.605
       242.000         208.000
  23265247.383     2035047.22149   1237919.63846  23265248.184    23265261.866
       220.000         166.000
  21131156.088      799306.12049    624229.75547  21131155.306    21131166.252
       239.000         203.000
 00  4 19 21 39 30.0000000  0  6G30G17G 5G 6G24G10
  20855565.532      616921.15349    595994.24947  20855566.082    20855576.231
       243.000         208.000
  22483637.097    -1739890.51249  -1344010.67946  22483636.392    22483649.967
       229.000         184.000
  22271877.216     2598350.55549   1609951.59146  22271876.791    22271892.126
       227.000         180.000
  21049243.765    -1513297.40749  -1169455.35447  21049243.672    21049253.553
       242.000         208.000
  23279551.203     2110213.83649   1296490.89346  23279550.443    23279565.754
       220.000         165.000
  21139690.205      844153.27449    659175.55647  21139689.497    21139700.441
       240.000         203.000
 00  4 19 21 40  0.0000000  0  6G30G17G 5G 6G24G10
  20863389.350      658035.23949    628031.12147  20863389.976    20863400.147
       242.000         208.000
  22472221.923    -1799877.65549  -1390753.77846  22472221.435    22472233.976
       230.000         184.000
  22289786.534     2692463.84749   1683286.37846  22289786.302    22289801.205
       226.000         180.000
  21039452.027    -1564753.34849  -1209550.85247  21039451.881    21039461.825
       242.000         208.000
  23293857.611     2185394.05849   1355072.75246  23293857.648    23293871.583
       218.000         164.000
  21148330.103      889555.97349    694554.25547  21148329.666    21148340.292
       240.000         203.000
 00  4 19 21 40 30.0000000  0  6G30G17G 5G 6G24G10
  20871312.803      699672.63249    660475.77447  20871312.891    20871323.288
       243.000         208.000
  22460843.134    -1859673.23349  -1437347.58746  22460842.362    22460855.350
       231.000         185.000
  22307740.328     2786810.73149   1756803.18746  22307739.823    22307755.475
       227.000         180.000
  21029698.840    -1616006.68049  -1249488.45747  21029698.583    21029708.481
       243.000         208.000
  23308165.632     2260582.88249   1413661.33346  23308165.753    23308180.507
       218.000         163.000
  21157073.948      935504.81849    730358.53147  21157073.143    21157084.477
       240.000         203.000
 00  4 19 21 41  0.0000000  0  6G30G17G 5G 6G24G10
  20879343.100      741871.84149    693358.18247  20879343.881    20879353.908
       243.000         208.000
  22449503.010    -1919265.61149  -1483783.09446  22449502.233    22449515.871
       230.000         185.000
  22325741.654     2881407.36349   1830514.60046  22325741.371    22325757.424
       224.000         179.000
  21019984.212    -1667057.20749  -1289268.05947  21019984.048    21019993.998
       242.000         208.000
  23322478.496     2335797.64349   1472270.09845  23322478.444    23322493.856
       218.000         162.000
  21165924.647      982015.21849    766600.35547  21165924.186    21165935.156
       240.000         203.000
 00  4 19 21 41 30.0000000  0  6G30G17G 5G 6G24G10
  20887480.632      784634.33849    726679.52747  20887481.328    20887491.252
       242.000         208.000
  22438203.834    -1978642.96949  -1530051.03446  22438202.666    22438216.266
       231.000         186.000
  22343789.515     2976248.28249   1904416.37346  22343788.217    22343804.808
       224.000         179.000
  21010308.023    -1717905.83149  -1328890.31847  21010307.827    21010317.310
       242.000         209.000
  23336797.613     2411044.68549   1530904.01145  23336797.431    23336811.990
       215.000         160.000
  21174879.535     1029073.38849    803269.03347  21174878.746    21174889.767
       238.000         203.000
 00  4 19 21 42  0.0000000  0  6G30G17G 5G 6G24G10
  20895723.588      827951.04449    760432.72247  20895724.031    20895734.187
       242.000         208.000
  22426944.562    -2037810.36249  -1576155.37046  22426943.840    22426956.931
       230.000         186.000
  22361881.595     3071322.12849   1978499.63346  22361880.752    22361897.226
       225.000         179.000
  21000671.065    -1768548.12749  -1368351.80347  21000670.698    21000680.398
       242.000         209.000
  23351118.080     2486298.64349   1589543.32345  23351117.977    23351132.915
       215.000         160.000
  21183935.656     1076663.81449    840352.45847  21183934.997    21183945.971
       239.000         202.000
 00  4 19 21 42 30.0000000  0  6G30G17G 5G 6G24G10
  20904074.184      871833.32049    794626.62447  20904074.720    20904084.909
       242.000         208.000
  22415726.135    -2096763.02849  -1622092.38646  22415725.216    22415738.803
       230.000         186.000
  22380022.604     3166652.82849   2052783.04546  22380022.213    22380038.121
       225.000         179.000
  20991075.361    -1818973.68449  -1407644.39947  20991075.211    20991085.132
       243.000         209.000
  23365436.886     2561544.42449   1648176.26645  23365436.845    23365451.985
       217.000         160.000
  21193092.269     1124782.15149    877847.25547  21193091.588    21193102.461
       239.000         202.000
 00  4 19 21 43  0.0000000  0  6G30G17G 5G 6G24G10
  20912532.329      916280.68549    829260.84447  20912532.855    20912543.124
       243.000         208.000
  22404552.820    -2155478.84649  -1667844.86246  22404551.861    22404565.059
       230.000         186.000
  22398216.085     3262258.86249   2127280.99946  22398215.238    22398231.703
       226.000         178.000
  20981521.317    -1869180.78749  -1446766.77547  20981521.275    20981530.878
       243.000         209.000
  23379751.614     2636767.49249   1706791.52345  23379752.534    23379766.376
       218.000         159.000
  21202350.068     1173432.07449    915756.26747  21202349.569    21202360.400
       239.000         202.000
 00  4 19 21 43 30.0000000  0  7G30G17G 5G 6G24G10G13
  20921091.940      961261.38649    864310.66247  20921092.349    20921102.735
       243.000         208.000
  22393424.507    -2213957.93349  -1713412.86046  22393423.565    22393436.893
       231.000         186.000
  22416460.855     3358134.73949   2201989.22046  22416460.188    22416475.577
       226.000         177.000
  20972010.109    -1919162.54449  -1485713.55447  20972009.850    20972019.538
       242.000         209.000
  23394058.646     2711951.10349   1765376.04045  23394059.050    23394072.862
       218.000         159.000
  21211706.294     1222599.06249    954068.19447  21211705.702    21211716.515
       239.000         202.000
                   -618677.66059   -472152.69243
       206.000          74.000
 00  4 19 21 44  0.0000000  0  7G30G17G 5G 6G24G10G13
  20929752.111     1006770.52549    899772.23847  20929752.664    20929762.789
       242.000         208.000
  22382341.242    -2272200.15449  -1758796.30146  22382340.628    22382353.503
       230.000         186.000
  22434757.592     3454283.62949   2276910.15546  22434757.630    22434773.348
       226.000         177.000
  20962543.228    -1968911.21649  -1524478.71347  20962543.063    20962552.772
       242.000         209.000
  23408355.890     2787083.16849   1823920.38045  23408356.242    23408370.463
       220.000         159.000
  21221161.725     1272287.42349    992786.37947  21221161.366    21221172.283
       239.000         202.000
                   -626738.03549   -478433.57244                  24871764.347
       207.000         117.000
 00  4 19 21 44 30.0000000  0  7G30G17G 5G 6G24G10G13
  20938513.529     1052811.77549    935648.45147  20938514.008    20938524.601
       242.000         207.000
  22371303.013    -2330205.93949  -1803995.50046  22371302.270    22371315.103
       231.000         187.000
  22453104.616     3550697.04149   2352037.21446  22453104.329    22453120.256
       225.000         176.000
  20953120.911    -2018425.74649  -1563061.42047  20953120.676    20953130.603
       242.000         209.000
  23422647.822     2862186.89549   1882442.62945  23422648.578    23422662.270
       219.000         159.000
  21230716.999     1322500.37149   1031913.33347  21230716.441    21230727.290
       239.000         202.000
  24870309.386     -634308.60449   -484332.53845  24870309.093    24870326.211
       207.000         134.000
 00  4 19 21 45  0.0000000  0  7G30G17G 5G 6G24G10G13
  20947374.800     1099377.58249    971933.40847  20947375.394    20947385.676
       242.000         207.000
  22360307.788    -2387985.99249  -1849018.81546  22360307.321    22360319.988
       231.000         187.000
  22471497.011     3647348.24549   2427349.58946  22471496.297    22471512.841
       225.000         176.000
  20943742.622    -2067708.80349  -1601463.76247  20943742.569    20943752.334
       242.000         209.000
  23436937.094     2937276.15749   1940953.60845  23436937.076    23436951.755
       218.000         159.000
  21240371.067     1373232.70149   1071444.99547  21240370.328    21240381.763
       239.000         202.000
  24868960.381     -641397.29849   -489856.12645  24868960.657    24868976.450
       209.000         138.000
 00  4 19 21 45 30.0000000  0  7G30G17G 5G 6G24G10G13
  20956335.016     1146463.49249   1008623.63647  20956335.381    20956346.014
       242.000         207.000
  22349352.445    -2445556.31849  -1893878.69546  22349352.066    22349364.923
       232.000         187.000
  22489928.520     3744204.83849   2502821.99646  22489928.107    22489943.232
       225.000         176.000
  20934409.078    -2116756.70149  -1639682.86047  20934408.830    20934418.545
       242.000         209.000
  23451227.759     3012373.78049   1999471.10045  23451228.243    23451241.704
       220.000         159.000
  21250123.324     1424480.88249   1111378.62547  21250122.816    21250133.940
       239.000         202.000
  24867703.572     -648001.58349   -495002.23545  24867703.447    24867719.235
       211.000         140.000
 00  4 19 21 46  0.0000000  0  7G30G17G 5G 6G24G10G13
  20965396.010     1194078.82449   1045726.40847  20965396.398    20965406.840
       242.000         207.000
  22338436.138    -2502921.53249  -1938578.75246  22338435.243    22338448.706
       231.000         187.000
  22508395.464     3841248.64649   2578440.25646  22508396.371    22508410.592
       227.000         176.000
  20925118.435    -2165579.23149  -1677726.34747  20925118.322    20925128.000
       242.000         209.000
  23465519.879     3087478.53849   2057994.15645  23465519.949    23465534.834
       220.000         160.000
  21259975.858     1476256.17949   1151722.99647  21259975.165    21259986.308
       238.000         202.000
  24866540.921     -654110.98149   -499762.71545  24866540.972    24866556.350
       211.000         140.000
 00  4 19 21 46 30.0000000  0  7G30G17G 5G 6G24G10G13
  20974558.881     1242229.66949   1083246.45447  20974559.285    20974569.805
       242.000         207.000
  22327561.742    -2560066.50849  -1983107.20047  22327560.901    22327574.377
       231.000         188.000
  22526894.824     3938462.81649   2654191.28846  22526895.725    22526910.844
       227.000         176.000
  20915869.538    -2214182.31649  -1715598.84047  20915869.515    20915878.975
       242.000         210.000
  23479814.916     3162598.85949   2116529.33145  23479814.623    23479830.673
       220.000         160.000
  21269929.936     1528565.15049   1192483.21447  21269929.234    21269940.225
       239.000         202.000
  24865472.383     -659725.99149   -504137.94845  24865472.661    24865488.553
       210.000         142.000
 00  4 19 21 47  0.0000000  0  7G30G17G 5G 6G24G10G13
  20983823.244     1290913.86449   1121182.10047  20983823.831    20983834.338
       242.000         207.000
  22316730.390    -2616985.23449  -2027459.34747  22316729.550    22316742.457
       232.000         188.000
  22545427.222     4035850.09549   2730077.21746  22545427.365    22545443.287
       225.000         174.000
  20906664.586    -2262554.64849  -1753291.52447  20906664.297    20906674.004
       243.000         210.000
  23494111.675     3237728.37449   2175071.70245  23494112.265    23494126.983
       219.000         158.000
  21279984.724     1581403.44849   1233655.89847  21279984.064    21279994.751
       239.000         202.000
  24864497.658     -664848.15849   -508129.16545  24864497.916    24864513.530
       211.000         143.000
 00  4 19 21 47 30.0000000  0  7G30G17G 5G 6G24G10G13
  20993189.407     1340132.97649   1159534.55847  20993190.127    20993200.698
       243.000         207.000
  22305941.475    -2673681.06749  -2071637.79947  22305940.799    22305953.936
       232.000         188.000
  22563993.357     4133414.67349   2806101.26146  22563993.213    22564008.056
       225.000         175.000
  20897504.225    -2310692.57249  -1790801.55347  20897504.139    20897513.673
       243.000         210.000
  23508407.613     3312853.36149   2233610.55545  23508407.268    23508422.173
       220.000         157.000
  21290140.533     1634771.97649   1275241.74147  21290139.863    21290150.905
       241.000         202.000
  24863618.388     -669468.33449   -511729.21545  24863618.235    24863633.929
       212.000         144.000
 00  4 19 21 48  0.0000000  0  7G30G17G 5G 6G24G10G13
  21002659.377     1389897.62549   1198312.11347  21002659.821    21002670.267
       242.000         207.000
  22295196.628    -2730145.43849  -2115635.90247  22295196.057    22295208.968
       232.000         188.000
  22582598.849     4231185.54349   2882286.08546  22582597.943    22582615.097
       223.000         175.000
  20888388.321    -2358596.94749  -1828129.59447  20888388.200    20888397.811
       243.000         210.000
  23522701.009     3387965.32249   2292139.22345  23522701.912    23522716.157
       219.000         157.000
  21300395.919     1688663.97949   1317235.48447  21300395.403    21300406.075
       239.000         202.000
  24862834.883     -673585.58649   -514937.37545  24862835.687    24862850.354
       213.000         145.000
 00  4 19 21 48 30.0000000  0  7G30G17G 5G 6G24G10G13
  21012232.011     1440201.66849   1237509.97347  21012232.704    21012242.963
       242.000         207.000
  22284493.444    -2786390.65649  -2159463.23247  22284492.717    22284505.642
       232.000         188.000
  22601244.861     4329169.53349   2958636.99546  22601243.864    22601261.087
       223.000         174.000
  20879318.118    -2406261.26349  -1865270.57747  20879317.829    20879327.438
       243.000         210.000
  23536994.089     3463075.14849   2350666.24745  23536994.698    23537008.755
       218.000         156.000
  21310745.280     1743050.23649   1359614.35647  21310744.778    21310755.881
       239.000         202.000
  24862143.405     -677219.19349   -517768.66345  24862142.957    24862159.259
       213.000         146.000
 00  4 19 21 49  0.0000000  0  7G30G17G 5G 6G24G10G13
  21021906.825     1491042.71049   1277126.27247  21021907.516    21021917.947
       241.000         207.000
  22273827.563    -2842439.89849  -2203137.85447  22273826.940    22273839.541
       232.000         188.000
  22619935.001     4427386.05949   3035169.04046  22619935.355    22619950.368
       225.000         174.000
  20870295.360    -2453675.93449  -1902217.03547  20870295.155    20870304.744
       243.000         210.000
  23551287.773     3538188.47549   2409195.98745  23551287.423    23551301.598
       216.000         156.000
  21321186.238     1797917.15049   1402367.75547  21321185.650    21321196.733
       239.000         202.000
  24861542.617     -680375.82549   -520228.29645  24861542.652    24861557.924
       212.000         147.000
 00  4 19 21 49 30.0000000  0  7G30G17G 5G 6G24G10G13
  21031683.727     1542420.13149   1317160.53147  21031684.138    21031694.604
       241.000         206.000
  22263200.311    -2898286.57049  -2246654.62747  22263199.778    22263212.445
       232.000         189.000
  22638669.687     4525836.69949   3111883.52746  22638670.794    22638687.435
       227.000         175.000
  20861319.709    -2500843.19049  -1938970.69947  20861319.399    20861329.140
       243.000         210.000
  23565581.790     3613303.56149   2467727.10845  23565581.767    23565596.816
       217.000         157.000
  21331719.837     1853271.58649   1445501.05647  21331719.128    21331730.305
       239.000         203.000
  24861032.069     -683058.83149   -522318.88245  24861033.035    24861047.886
       215.000         148.000
 00  4 19 21 50  0.0000000  0  7G30G17G 5G 6G24G10G13
  21041560.089     1594320.45049   1357602.24147  21041560.441    21041571.191
       242.000         206.000
  22252612.821    -2953923.89049  -2290008.26247  22252612.127    22252624.918
       232.000         189.000
  22657448.884     4624520.63849   3188779.82746  22657449.344    22657464.911
       224.000         171.000
  20852390.277    -2547767.61149  -1975535.14647  20852390.231    20852399.631
       243.000         211.000
  23579876.231     3688420.69349   2526259.81245  23579877.131    23579891.852
       219.000         158.000
  21342344.919     1909106.40649   1489008.67647  21342344.253    21342355.232
       239.000         202.000
  24860609.641     -685278.44449   -524048.39045  24860609.938    24860624.913
       215.000         148.000
 00  4 19 21 50 30.0000000  0  7G30G17G 5G 6G24G10G13
  21051533.712     1646731.55149   1398441.96547  21051534.206    21051544.848
       241.000         206.000
  22242064.767    -3009353.96849  -2333200.41947  22242064.019    22242076.518
       232.000         189.000
  22676269.170     4723420.72249   3265844.48246  22676269.715    22676284.804
       223.000         172.000
  20843509.929    -2594433.98149  -2011898.51447  20843509.928    20843519.406
       243.000         211.000
  23594168.751     3763527.77649   2584784.68045  23594168.597    23594183.355
       218.000         158.000
  21353061.247     1965420.85449   1532890.03547  21353060.394    21353071.462
       239.000         202.000
  24860277.342     -687024.43649   -525408.81945  24860277.288    24860292.957
       215.000         149.000
 00  4 19 21 51  0.0000000  0  7G30G17G 5G 6G24G10G13
  21061603.060     1699645.70849   1439673.68347  21061603.665    21061614.214
       242.000         206.000
  22231558.327    -3064565.13549  -2376221.98047  22231557.883    22231570.366
       233.000         189.000
  22695130.026     4822533.55849   3343074.99646  22695129.239    22695147.789
       217.000         172.000
  20834678.043    -2640845.74849  -2048063.48847  20834677.803    20834687.654
       243.000         211.000
  23608455.036     3838602.19049   2643284.10945  23608455.656    23608469.029
       219.000         158.000
  21363871.308     2022228.29049   1577155.54247  21363870.640    21363881.513
       238.000         201.000
  24860038.864     -688277.53849   -526385.18145  24860038.743    24860054.120
       215.000         149.000
 00  4 19 21 51 30.0000000  0  8G30G17G 5G 6G24G23G10G13
  21071768.209     1753063.39449   1481297.75847  21071768.848    21071779.525
       242.000         206.000
  22221095.073    -3119549.55549  -2419066.86847  22221094.167    22221106.782
       232.000         189.000
  22714026.737     4921835.17549   3420452.62746  22714026.447    22714042.790
       221.000         171.000
  20825892.786    -2687012.39349  -2084037.46347  20825892.655    20825902.430
       242.000         211.000
  23622731.619     3913625.36149   2701743.60845  23622731.323    23622746.979
       216.000         157.000
                   -553091.64559    -82452.24043
       207.000          74.000
  21374775.017     2079527.42749   1621804.19247  21374774.362    21374785.212
       238.000         200.000
  24859894.015     -689038.46749   -526978.03045  24859893.974    24859910.098
       216.000         149.000
 00  4 19 21 52  0.0000000  0  7G30G17G 5G 6G24G10G13
  21082030.853     1806993.40149   1523321.04347  21082031.373    21082042.017
       241.000         206.000
  22210674.147    -3174311.34949  -2461738.27247  22210673.051    22210685.508
       232.000         190.000
  22732958.587     5021321.80049   3497974.31246  22732959.869    22732974.982
       224.000         172.000
  20817155.662    -2732926.13249  -2119814.36847  20817155.743    20817164.910
       243.000         211.000
  23636999.337     3988602.77049   2760167.44745  23636999.646    23637013.930
       215.000         155.000
  21385770.523     2137309.45449   1666829.12247  21385769.910    21385780.934
       238.000         200.000
  24859845.990     -689290.53649   -527174.36945  24859846.007    24859861.009
       216.000         149.000
 00  4 19 21 52 30.0000000  0  8G30G17G 5G 6G24G23G10G13
  21092395.273     1861458.60849   1565761.36747  21092395.828    21092406.682
       241.000         205.000
  22200296.388    -3228846.27149  -2504232.89447  22200295.765    22200308.104
       233.000         190.000
  22751927.283     5121001.54549   3575646.58046  22751927.169    22751944.848
       224.000         170.000
  20808470.062    -2778569.29049  -2155380.43147  20808469.886    20808479.305
       243.000         211.000
  23651263.879     4063562.48849   2818577.49545  23651264.161    23651278.662
       212.000         153.000
                   -765654.93359   -248081.00943
       204.000          74.000
  21396861.994     2195595.16449   1712246.53547  21396860.941    21396872.257
       238.000         200.000
  24859898.629     -689013.72049   -526958.59845  24859898.350    24859913.731
       216.000         150.000
 00  4 19 21 53  0.0000000  0  8G30G17G 5G 6G24G23G10G13
  21102855.684     1916428.04549   1608594.59247  21102856.037    21102866.964
       241.000         205.000
  22189954.057    -3283195.31849  -2546582.67847  22189953.225    22189965.754
       233.000         190.000
  22770926.040     5220839.87949   3653442.34546  22770926.995    22770941.036
       223.000         170.000
  20799827.614    -2823985.69349  -2190769.80647  20799827.559    20799836.894
       243.000         211.000
  23665522.694     4138492.60349   2876964.48545  23665522.680    23665537.400
       212.000         152.000
                   -871803.14849     -1624.05243
       215.000          74.000
  21408044.315     2254358.69149   1758036.26347  21408043.470    21408054.685
       238.000         200.000
  24860045.428     -688242.10549   -526357.28545  24860045.998    24860061.187
       217.000         150.000
 00  4 19 21 53 30.0000000  0  8G30G17G 5G 6G24G23G10G13
  21113413.587     1971909.78549   1651827.02047  21113413.978    21113424.840
       241.000         205.000
  22179650.832    -3337338.75849  -2588772.25847  22179649.838    22179662.451
       233.000         190.000
  22789959.756     5320861.37849   3731380.85946  22789960.069    22789977.049
       220.000         170.000
  20791234.392    -2869143.29449  -2225957.51647  20791234.218    20791243.973
       243.000         211.000
  23679783.858     4213434.60949   2935360.71745  23679783.237    23679799.386
       213.000         153.000
                   -977854.75749    -84258.26843
       204.000          74.000
  21419320.420     2313614.83549   1804209.85147  21419319.773    21419330.519
       238.000         200.000
  24860290.415     -686954.40849   -525353.82245  24860290.209    24860305.347
       216.000         150.000
 00  4 19 21 54  0.0000000  0  8G30G17G 5G 6G24G23G10G13
  21124069.645     2027907.39149   1695461.41447  21124069.951    21124080.774
       241.000         205.000
  22169390.955    -3391254.25749  -2630784.21447  22169390.131    22169402.587
       233.000         190.000
  22809036.720     5421109.92849   3809496.33946  22809036.253    22809052.587
       220.000         169.000
  20782696.451    -2914010.18849  -2260918.69847  20782696.249    20782705.674
       243.000         211.000
  23694054.857     4288428.86449   2993797.65545  23694055.277    23694070.399
       213.000         155.000
                  -1083806.14549   -166813.88243
       208.000          74.000
  21430695.173     2373389.50049   1850787.48147  21430694.529    21430705.692
       238.000         200.000
  24860639.794     -685118.26549   -523922.98445  24860640.067    24860654.995
       215.000         151.000
 00  4 19 21 54 30.0000000  0  8G30G17G 5G 6G24G23G10G13
  21134806.887     2084331.34849   1739428.03247  21134807.257    21134818.374
       241.000         205.000
  22159161.534    -3445009.93249  -2672671.64447  22159160.762    22159173.088
       234.000         191.000
  22828143.551     5521516.62949   3887734.99546  22828144.484    22828160.328
       224.000         170.000
  20774200.527    -2958656.54349  -2295708.04047  20774200.310    20774210.058
       243.000         211.000
  23708322.078     4363403.14449   3052219.03945  23708322.460    23708337.158
       215.000         157.000
                  -1189735.09849     81274.66243
       208.000          74.000
  21442156.203     2433617.22249   1897718.13647  21442155.685    21442166.365
       238.000         199.000
  24861080.374     -682802.31349   -522118.28045  24861080.402    24861096.548
       214.000         151.000
 00  4 19 21 55  0.0000000  0  7G30G17G 5G 6G24G10G13
  21145635.367     2141234.80349   1783768.28147  21145635.791    21145646.828
       241.000         205.000
  22148976.799    -3498530.52449  -2714375.88147  22148975.853    22148988.811
       233.000         191.000
  22847290.399     5622132.32949   3966136.49546  22847291.659    22847307.146
       223.000         169.000
  20765758.636    -3003018.79649  -2330276.00047  20765758.515    20765767.998
       243.000         211.000
  23722591.304     4438388.02749   3110648.68045  23722590.962    23722606.476
       215.000         158.000
  21453712.739     2494347.06049   1945040.05447  21453711.874    21453722.914
       237.000         199.000
  24861623.034     -679950.50549   -519896.02745  24861623.086    24861638.646
       215.000         151.000
 00  4 19 21 55 30.0000000  0  8G30G17G 5G 6G24G23G10G13
  21156549.117     2198586.79849   1828458.04047  21156549.645    21156560.444
       241.000         204.000
  22138831.142    -3551845.86449  -2755920.18247  22138830.367    22138842.780
       234.000         191.000
  22866467.867     5722908.48649   4044663.07646  22866467.794    22866485.626
       220.000         168.000
  20757363.494    -3047135.53849  -2364652.65747  20757363.516    20757372.909
       244.000         211.000
  23736849.693     4513315.72249   3169033.75545  23736849.601    23736865.445
       215.000         158.000
                  -1401343.49849    -83613.54044                  24412714.954
       212.000         122.000
  21465355.619     2555530.67149   1992715.55847  21465355.094    21465365.868
       238.000         199.000
  24862255.372     -676627.42249   -517306.54745  24862254.689    24862270.798
       214.000         151.000
 00  4 19 21 56  0.0000000  0  8G30G17G 5G 6G24G23G10G13
  21167555.850     2256427.26149   1873528.42747  21167556.286    21167567.544
       240.000         204.000
  22128727.301    -3604941.36649  -2797293.18347  22128726.312    22128738.484
       233.000         191.000
  22885675.095     5823841.60249   4123311.94546  22885674.417    22885691.509
       220.000         170.000
  20749018.038    -3090991.35349  -2398825.99347  20749017.894    20749027.377
       243.000         211.000
  23751096.092     4588180.62849   3227369.90845  23751096.398    23751111.092
       212.000         157.000
  24392578.634    -1507032.01649   -165967.68745  24392576.231    24392602.177
       210.000         139.000
  21477089.242     2617191.22149   2040762.70547  21477088.311    21477099.481
       237.000         199.000
  24862978.230     -672828.48249   -514346.27145  24862978.658    24862993.584
       214.000         150.000
 00  4 19 21 56 30.0000000  0  8G30G17G 5G 6G24G23G10G13
  21178663.458     2314797.64849   1919011.73747  21178664.046    21178674.869
       241.000         204.000
  22118670.095    -3657791.62549  -2838475.08447  22118669.084    22118681.539
       233.000         191.000
  22904911.198     5924927.23849   4202079.65446  22904913.089    22904928.260
       224.000         169.000
  20740725.579    -3134568.25549  -2432781.99047  20740725.245    20740734.986
       243.000         211.000
  23765331.383     4662987.59049   3285660.89645  23765331.953    23765347.349
       210.000         154.000
  24372493.832    -1612573.70849   -248207.20845  24372491.485    24372516.591
       204.000         137.000
  21488917.282     2679347.99849   2089196.52247  21488916.503    21488927.689
       239.000         199.000
  24863794.822     -668537.41449   -511002.50845  24863795.113    24863809.901
       213.000         149.000
 00  4 19 21 57  0.0000000  0  8G30G17G 5G 6G24G23G10G13
  21189873.175     2373704.69749   1964913.22047  21189873.766    21189884.827
       240.000         204.000
  22108660.695    -3710390.98649  -2879461.48247  22108659.733    22108672.107
       234.000         191.000
  22924176.344     6026164.54849   4280965.51246  22924176.643    22924193.485
       220.000         167.000
  20732487.418    -3177859.95849  -2466515.75547  20732487.338    20732496.916
       243.000         211.000
  23779556.679     4737741.10849   3343910.24945  23779557.015    23779572.455
       210.000         152.000
  24352440.142    -1717952.27149   -330319.64345  24352437.408    24352463.821
       207.000         139.000
  21500838.932     2741996.24149   2138013.29847  21500838.709    21500849.587
       238.000         199.000
  24864702.819     -663765.60349   -507284.15045  24864702.944    24864719.051
       211.000         147.000
 00  4 19 21 57 30.0000000  0  8G30G17G 5G 6G24G23G10G13
  21201184.608     2433146.11949   2011231.10647  21201185.025    21201196.045
       241.000         204.000
  22098697.131    -3762749.31449  -2920260.06047  22098696.311    22098708.721
       233.000         192.000
  22943471.721     6127560.96049   4359975.41046  22943471.825    22943489.565
       219.000         168.000
  20724303.619    -3220866.17749  -2500027.05847  20724303.603    20724312.959
       243.000         211.000
  23793776.189     4812464.85749   3402136.38845  23793776.291    23793791.752
       212.000         152.000
  24332419.122    -1823160.08349   -412299.11045  24332415.979    24332442.129
       203.000         137.000
  21512852.552     2805127.76649   2187206.65647  21512852.112    21512863.406
       238.000         199.000
  24865703.451     -658506.82549   -503186.33745  24865703.502    24865718.365
       210.000         145.000
 00  4 19 21 58  0.0000000  0  8G30G17G 5G 6G24G23G10G13
  21212591.585     2493089.56449   2057940.16847  21212592.098    21212603.181
       240.000         204.000
  22088778.143    -3814873.31749  -2960876.04947  22088777.258    22088789.699
       233.000         192.000
  22962796.630     6229113.21349   4439106.68046  22962797.016    22962813.831
       222.000         167.000
  20716171.884    -3263598.73949  -2533325.12647  20716171.703    20716181.338
       243.000         212.000
  23807990.942     4887163.08449   3460342.64845  23807990.861    23808006.627
       212.000         153.000
  24312430.349    -1928198.58049   -494146.51145  24312428.216    24312454.376
       209.000         144.000
  21524954.833     2868725.24249   2236763.08647  21524954.344    21524965.348
       238.000         199.000
  24866800.647     -652740.77449   -498693.24145  24866800.712    24866814.932
       207.000         142.000
 00  4 19 21 58 30.0000000  0  8G30G17G 5G 6G24G23G10G13
  21224088.810     2553507.28849   2105018.80347  21224089.319    21224100.275
       240.000         204.000
  22078901.302    -3866775.96249  -3001319.55347  22078900.475    22078913.097
       234.000         192.000
  22982149.429     6330811.45449   4518351.72046  22982149.279    22982167.569
       219.000         166.000
  20708088.667    -3306076.21449  -2566424.42147  20708088.369    20708097.948
       243.000         212.000
  23822199.791     4961830.64349   3518525.03345  23822201.083    23822214.653
       215.000         153.000
  24292466.800    -2033105.23349   -575891.25345  24292464.677    24292490.634
       207.000         147.000
  21537139.368     2932755.08249   2286656.41647  21537138.809    21537149.781
       237.000         198.000
  24867992.481     -646477.69149   -493812.84545  24867993.436    24868009.440
       209.000         141.000
 00  4 19 21 59  0.0000000  0  8G30G17G 5G 6G24G23G10G13
  21235672.046     2614377.27949   2152449.85147  21235672.400    21235683.398
       240.000         204.000
  22069063.408    -3918474.40749  -3041603.94247  22069062.606    22069074.884
       234.000         193.000
  23001531.410     6432662.96649   4597716.21046  23001532.091    23001548.668
       219.000         166.000
  20700053.495    -3348301.33649  -2599327.07547  20700053.361    20700062.714
       243.000         212.000
  23836402.985     5036468.04249   3576683.93345  23836402.912    23836418.584
       217.000         154.000
  24272520.729    -2137919.84949   -657564.32545  24272517.596    24272542.840
       207.000         141.000
  21549403.716     2997204.68249   2336876.83847  21549402.599    21549414.046
       237.000         197.000
  24869277.578     -639724.06449   -488550.20345  24869278.167    24869293.839
       208.000         140.000
 00  4 19 21 59 30.0000000  0  8G30G17G 5G 6G24G23G10G13
  21247341.377     2675699.62049   2200233.37747  21247341.761    21247352.716
       241.000         203.000
  22059261.822    -3969981.64149  -3081739.33047  22059261.071    22059273.633
       234.000         193.000
  23020943.299     6534671.96549   4677203.38346  23020943.442    23020960.605
       219.000         165.000
  20692065.451    -3390278.64649  -2632036.63247  20692065.151    20692074.816
       243.000         212.000
  23850600.305     5111075.29849   3634819.33845  23850600.723    23850615.753
       217.000         155.000
  24252589.000    -2242658.68249   -739178.41145  24252586.853    24252609.984
       200.000         138.000
  21561749.966     3062084.51749   2387432.50047  21561749.282    21561760.513
       237.000         197.000
  24870657.931     -632469.73849   -482897.37945  24870658.681    24870673.224
       208.000         141.000
 00  4 19 22  0  0.0000000  0  8G30G17G 5G 6G24G23G10G13
  21259097.009     2737475.39549   2248370.23347  21259097.583    21259108.717
       240.000         203.000
  22049496.859    -4021296.61349  -3121724.90447  22049496.022    22049508.243
       234.000         193.000
  23040385.203     6636838.31449   4756813.17746  23040385.193    23040402.845
       219.000         164.000
  20684129.636    -3431981.56549  -2664532.37747  20684129.645    20684139.144
       243.000         212.000
  23864792.992     5185657.48949   3692935.20045  23864793.437    23864809.008
       218.000         157.000
  24232668.792    -2347336.88849   -820745.06745  24232666.874    24232691.741
       208.000         142.000
  21574182.547     3127418.21049   2438341.82747  21574181.765    21574193.114
       237.000         196.000
  24872135.169     -624706.80249   -476848.27845  24872135.459    24872150.026
       208.000         140.000
 00  4 19 22  0 30.0000000  0  8G30G17G 5G 6G24G23G10G13
  21270941.758     2799719.67449   2296872.15047  21270942.293    21270953.352
       240.000         203.000
  22039768.281    -4072420.25449  -3161561.40347  22039767.576    22039779.728
       235.000         193.000
  23059857.393     6739164.02649   4836547.16746  23059857.523    23059875.132
       218.000         164.000
  20676252.444    -3473376.29649  -2696787.97547  20676252.089    20676261.484
       243.000         212.000
  23878986.139     5260242.28249   3751053.09345  23878986.422    23879002.160
       218.000         157.000
  24212764.064    -2451934.88049   -902249.37945  24212761.734    24212786.035
       205.000         140.000
  21586705.122     3193224.64849   2489619.51847  21586704.485    21586715.572
       236.000         196.000
  24873711.135     -616424.72349   -470394.62445  24873710.628    24873725.597
       209.000         141.000
 00  4 19 22  1  0.0000000  0  8G30G17G 5G 6G24G23G10G13
  21282875.801     2862433.04649   2345739.60347  21282876.341    21282887.307
       241.000         203.000
  22030077.074    -4123347.47549  -3201244.85047  22030076.336    22030088.515
       234.000         193.000
  23079361.511     6841657.70749   4916412.00346  23079361.391    23079379.851
       220.000         165.000
  20668437.458    -3514444.21049  -2728788.90647  20668437.189    20668446.591
       243.000         212.000
  23893182.833     5334846.01349   3809185.74245  23893183.453    23893198.423
       215.000         156.000
  24192881.020    -2556417.84649   -983664.05845  24192879.438    24192903.922
       214.000         145.000
  21599320.068     3259516.32149   2541275.31947  21599319.572    21599330.594
       236.000         195.000
  24875387.657     -607614.39149   -463529.33645  24875387.398    24875402.500
       210.000         140.000
 00  4 19 22  1 30.0000000  0  8G30G17G 5G 6G24G23G10G13
  21294900.766     2925624.19649   2394979.34847  21294901.676    21294912.445
       240.000         203.000
  22020425.940    -4174064.16349  -3240764.24647  22020425.357    22020437.217
       235.000         193.000
  23098894.039     6944300.99449   4996393.43446  23098893.559    23098912.193
       218.000         163.000
  20660686.424    -3555176.03549  -2760527.95847  20660686.235    20660695.585
       244.000         212.000
  23907384.647     5409476.52049   3867339.23445  23907384.412    23907400.840
       215.000         155.000
  24173023.195    -2660770.26449  -1064976.99745  24173021.515    24173045.701
       206.000         151.000
  21612026.207     3326287.46449   2593304.73147  21612025.586    21612037.049
       236.000         195.000
  24877165.197     -598273.19249   -456250.40745  24877164.807    24877179.692
       210.000         140.000
 00  4 19 22  2  0.0000000  0  8G30G17G 5G 6G24G23G10G13
  21307015.914     2989288.98849   2444588.17047  21307016.499    21307027.580
       240.000         203.000
  22010818.131    -4224553.06849  -3280106.14647  22010817.158    22010829.090
       236.000         193.000
  23118451.426     7047073.68149   5076475.68646  23118451.569    23118470.758
       217.000         165.000
  20652998.686    -3595575.56749  -2792008.07647  20652998.627    20653007.954
       244.000         212.000
  23921591.164     5484131.90149   3925512.10845  23921591.307    23921607.305
       215.000         154.000
  24153192.047    -2764980.12449  -1146178.81045  24153189.705    24153214.237
       212.000         141.000
  21624818.928     3393513.29649   2645688.43847  21624818.060    21624829.419
       235.000         195.000
  24879042.972     -588405.09049   -448560.90945  24879043.187    24879057.845
       209.000         141.000
 00  4 19 22  2 30.0000000  0  8G30G17G 5G 6G24G23G10G13
  21319219.542     3053418.81949   2494559.35947  21319220.211    21319231.270
       241.000         203.000
  22001254.350    -4274810.42949  -3319267.62347  22001253.419    22001265.569
       235.000         194.000
  23138031.324     7149966.12549   5156651.24446  23138032.483    23138049.887
       220.000         163.000
  20645367.315    -3635678.57849  -2823257.14047  20645367.050    20645376.394
       243.000         212.000
  23935798.553     5558791.41449   3983688.21745  23935798.771    23935815.197
       213.000         153.000
  24133389.680    -2869040.94449  -1227264.71445  24133388.383    24133411.958
       209.000         147.000
  21637692.163     3461162.82949   2698402.30847  21637691.598    21637702.956
       235.000         195.000
  24881016.377     -578034.70449   -440479.99945  24881016.391    24881030.791
       212.000         141.000
 00  4 19 22  3  0.0000000  0  8G30G17G 5G 6G24G23G10G13
  21331510.340     3118006.90649   2544887.63047  21331511.132    21331522.003
       241.000         203.000
  21991734.422    -4324837.60849  -3358249.72747  21991733.720    21991746.049
       236.000         194.000
  23157632.928     7252970.94849   5236914.39945  23157632.285    23157651.617
       214.000         162.000
  20637787.903    -3675508.47049  -2854293.37747  20637787.667    20637797.041
       244.000         212.000
  23949999.485     5633417.03049   4041837.90645  23949999.760    23950015.382
       215.000         153.000
  24113612.544    -2972967.34749  -1308245.61045  24113610.655    24113633.609
       212.000         145.000
  21650642.473     3529216.85549   2751431.36447  21650642.002    21650653.294
       236.000         195.000
  24883080.918     -567185.31949   -432025.86045  24883081.331    24883095.093
       212.000         141.000
 00  4 19 22  3 30.0000000  0  8G30G17G 5G 6G24G23G10G13
  21343887.311     3183047.70649   2595568.66647  21343887.824    21343899.307
       240.000         202.000
  21982258.548    -4374633.26949  -3397051.44347  21982258.209    21982269.801
       236.000         194.000
  23177253.990     7356079.34749   5317258.23546  23177254.720    23177272.566
       219.000         164.000
  20630258.092    -3715077.81949  -2885126.59948  20630257.960    20630267.390
       244.000         213.000
  23964189.783     5707987.07649   4099944.28845  23964189.687    23964205.791
       215.000         152.000
  24093859.648    -3076768.42949  -1389129.13245  24093858.439    24093881.088
       214.000         147.000
  21663668.783     3597670.02749   2804771.44347  21663668.315    21663679.718
       236.000         195.000
  24885236.372     -555857.98549   -423199.28845  24885235.640    24885251.911
       212.000         141.000
 00  4 19 22  4  0.0000000  0  8G30G17G 5G 6G24G23G10G13
  21356347.991     3248528.41349   2646592.48747  21356348.458    21356359.753
       240.000         202.000
  21972824.277    -4424210.64849  -3435683.06447  21972823.771    21972835.486
       236.000         195.000
  23196895.688     7459296.30249   5397686.63945  23196896.343    23196914.668
       216.000         161.000
  20622777.623    -3754387.79149  -2915757.70948  20622777.418    20622787.020
       244.000         213.000
  23978365.519     5782480.01249   4157990.58445  23978365.403    23978382.199
       216.000         152.000
  24074132.214    -3180433.50749  -1469906.50545  24074129.847    24074154.025
       204.000         147.000
  21676771.276     3666523.91049   2858423.77347  21676770.594    21676781.948
       236.000         194.000
  24887481.041     -544061.87949   -414007.44245  24887481.475    24887495.517
       210.000         141.000
 00  4 19 22  4 30.0000000  0  8G30G17G 5G 6G24G23G10G13
  21368892.654     3314450.51049   2697960.25447  21368893.153    21368904.326
       239.000         202.000
  21963428.707    -4473584.61949  -3474156.17547  21963427.825    21963440.059
       236.000         195.000
  23216561.356     7562637.95349   5478212.24146  23216561.139    23216579.746
       216.000         163.000
  20615348.639    -3793427.34249  -2946178.10248  20615348.591    20615357.982
       244.000         213.000
  23992525.969     5856893.06849   4215974.65445  23992526.879    23992541.927
       217.000         151.000
  24054433.741    -3283947.90949  -1550566.46045  24054432.313    24054454.967
       210.000         150.000
  21689952.362     3735790.65449   2912397.81047  21689951.689    21689962.924
       237.000         194.000
  24889817.060     -531785.66449   -404441.47745  24889816.948    24889832.887
       212.000         141.000
 00  4 19 22  5  0.0000000  0  8G30G17G 5G 6G24G23G10G13
  21381522.757     3380821.90949   2749678.11647  21381523.409    21381534.576
       239.000         202.000
  21954070.673    -4522761.16449  -3512475.44647  21954069.834    21954081.429
       236.000         195.000
  23236250.203     7666102.36949   5558833.51845  23236251.328    23236269.302
       221.000         161.000
  20607974.328    -3832179.65549  -2976374.67548  20607974.176    20607983.366
       243.000         213.000
  24006674.074     5931241.17649   4273908.09745  24006674.175    24006690.378
       218.000         150.000
  24034764.333    -3387308.69749  -1631106.84045  24034761.701    24034785.730
       207.000         142.000
  21703213.778     3805479.50949   2966700.75947  21703213.128    21703224.007
       236.000         194.000
  24892248.774     -519006.77249   -394483.81845  24892248.895    24892263.497
       207.000         142.000
 00  4 19 22  5 30.0000000  0  8G30G17G 5G 6G24G23G10G13
  21394239.763     3447649.74449   2801751.65047  21394240.456    21394252.026
       239.000         202.000
  21944750.454    -4571738.68449  -3550639.62847  21944749.376    21944761.556
       237.000         195.000
  23255961.627     7769684.19649   5639546.23345  23255961.873    23255981.348
       216.000         162.000
  20600655.294    -3870641.39149  -3006344.82248  20600655.193    20600664.515
       244.000         213.000
  24020814.309     6005547.88949   4331809.32045  24020814.786    24020831.306
       219.000         147.000
  24015124.543    -3490514.56949  -1711526.38145  24015122.896    24015146.545
       212.000         151.000
  21716556.865     3875597.54849   3021338.13947  21716556.291    21716567.641
       236.000         194.000
  24894779.181     -505708.99149   -384121.83145  24894778.693    24894794.461
       209.000         141.000
 00  4 19 22  6  0.0000000  0  8G30G17G 5G 6G24G23G10G13
  21407044.212     3514937.21249   2854183.33747  21407044.591    21407056.071
       240.000         201.000
  21935466.601    -4620525.28649  -3588655.04747  21935466.093    21935478.023
       237.000         195.000
  23275695.992     7873387.94149   5720353.98845  23275696.401    23275714.863
       220.000         161.000
  20593394.714    -3908796.15949  -3036075.77648  20593394.490    20593403.878
       244.000         213.000
  24034951.152     6079836.83649   4389696.69445  24034951.679    24034965.910
       217.000         145.000
  23995513.643    -3593567.83849  -1791827.10045  23995511.973    23995534.851
       207.000         145.000
  21729981.917     3946146.25749   3076311.11447  21729981.117    21729992.435
       237.000         195.000
  24897409.204     -491887.88749   -373352.06845  24897409.342    24897423.396
       208.000         141.000
 00  4 19 22  6 30.0000000  0  8G30G17G 5G 6G24G23G10G13
  21419935.319     3582679.96749   2906969.79647  21419935.757    21419947.165
       240.000         201.000
  21926221.611    -4669107.79549  -3626511.43247  21926220.793    21926232.488
       237.000         196.000
  23295453.075     7977210.22449   5801254.06845  23295452.544    23295473.122
       217.000         160.000
  20586191.400    -3946649.68849  -3065571.99848  20586191.017    20586200.330
       244.000         213.000
  24049087.805     6154124.72949   4447583.24645  24049087.373    24049104.088
       216.000         143.000
  23975930.341    -3696476.88249  -1872015.37945  23975928.150    23975951.957
       206.000         148.000
  21743488.349     4017122.26749   3131617.04647  21743487.787    21743498.736
       236.000         195.000
  24900140.962     -477532.39549   -362165.90145  24900140.242    24900155.740
       210.000         141.000
 00  4 19 22  7  0.0000000  0  8G30G17G 5G 6G24G23G10G13
  21432910.991     3650867.03449   2960102.46747  21432911.284    21432923.056
       239.000         201.000
  21917016.246    -4717482.08649  -3664205.57747  21917015.246    21917027.360
       237.000         196.000
  23315227.806     8081125.74649   5882226.84545  23315229.283    23315245.885
       220.000         160.000
  20579046.318    -3984197.14349  -3094829.72548  20579046.123    20579055.174
       244.000         213.000
  24063222.902     6228404.82549   4505463.73945  24063222.468    24063240.096
       214.000         140.000
  23956371.842    -3799254.30649  -1952101.03345  23956369.810    23956392.055
       210.000         148.000
  21757075.168     4088521.20749   3187252.52947  21757074.201    21757085.806
       235.000         194.000
  24902970.689     -462661.79949   -350578.34745  24902969.233    24902984.818
       209.000         141.000
 00  4 19 22  7 30.0000000  0  8G30G17G 5G 6G24G23G10G13
  21445969.064     3719487.25449   3013572.66547  21445969.224    21445981.192
       239.000         201.000
  21907851.322    -4765643.76449  -3701734.04847  21907850.621    21907862.196
       237.000         196.000
  23335021.190     8185138.50849   5963275.37245  23335021.011    23335040.340
       218.000         157.000
  20571961.056    -4021430.20649  -3123842.46648  20571960.798    20571970.057
       245.000         213.000
  24077354.946     6302668.87449   4563331.71545  24077356.003    24077370.392
       214.000         138.000
  23936840.835    -3901887.90349  -2032074.75045  23936839.441    23936861.418
       212.000         149.000
  21770741.852     4160340.29749   3243215.40747  21770740.780    21770752.702
       235.000         194.000
  24905897.077     -447282.91349   -338594.74845  24905897.726    24905911.405
       210.000         141.000
 00  4 19 22  8  0.0000000  0  7G30G17G 5G 6G24G23G10
  21459103.482     3788508.76949   3067355.55447  21459104.001    21459115.517
       239.000         201.000
  21898722.623    -4813615.10849  -3739114.20547  21898721.910    21898733.341
       238.000         196.000
  23354830.507     8289235.82349   6044389.77945  23354830.188    23354849.715
       216.000         159.000
  20564933.413    -4058360.62949  -3152619.38648  20564933.393    20564942.612
       246.000         214.000
  24091477.166     6376881.00149   4621159.23845  24091478.866    24091492.268
       208.000         137.000
  23917338.115    -4004372.66749  -2111932.40245  23917335.873    23917358.840
       211.000         149.000
  21784484.440     4232557.90549   3299488.81047  21784483.896    21784495.076
       234.000         193.000
 00  4 19 22  8 30.0000000  0  7G30G17G 5G 6G24G23G10
  21472314.433     3857932.37249   3121451.76147  21472315.106    21472326.109
       239.000         200.000
  21889629.773    -4861397.60549  -3776347.19547  21889628.725    21889640.670
       237.000         196.000
  23374651.704     8393396.15149   6125553.27545  23374652.045    23374671.122
       219.000         158.000
  20557960.258    -4095004.78349  -3181173.24748  20557959.980    20557969.410
       246.000         214.000
  24105585.191     6451018.30249   4678928.44945  24105585.151    24105603.841
       206.000         137.000
  23897863.621    -4106709.84549  -2191675.12045  23897862.254    23897883.136
       208.000         148.000
  21798298.865     4305153.18649   3356056.51247  21798298.302    21798309.848
       236.000         193.000
 00  4 19 22  9  0.0000000  0  7G30G17G 5G 6G24G23G10
  21485612.329     3927812.77549   3175903.92247  21485612.640    21485624.199
       239.000         200.000
  21880580.415    -4908951.72249  -3813402.22447  21880579.490    21880590.983
       237.000         196.000
  23394493.908     8497665.79249   6206801.99745  23394494.678    23394513.262
       218.000         160.000
  20551051.091    -4131312.39649  -3209464.86548  20551050.814    20551060.126
       245.000         214.000
  24119688.290     6525130.40549   4736677.98245  24119686.848    24119704.833
       204.000         136.000
  23878425.614    -4208854.43949  -2271267.66845  23878423.591    23878446.555
       211.000         149.000
  21812192.583     4378164.32949   3412948.25747  21812191.974    21812203.472
       236.000         193.000
 00  4 19 22  9 30.0000000  0  7G30G17G 5G 6G24G23G10
  21498997.246     3998150.33049   3230712.29047  21498997.684    21499009.177
       239.000         200.000
  21871573.840    -4956281.05849  -3850282.11547  21871573.065    21871584.871
       237.000         197.000
  23414357.639     8602049.19449   6288139.32245  23414358.357    23414377.891
       217.000         158.000
  20544202.728    -4167300.63749  -3237507.62548  20544202.714    20544211.797
       245.000         214.000
  24133787.109     6599219.40749   4794409.52445  24133788.156    24133805.746
       202.000         135.000
  23859023.666    -4310811.17549  -2350713.91745  23859021.653    23859044.044
       209.000         151.000
  21826162.709     4451577.43649   3470153.22147  21826162.212    21826173.482
       235.000         193.000
 00  4 19 22 10  0.0000000  0  7G30G17G 5G 6G24G23G10
  21512468.736     4068943.07149   3285875.35447  21512468.978    21512480.772
       238.000         200.000
  21862609.044    -5003390.89449  -3886990.96747  21862608.401    21862619.954
       237.000         197.000
  23434238.621     8706523.10449   6369547.17545  23434239.304    23434258.761
       217.000         158.000
  20537412.609    -4202983.09949  -3265312.10848  20537412.415    20537421.726
       246.000         214.000
  24147881.588     6673286.39649   4852123.91845  24147879.781    24147899.161
       199.000         135.000
  23839654.342    -4412595.14349  -2430025.45745  23839652.782    23839675.299
       215.000         151.000
  21840208.239     4525386.87149   3527667.01447  21840207.159    21840218.554
       235.000         192.000
 00  4 19 22 10 30.0000000  0  7G30G17G 5G 6G24G23G10
  21526024.120     4140176.41049   3341381.74047  21526024.753    21526035.896
       239.000         200.000
  21853685.403    -5050284.49249  -3923531.31947  21853684.539    21853696.067
       237.000         197.000
  23454133.940     8811072.13249   6451013.57845  23454134.640    23454154.206
       216.000         157.000
  20530679.107    -4238367.79849  -3292884.57748  20530679.107    20530688.276
       246.000         214.000
  24161973.497     6747339.26449   4909827.29945  24161973.234    24161991.025
       201.000         136.000
  23820313.239    -4514232.52349  -2509222.86745  23820311.192    23820332.560
       206.000         151.000
  21854327.025     4599581.61649   3585481.05647  21854326.185    21854337.677
       234.000         191.000
 00  4 19 22 11  0.0000000  0  7G30G17G 5G 6G24G23G10
  21539657.539     4211820.00649   3397207.80447  21539658.145    21539669.624
       238.000         200.000
  21844799.667    -5096979.01849  -3959916.55347  21844799.020    21844810.290
       237.000         197.000
  23474043.426     8915695.03049   6532537.51445  23474043.678    23474063.037
       217.000         159.000
  20524001.815    -4273457.10649  -3320226.86948  20524001.619    20524010.837
       246.000         214.000
  24176061.079     6821369.63549   4967513.15345  24176061.891    24176077.262
       201.000         138.000
  23801000.504    -4615718.58149  -2588302.37045  23800999.551    23801020.214
       213.000         150.000
  21868520.225     4674167.32449   3643599.73247  21868519.409    21868530.551
       234.000         191.000
 00  4 19 22 11 30.0000000  0  7G30G17G 5G 6G24G23G10
  21553366.812     4283862.08849   3453344.37947  21553367.234    21553379.031
       239.000         199.000
  21835949.183    -5143487.98249  -3996157.18747  21835948.547    21835960.026
       238.000         197.000
  23493966.499     9020390.19749   6614117.77945  23493966.565    23493986.466
       216.000         156.000
  20517383.437    -4308236.90349  -3347327.98048  20517383.071    20517392.479
       246.000         214.000
  24190140.806     6895358.50749   5025166.68245  24190141.643    24190157.608
       203.000         141.000
  23781717.292    -4717050.18649  -2667261.44145  23781713.812    23781736.378
       208.000         150.000
  21882787.516     4749142.31349   3702021.75447  21882786.982    21882798.225
       234.000         191.000
 00  4 19 22 12  0.0000000  0  7G30G17G 5G 6G24G23G10
  21567152.184     4356304.37149   3509792.79547  21567152.411    21567164.178
       238.000         199.000
  21827134.235    -5189810.55149  -4032252.57447  21827133.240    21827145.066
       237.000         197.000
  23513907.351     9125178.32549   6695770.48045  23513907.591    23513927.653
       215.000         156.000
  20510830.668    -4342671.80049  -3374160.34148  20510830.657    20510839.687
       246.000         214.000
  24204214.471     6969315.70749   5082795.54845  24204214.891    24204231.013
       205.000         144.000
  23762465.853    -4818215.70349  -2746091.27445  23762465.038    23762484.594
       213.000         152.000
  21897130.882     4824516.87149   3760755.11347  21897130.042    21897141.881
       234.000         191.000
 00  4 19 22 12 30.0000000  0  7G30G17G 5G 6G24G23G10
  21581015.082     4429153.83049   3566558.48947  21581015.474    21581027.248
       239.000         199.000
  21818357.070    -5235934.39449  -4068193.12547  21818356.156    21818367.881
       237.000         197.000
  23533871.994     9230091.48649   6777520.59345  23533872.569    23533892.160
       216.000         157.000
  20504349.760    -4376729.03949  -3400698.41948  20504349.414    20504358.903
       245.000         214.000
  24218282.911     7043245.25049   5140402.86145  24218283.131    24218298.997
       208.000         146.000
  23743249.481    -4919195.34549  -2824776.10545  23743248.191    23743269.661
       215.000         153.000
  21911551.017     4900295.28049   3819803.16647  21911549.880    21911561.638
       233.000         190.000
 00  4 19 22 13  0.0000000  0  8G30G26G17G 5G 6G24G23G10
  21594961.185     4502440.71649   3623665.03747  21594961.609    21594973.675
       239.000         199.000
  23408865.081     -530109.28859   -384740.47045  23408864.930    23408884.671
       209.000         136.000
  21809620.687    -5281844.10849  -4103966.81647  21809619.934    21809631.422
       237.000         197.000
  23553864.255     9335150.45349   6859384.33145  23553863.869    23553883.954
       212.000         152.000
  20497946.673    -4410377.54849  -3426918.00248  20497946.387    20497955.646
       246.000         214.000
  24232347.713     7117156.36649   5197995.78645  24232348.045    24232363.662
       208.000         149.000
  23724074.572    -5019958.14649  -2903292.12745  23724072.536    23724092.721
       207.000         150.000
  21926050.661     4976491.79849   3879177.02947  21926050.001    21926061.474
       233.000         190.000
 00  4 19 22 13 30.0000000  0  8G30G26G17G 5G 6G24G23G10
  21608994.396     4576185.20649   3681128.15647  21608994.834    21609006.700
       238.000         198.000
  23393186.289     -612507.80849   -448946.74145  23393185.125    23393203.930
       211.000         144.000
  21800931.181    -5327507.34249  -4139548.45847  21800930.480    21800941.678
       237.000         197.000
  23573886.319     9440365.96049   6941370.04445  23573886.228    23573906.366
       216.000         155.000
  20491623.883    -4443603.93749  -3452808.66648  20491623.824    20491632.959
       246.000         214.000
  24246413.376     7191071.21149   5255591.63045  24246413.797    24246429.091
       210.000         151.000
  23704942.523    -5120494.99749  -2981631.99945  23704941.461    23704962.119
       216.000         155.000
  21940630.555     5053109.52649   3938879.09547  21940629.928    21940641.281
       233.000         189.000
 00  4 19 22 14  0.0000000  0  8G30G26G17G 5G 6G24G23G10
  21623112.904     4650378.09149   3738940.66047  21623113.530    21623124.932
       238.000         198.000
  23377551.682     -694664.90849   -512964.90245  23377551.038    23377569.108
       215.000         148.000
  21792291.366    -5372909.38549  -4174926.57447  21792290.701    21792302.276
       237.000         198.000
  23593933.552     9545713.46549   7023458.58945  23593933.710    23593953.674
       211.000         155.000
  20485374.056    -4476446.76349  -3478400.44548  20485373.961    20485382.962
       246.000         214.000
  24260478.819     7264984.88149   5313186.56345  24260478.620    24260495.634
       211.000         153.000
  23685856.544    -5220790.36049  -3059783.75545  23685854.124    23685875.258
       212.000         152.000
  21955290.097     5130145.49149   3998907.06647  21955289.569    21955301.074
       234.000         189.000
 00  4 19 22 14 30.0000000  0  8G30G26G17G 5G 6G24G23G10
  21637310.799     4724987.84849   3797078.01247  21637311.251    21637323.154
       238.000         198.000
  23361957.303     -776612.36749   -576819.71545  23361957.034    23361975.235
       215.000         152.000
  21783697.753    -5418068.94649  -4210115.75147  21783696.970    21783708.339
       237.000         198.000
  23613995.612     9651139.62949   7105608.44045  23613996.930    23614016.534
       216.000         153.000
  20479186.400    -4508963.08849  -3503737.81048  20479186.334    20479195.358
       246.000         214.000
  24274539.535     7338873.37749   5370761.88645  24274540.146    24274556.477
       213.000         153.000
  23666813.907    -5320858.05349  -3137758.09745  23666812.836    23666833.826
       214.000         156.000
  21970022.800     5207565.65249   4059234.40247  21970022.330    21970033.742
       233.000         189.000
 00  4 19 22 15  0.0000000  0  8G30G26G17G 5G 6G24G23G10
  21651582.497     4799985.72449   3855517.78447  21651583.321    21651594.865
       237.000         197.000
  23346394.663     -858393.47649   -640544.90445  23346394.178    23346412.836
       216.000         155.000
  21775144.168    -5463017.72349  -4245140.68247  21775143.412    21775154.869
       237.000         198.000
  23634063.680     9756595.92249   7187781.77945  23634063.958    23634085.050
       211.000         154.000
  20473050.545    -4541207.21549  -3528863.07548  20473050.392    20473059.443
       246.000         214.000
  24288591.181     7412714.49449   5428300.29345  24288591.658    24288607.920
       213.000         153.000
  23647809.196    -5420726.25049  -3215576.99445  23647807.194    23647827.924
       215.000         153.000
  21984822.399     5285337.58549   4119835.84547  21984821.645    21984833.202
       233.000         189.000
 00  4 19 22 15 30.0000000  0  8G30G26G17G 5G 6G24G23G10
  21665919.726     4875327.95249   3914225.88447  21665920.176    21665932.001
       238.000         197.000
  23330855.149     -940052.95049   -704175.32645  23330854.675    23330872.502
       216.000         158.000
  21766627.000    -5507775.48349  -4280016.77047  21766626.248    21766637.818
       237.000         198.000
  23654130.958     9862048.81649   7269952.40845  23654131.436    23654152.741
       214.000         152.000
  20466959.103    -4573217.82849  -3553806.38548  20466958.879    20466968.043
       246.000         214.000
  24302626.727     7486471.16649   5485772.89745  24302626.322    24302643.551
       213.000         153.000
  23628835.065    -5520434.23649  -3293271.04545  23628832.879    23628854.852
       213.000         157.000
  21999684.495     5363438.24049   4180693.42747  21999683.766    21999695.477
       233.000         189.000
 00  4 19 22 16  0.0000000  0  8G30G26G17G 5G 6G24G23G10
  21680318.658     4950994.72749   3973186.87047  21680319.267    21680331.472
       237.000         197.000
  23315337.526    -1021597.69849   -767716.34845  23315337.028    23315355.007
       216.000         159.000
  21758139.145    -5552379.04749  -4314772.70647  21758138.374    21758149.685
       237.000         198.000
  23674192.882     9967472.74549   7352100.57745  23674193.577    23674214.399
       218.000         155.000
  20460912.034    -4604995.12049  -3578567.88848  20460911.825    20460921.104
       246.000         214.000
  24316642.071     7560121.57449   5543162.70345  24316641.799    24316658.501
       213.000         152.000
  23609887.191    -5620004.12349  -3370857.54145  23609886.716    23609905.369
       216.000         154.000
  22014605.474     5441848.68249   4241792.40447  22014604.976    22014616.909
       233.000         189.000
 00  4 19 22 16 30.0000000  0  8G30G26G17G 5G 6G24G23G10
  21694783.025     5027005.26049   4032415.72047  21694783.864    21694795.741
       237.000         197.000
  23299845.911    -1103005.60549   -831150.73445  23299845.343    23299863.121
       214.000         159.000
  21749679.144    -5596836.22349  -4349414.57847  21749678.261    21749689.448
       237.000         198.000
  23694254.142    10072893.55149   7434246.21345  23694254.939    23694276.014
       212.000         155.000
  20454919.476    -4636486.08549  -3603106.27848  20454919.304    20454928.570
       246.000         214.000
  24330643.062     7633696.95549   5600494.03145  24330643.486    24330659.415
       211.000         152.000
  23590963.660    -5719445.84149  -3448344.09845  23590961.028    23590983.049
       212.000         155.000
  22029586.957     5520576.74549   4303138.87247  22029586.385    22029598.184
       233.000         189.000
 00  4 19 22 17  0.0000000  0  8G30G26G17G 5G 6G24G23G10
  21709318.778     5103390.82549   4091936.80547  21709319.361    21709331.894
       238.000         197.000
  23284384.862    -1184252.42749   -894459.59345  23284384.446    23284401.977
       212.000         158.000
  21741252.566    -5641117.65149  -4383919.50047  21741251.755    21741263.129
       238.000         198.000
  23714322.618    10178352.77449   7516421.79645  23714323.316    23714343.959
       215.000         154.000
  20448994.086    -4667624.46349  -3627369.92448  20448993.966    20449003.077
       246.000         214.000
  24344635.326     7707226.67949   5657789.76845  24344635.879    24344652.208
       212.000         151.000
  23572067.340    -5818744.35549  -3525719.17645  23572065.259    23572084.923
       213.000         154.000
  22044636.814     5599663.65849   4364764.96947  22044635.906    22044647.464
       234.000         189.000
 00  4 19 22 17 30.0000000  0  8G30G26G17G 5G 6G24G23G10
  21723930.570     5180175.56049   4151768.92547  21723931.095    21723943.353
       237.000         196.000
  23268959.898    -1265309.74949   -957620.78245  23268959.495    23268976.557
       207.000         154.000
  21732864.204    -5685198.51349  -4418268.14047  21732863.562    21732874.795
       237.000         199.000
  23734404.148    10283879.74949   7598650.23645  23734403.834    23734425.708
       211.000         151.000
  20443144.441    -4698364.39849  -3651323.09848  20443144.176    20443153.353
       245.000         214.000
  24358627.002     7780752.76949   5715082.67945  24358627.613    24358643.812
       212.000         149.000
  23553203.999    -5917869.91149  -3602959.37245  23553203.457    23553223.800
       218.000         157.000
  22059761.185     5679142.17749   4426696.21347  22059760.735    22059771.986
       234.000         188.000
 00  4 19 22 18  0.0000000  0  8G30G26G17G 5G 6G24G23G10
  21738624.085     5257389.64449   4211935.60447  21738625.093    21738636.610
       237.000         196.000
  23253578.774    -1346136.52749  -1020602.30645  23253577.863    23253596.229
       206.000         150.000
  21724516.890    -5729063.40049  -4452448.48647  21724516.140    21724527.265
       238.000         199.000
  23754501.349    10389490.38949   7680943.79345  23754501.201    23754523.651
       211.000         152.000
  20437375.649    -4728679.63049  -3674945.33848  20437375.479    20437384.809
       246.000         215.000
  24372626.899     7854321.71849   5772408.99545  24372626.991    24372643.962
       210.000         148.000
  23534379.927    -6016789.13049  -3680038.87245  23534378.109    23534398.844
       213.000         155.000
  22074960.468     5759014.76049   4488934.52046  22074959.703    22074971.271
       234.000         187.000
 00  4 19 22 18 30.0000000  0  8G30G26G17G 5G 6G24G23G10
  21753399.446     5335034.33449   4272437.82547  21753399.915    21753412.645
       237.000         196.000
  23238245.153    -1426713.69049  -1083389.33645  23238244.378    23238263.154
       209.000         149.000
  21716214.199    -5772694.09349  -4486446.34147  21716213.418    21716224.716
       237.000         199.000
  23774617.350    10495199.46549   7763314.06745  23774618.054    23774639.230
       214.000         154.000
  20431686.884    -4758574.11449  -3698239.72348  20431686.708    20431695.709
       246.000         215.000
  24386636.926     7927944.28649   5829777.09945  24386636.413    24386653.473
       211.000         146.000
  23515597.606    -6115489.78549  -3756948.05345  23515595.272    23515615.557
       213.000         156.000
  22090235.043     5839282.75149   4551480.94046  22090234.609    22090246.127
       233.000         186.000
 00  4 19 22 19  0.0000000  0  8G30G26G17G 5G 6G24G23G10
  21768252.694     5413088.12949   4333258.82147  21768253.402    21768265.145
       236.000         196.000
  23222957.323    -1507050.33849  -1145988.96945  23222956.762    23222973.947
       214.000         154.000
  21707957.311    -5816084.19349  -4520256.72447  21707956.385    21707967.487
       237.000         199.000
  23794750.925    10601000.06649   7845755.67945  23794751.456    23794772.966
       210.000         151.000
  20426073.402    -4788072.94849  -3721225.80448  20426073.334    20426082.363
       244.000         215.000
  24400651.434     8001590.48549   5887163.60445  24400651.470    24400667.682
       209.000         144.000
  23496858.356    -6213963.51949  -3833680.42145  23496857.284    23496877.412
       219.000         157.000
  22105582.444     5919933.63749   4614325.71646  22105581.524    22105593.183
       232.000         185.000
 00  4 19 22 19 30.0000000  0  8G30G26G17G 5G 6G24G23G10
  21783179.472     5491527.91249   4394380.58847  21783180.128    21783192.241
       237.000         195.000
  23207713.556    -1587155.76649  -1208408.44945  23207712.615    23207730.228
       217.000         160.000
  21699743.828    -5859245.86649  -4553889.11147  21699743.090    21699754.132
       237.000         199.000
  23814896.822    10706866.19949   7928248.34045  23814898.319    23814918.458
       212.000         151.000
  20420528.407    -4817212.13049  -3743931.63948  20420528.252    20420537.291
       245.000         215.000
  24414665.833     8075236.34949   5944549.86145  24414666.048    24414683.462
       207.000         141.000
  23478164.000    -6312201.17649  -3910228.78845  23478161.897    23478182.628
       215.000         158.000
  22120995.358     6000928.92749   4677438.85646  22120994.994    22121006.135
       232.000         185.000
 00  4 19 22 20  0.0000000  0  8G30G26G17G 5G 6G24G23G10
  21798175.441     5570331.67549   4455785.97247  21798176.197    21798188.189
       236.000         195.000
  23192511.210    -1667043.60949  -1270658.38246  23192510.649    23192527.677
       218.000         164.000
  21691570.763    -5902195.27449  -4587356.09947  21691569.909    21691581.236
       237.000         199.000
  23835050.458    10812771.54749   8010771.55045  23835051.447    23835073.288
       211.000         152.000
  20415047.607    -4846014.02349  -3766374.64548  20415047.417    20415056.429
       245.000         215.000
  24428673.374     8148845.71749   6001907.66845  24428672.922    24428690.262
       205.000         140.000
  23459512.321    -6410215.24949  -3986603.00745  23459510.579    23459529.442
       215.000         159.000
  22136470.259     6082249.88649   4740805.76946  22136469.771    22136481.289
       233.000         185.000
 00  4 19 22 20 30.0000000  0  8G30G26G17G 5G 6G24G23G10
  21813236.503     5649477.25249   4517457.70347  21813237.230    21813249.277
       238.000         195.000
  23177344.498    -1746743.62449  -1332761.93846  23177343.819    23177361.211
       215.000         166.000
  21683435.918    -5944943.72349  -4620666.49247  21683435.190    21683446.020
       237.000         199.000
  23855208.576    10918701.05549   8093313.57545  23855208.593    23855231.566
       210.000         147.000
  20409628.954    -4874489.10549  -3788562.99748  20409628.638    20409637.755
       244.000         215.000
  24442667.911     8222387.16949   6059212.57045  24442667.473    24442684.726
       204.000         138.000
  23440902.758    -6508007.41949  -4062804.24545  23440901.981    23440921.874
       219.000         160.000
  22152007.608     6163898.86149   4804428.26846  22152006.605    22152018.697
       233.000         186.000
 00  4 19 22 21  0.0000000  0  8G30G26G17G 5G 6G24G23G10
  21828361.114     5728956.87249   4579389.73247  21828361.190    21828373.563
       236.000         195.000
  23162209.301    -1826278.25349  -1394736.60646  23162208.677    23162225.589
       211.000         164.000
  21675337.519    -5987500.69349  -4653827.68347  21675336.807    21675348.097
       238.000         200.000
  23875365.278    11024623.26149   8175849.96045  23875364.959    23875386.944
       213.000         146.000
  20404268.823    -4902656.60949  -3810511.67748  20404268.559    20404277.664
       244.000         215.000
  24456647.075     8295847.70049   6116454.41045  24456646.976    24456664.622
       203.000         135.000
  23422336.190    -6605574.24549  -4138829.93345  23422333.886    23422353.912
       215.000         158.000
  22167605.858     6245867.87849   4868300.16346  22167605.376    22167616.832
       232.000         186.000
 00  4 19 22 21 30.0000000  0  8G30G26G17G 5G 6G24G23G10
  21843546.709     5808757.30649   4641571.73547  21843547.027    21843559.376
       237.000         195.000
  23147106.353    -1905643.33949  -1456579.15245  23147105.582    23147122.449
       209.000         161.000
  21667272.450    -6029882.72349  -4686852.56247  21667271.760    21667282.889
       238.000         200.000
  23895513.956    11130503.24249   8258353.40345  23895514.340    23895535.921
       211.000         149.000
  20398964.212    -4930532.36549  -3832233.02548  20398964.001    20398973.385
       244.000         215.000
  24470611.655     8369231.20049   6173636.21345  24470612.897    24470627.380
       201.000         133.000
  23403810.107    -6702927.44949  -4214689.11945  23403808.780    23403828.246
       214.000         161.000
  22183263.222     6328147.45349   4932414.04546  22183262.997    22183273.820
       232.000         185.000
 00  4 19 22 22  0.0000000  0  8G30G26G17G 5G 6G24G23G10
  21858792.756     5888875.50249   4704001.35547  21858793.302    21858805.892
       236.000         194.000
  23132037.867    -1984827.60149  -1518280.82545  23132036.874    23132053.910
       213.000         160.000
  21659237.253    -6072107.73749  -4719755.08847  21659236.513    21659247.379
       238.000         200.000
  23915655.843    11236347.62249   8340829.08045  23915656.256    23915678.090
       211.000         147.000
  20393716.945    -4958106.87949  -3853719.63448  20393716.824    20393725.784
       244.000         215.000
  24484559.741     8442528.84849   6230751.13444  24484560.891    24484578.608
       200.000         130.000
  23385321.404    -6800084.50349  -4290395.50945  23385320.699    23385339.918
       219.000         161.000
  22198979.968     6410739.22749   4996771.20046  22198979.077    22198990.960
       231.000         185.000
 00  4 19 22 22 30.0000000  0  8G30G26G17G 5G 6G24G23G10
  21874101.243     5969321.52349   4766686.41547  21874101.724    21874114.421
       235.000         194.000
  23117008.778    -2063804.83149  -1579821.20745  23117007.888    23117024.792
       212.000         160.000
  21651234.475    -6114162.58149  -4752525.01947  21651233.733    21651244.845
       238.000         201.000
  23935795.623    11342181.50649   8423296.63245  23935796.673    23935818.844
       210.000         145.000
  20388531.323    -4985357.55649  -3874953.90248  20388531.104    20388540.442
       244.000         215.000
  24498492.126     8515743.38749   6287801.28044  24498490.538    24498508.415
       199.000         126.000
  23366872.136    -6897034.29049  -4365940.31145  23366870.482    23366888.735
       216.000         160.000
  22214755.060     6493637.46849   5061367.16546  22214754.995    22214766.365
       232.000         185.000
 00  4 19 22 23  0.0000000  0  8G30G26G17G 5G 6G24G23G10
  21889475.027     6050110.73549   4829638.89547  21889475.471    21889488.225
       236.000         193.000
  23102026.481    -2142535.97849  -1641169.79745  23102025.670    23102042.450
       211.000         159.000
  21643264.797    -6156042.97849  -4785159.02447  21643264.230    21643275.495
       239.000         201.000
  23955937.565    11448026.56649   8505772.84645  23955937.779    23955960.238
       209.000         146.000
  20383411.127    -5012264.22049  -3895920.11148  20383410.888    20383420.067
       245.000         215.000
  24512410.508     8588884.42749   6344794.16944  24512412.210    24512426.649
       195.000         122.000
  23348463.390    -6993771.05149  -4441319.19045  23348460.977    23348481.938
       214.000         162.000
  22230589.231     6576845.78449   5126204.73246  22230588.774    22230600.508
       233.000         186.000
 00  4 19 22 23 30.0000000  0  8G30G26G17G 5G 6G24G23G10
  21904917.735     6131262.01149   4892873.50547  21904918.111    21904930.966
       235.000         193.000
  23087097.328    -2220987.43249  -1702300.42445  23087096.726    23087113.238
       211.000         158.000
  21635331.033    -6197735.35349  -4817646.51547  21635330.223    21635341.533
       239.000         201.000
  23976089.714    11553924.60949   8588290.30745  23976089.649    23976111.845
       210.000         149.000
  20378364.119    -5038786.46649  -3916586.77148  20378364.032    20378372.956
       244.000         215.000
  24526317.470     8661964.93248   6401739.85344  24526314.306    24526332.475
       192.000         120.000
  23330095.873    -7090290.67649  -4516528.86745  23330094.702    23330112.832
       217.000         162.000
  22246485.339     6660379.80349   5191296.10746  22246484.819    22246496.498
       233.000         187.000
 00  4 19 22 24  0.0000000  0  8G30G26G17G 5G 6G24G23G10
  21920434.887     6212804.48749   4956412.94547  21920435.758    21920447.587
       235.000         193.000
  23072223.615    -2299147.80449  -1763204.24845  23072222.583    23072239.747
       215.000         161.000
  21627437.276    -6239217.10349  -4849969.88147  21627436.567    21627447.516
       238.000         201.000
  23996257.602    11659905.27549   8670872.18545  23996258.366    23996280.103
       211.000         147.000
  20373396.977    -5064889.06949  -3936926.43848  20373396.831    20373405.873
       245.000         215.000
  24540216.346     8735003.67848   6458653.02844  24540214.813    24540235.078
       193.000         119.000
  23311774.183    -7186570.10849  -4591551.32246  23311773.755    23311792.095
       217.000         163.000
  22262447.620     6744261.71049   5256658.55446  22262446.849    22262458.957
       232.000         187.000
 00  4 19 22 24 30.0000000  0  8G30G26G17G 5G 6G24G23G10
  21936028.033     6294746.45749   5020263.67247  21936028.953    21936041.205
       236.000         192.000
  23057405.716    -2377015.06949  -1823879.69545  23057405.011    23057421.538
       216.000         162.000
  21619587.371    -6280468.26749  -4882113.57447  21619587.041    21619597.908
       239.000         201.000
  24016440.792    11765966.78149   8753517.12045  24016442.133    24016462.660
       211.000         143.000
  20368508.974    -5090575.64649  -3956941.92848  20368508.835    20368517.719
       244.000         215.000
  24554111.063     8808020.13448   6515548.84644  24554109.534    24554129.288
       193.000         116.000
  23293501.715    -7282591.03049  -4666372.38345  23293500.535    23293518.575
       217.000         161.000
  22278478.483     6828504.23749   5322302.00746  22278477.591    22278490.004
       231.000         186.000
 00  4 19 22 25  0.0000000  0  8G30G26G17G 5G 6G24G23G10
  21951693.501     6377068.54449   5084410.59547  21951694.218    21951706.883
       235.000         192.000
  23042639.343    -2454611.70649  -1884344.26945  23042638.793    23042655.051
       217.000         162.000
  21611780.071    -6321495.87349  -4914083.06847  21611779.456    21611790.239
       239.000         201.000
  24036634.371    11872083.22549   8836204.81545  24036634.864    24036657.568
       207.000         143.000
  20363695.684    -5115869.38149  -3976651.31348  20363695.307    20363704.428
       244.000         215.000
  24568002.788     8881020.80748   6572432.30844  24567999.248    24568019.739
       192.000         116.000
  23275276.253    -7378365.32249  -4741001.25446  23275273.753    23275294.029
       215.000         163.000
  22294576.875     6913101.85249   5388222.14046  22294576.326    22294588.697
       230.000         185.000
 00  4 19 22 25 30.0000000  0  8G30G26G17G 5G 6G24G23G10
  21967426.152     6459743.73049   5148832.65947  21967426.847    21967439.807
       236.000         192.000
  23027917.331    -2531975.22749  -1944627.19146  23027917.005    23027933.200
       221.000         165.000
  21604014.639    -6362303.16749  -4945880.88147  21604014.112    21604024.830
       239.000         202.000
  24056831.363    11978218.08249   8918906.78045  24056832.511    24056855.410
       202.000         145.000
  20358953.082    -5140791.84949  -3996071.39948  20358952.860    20358961.897
       244.000         215.000
  24581891.259     8954004.84048   6629302.83644  24581892.710    24581907.302
       190.000         114.000
  23257094.635    -7473908.62249  -4815450.14946  23257093.169    23257112.312
       219.000         163.000
  22310738.691     6998032.56949   5454401.83546  22310738.407    22310750.236
       229.000         185.000
 00  4 19 22 26  0.0000000  0  8G30G26G17G 5G 6G24G23G10
  21983218.997     6542735.34249   5213501.28947  21983219.764    21983232.487
       235.000         192.000
  23013235.261    -2609129.21249  -2004746.84946  23013234.249    23013250.612
       223.000         169.000
  21596287.998    -6402906.78249  -4977519.99147  21596287.501    21596298.440
       239.000         202.000
  24077024.712    12084333.80049   9001593.81245  24077024.583    24077047.954
       205.000         146.000
  20354276.479    -5165367.65249  -4015221.35148  20354276.398    20354285.384
       245.000         215.000
  24595774.529     9026961.97548   6686152.40344  24595773.101    24595790.348
       189.000         110.000
  23238954.760    -7569232.24049  -4889727.83346  23238953.657    23238972.096
       218.000         164.000
  22326959.820     7083274.89349   5520824.34046  22326959.368    22326971.067
       229.000         184.000
 00  4 19 22 26 30.0000000  0  8G30G26G17G 5G 6G24G23G10
  21999067.170     6626017.17749   5278396.06547  21999067.303    21999081.089
       235.000         192.000
  22998591.927    -2686079.27849  -2064707.61646  22998591.037    22998607.179
       222.000         170.000
  21588597.967    -6443318.03849  -5009009.20447  21588597.165    21588608.489
       238.000         202.000
  24097211.995    12190416.60349   9084255.22945  24097213.536    24097235.406
       211.000         147.000
  20349662.621    -5189613.68049  -4034114.34248  20349662.292    20349671.069
       245.000         215.000
  24609650.207     9099878.72948   6742970.55244  24609650.553    24609671.236
       186.000         107.000
  23220852.114    -7664360.11149  -4963853.00446  23220850.929    23220868.218
       219.000         163.000
  22343235.577     7168804.05749   5587470.35846  22343235.250    22343246.629
       229.000         184.000
 00  4 19 22 27  0.0000000  0  7G30G26G17G 5G 6G23G10
  22014967.957     6709575.52649   5343506.29847  22014968.564    22014981.370
       235.000         192.000
  22983986.991    -2762827.52049  -2124511.12746  22983986.467    22984002.783
       225.000         171.000
  21580942.846    -6483545.59049  -5040355.27247  21580941.815    21580952.982
       239.000         202.000
  24117390.596    12296453.15149   9166880.68245  24117392.267    24117414.262
       212.000         145.000
  20345113.384    -5213519.89349  -4052742.54048  20345113.211    20345122.129
       245.000         215.000
  23202784.973    -7759301.50749  -5037832.86546  23202783.397    23202801.438
       218.000         164.000
  22359564.647     7254613.61549   5654334.87246  22359564.256    22359576.428
       229.000         184.000
 00  4 19 22 27 30.0000000  0  7G30G26G17G 5G 6G23G10
  22030922.553     6793416.57049   5408836.82747  22030923.099    22030936.033
       234.000         191.000
  22969424.913    -2839350.71949  -2184139.28546  22969424.288    22969439.888
       225.000         172.000
  21573321.102    -6523597.63649  -5071564.58347  21573320.371    21573331.116
       239.000         202.000
  24137558.628    12402434.10049   9249462.83845  24137558.466    24137581.525
       210.000         144.000
  20340632.323    -5237067.86149  -4071091.58648  20340631.974    20340641.037
       244.000         215.000
  23184753.470    -7854055.85949  -5111666.99646  23184751.810    23184770.412
       218.000         165.000
  22375947.048     7340703.16949   5721417.55146  22375946.385    22375958.083
       227.000         184.000
 00  4 19 22 28  0.0000000  0  7G30G26G17G 5G 6G23G10
  22046936.945     6877572.32449   5474412.57547  22046937.533    22046950.662
       234.000         191.000
  22954914.643    -2915601.76849  -2243555.36546  22954914.184    22954929.638
       223.000         172.000
  21565734.121    -6563467.21049  -5102631.70647  21565733.373    21565744.201
       239.000         202.000
  24157719.972    12508381.00449   9332018.37345  24157720.288    24157743.788
       207.000         144.000
  20336223.915    -5260234.12249  -4089143.19948  20336223.795    20336232.841
       245.000         215.000
  23166762.797    -7948595.54149  -5185333.86546  23166761.864    23166779.687
       218.000         165.000
  22392385.345     7427086.68049   5788729.29046  22392384.815    22392396.563
       228.000         183.000
 00  4 19 22 28 30.0000000  0  7G30G26G17G 5G 6G23G10
  22063016.967     6962072.98649   5540257.08947  22063017.531    22063030.126
       236.000         191.000
  22940463.516    -2991541.60749  -2302728.95846  22940462.568    22940478.133
       223.000         171.000
  21558184.359    -6603141.06949  -5133546.32547  21558183.400    21558194.657
       239.000         202.000
  24177879.262    12614316.96449   9414565.33945  24177879.952    24177904.188
       205.000         145.000
  20331892.728    -5282994.66349  -4106878.66948  20331892.424    20331901.406
       244.000         215.000
  23148818.403    -8042892.35049  -5258811.46846  23148816.947    23148835.107
       218.000         165.000
  22408881.773     7513775.57649   5856278.99146  22408881.074    22408892.868
       228.000         183.000
 00  4 19 22 29  0.0000000  0  7G30G26G17G 5G 6G23G10
  22079165.368     7046932.74149   5606381.41447  22079165.822    22079178.572
       235.000         190.000
  22926077.475    -3067139.43949  -2361636.04646  22926076.398    22926092.685
       219.000         170.000
  21550673.293    -6642611.66649  -5164302.56147  21550672.760    21550683.314
       239.000         202.000
  24198037.931    12720249.37349   9497109.54945  24198039.436    24198061.638
       210.000         150.000
  20327641.231    -5305336.35749  -4124287.76348  20327641.037    20327649.944
       245.000         215.000
  23130926.240    -8136914.43849  -5332075.00546  23130924.314    23130943.064
       218.000         165.000
  22425438.357     7600781.07249   5924075.39346  22425438.252    22425449.332
       229.000         182.000
 00  4 19 22 29 30.0000000  0  7G30G26G17G 5G 6G23G10
  22095382.517     7132154.10949   5672787.50547  22095382.945    22095396.228
       234.000         190.000
  22911758.888    -3142382.37149  -2420266.56646  22911757.980    22911773.919
       219.000         169.000
  21543202.537    -6681870.54449  -5194893.82047  21543201.752    21543212.486
       239.000         202.000
  24218198.458    12826191.67349   9579661.49745  24218199.459    24218222.610
       214.000         153.000
  20323469.196    -5327260.47749  -4141371.47848  20323469.125    20323477.822
       245.000         216.000
  23113088.752    -8230649.60249  -5405115.01146  23113086.813    23113105.025
       217.000         166.000
  22442054.637     7688099.60349   5992115.72546  22442054.579    22442065.959
       230.000         182.000
 00  4 19 22 30  0.0000000  0  7G30G26G17G 5G 6G23G10
  22111663.893     7217712.96349   5739456.57647  22111664.733    22111677.594
       234.000         189.000
  22897503.932    -3217291.06549  -2478636.66646  22897503.148    22897519.166
       219.000         169.000
  21535771.472    -6720920.56549  -5225322.33447  21535770.856    21535781.352
       239.000         203.000
  24238363.080    12932155.76849   9662230.44645  24238363.680    24238387.116
       212.000         151.000
  20319373.794    -5348782.01649  -4158141.49548  20319373.750    20319382.477
       245.000         216.000
  23095304.392    -8324105.33849  -5477937.24646  23095303.664    23095320.344
       218.000         166.000
  22458730.027     7775728.73249   6060398.08646  22458729.305    22458741.022
       230.000         181.000
 00  4 19 22 30 30.0000000  0  7G30G26G17G 5G 6G23G10
  22128002.872     7303574.12749   5806361.21547  22128003.692    22128016.725
       234.000         189.000
  22883306.550    -3291897.38749  -2536771.14446  22883306.057    22883321.640
       223.000         171.000
  21528378.942    -6759768.50249  -5255593.38147  21528378.304    21528388.829
       239.000         203.000
  24258529.812    13038131.16249   9744808.19845  24258530.629    24258553.834
       208.000         146.000
  20315352.322    -5369914.93949  -4174608.69248  20315352.214    20315361.195
       245.000         216.000
  23077567.467    -8417311.62549  -5550565.12846  23077566.623    23077583.532
       221.000         166.000
  22475462.197     7863656.66549   6128913.28046  22475461.622    22475473.496
       230.000         180.000
 00  4 19 22 31  0.0000000  0  7G30G26G17G 5G 6G23G10
  22144395.743     7389718.41549   5873486.46047  22144396.164    22144409.316
       233.000         189.000
  22869158.433    -3366245.46449  -2594704.40946  22869158.401    22869173.342
       226.000         175.000
  21521024.055    -6798418.23249  -5285709.98147  21521023.346    21521034.091
       239.000         203.000
  24278694.088    13144094.22349   9827376.31845  24278694.699    24278718.405
       204.000         141.000
  20311400.887    -5390679.90549  -4190789.17348  20311400.920    20311409.662
       245.000         216.000
  23059874.952    -8510285.19349  -5623011.67346  23059874.221    23059890.884
       219.000         166.000
  22492249.774     7951875.58349   6197655.21646  22492249.220    22492260.799
       229.000         180.000
 00  4 19 22 31 30.0000000  0  7G30G26G17G 5G 6G23G10
  22160838.817     7476126.82149   5940817.50847  22160839.330    22160852.780
       233.000         188.000
  22855052.616    -3440371.08049  -2652464.35346  22855051.877    22855066.995
       225.000         175.000
  21513705.311    -6836878.28949  -5315678.78947  21513704.812    21513715.345
       239.000         203.000
  24298853.856    13250033.02949   9909925.50945  24298853.794    24298879.532
       206.000         141.000
  20307518.849    -5411080.20449  -4206685.49748  20307518.727    20307527.454
       244.000         216.000
  23042222.586    -8603047.33449  -5695293.47646  23042220.972    23042238.849
       220.000         167.000
  22509089.427     8040368.25849   6266610.46146  22509088.892    22509100.355
       230.000         179.000
 00  4 19 22 32  0.0000000  0  7G30G26G17G 5G 6G23G10
  22177334.302     7562810.49749   6008363.06747  22177335.230    22177348.435
       234.000         188.000
  22840990.382    -3514267.55649  -2710045.74446  22840989.302    22841005.486
       224.000         173.000
  21506420.940    -6875157.55149  -5345506.70947  21506420.335    21506430.980
       239.000         203.000
  24319005.733    13355929.54049   9992441.75045  24319007.611    24319031.114
       208.000         144.000
  20303707.558    -5431108.73149  -4222292.12248  20303707.436    20303716.240
       245.000         216.000
  23024612.882    -8695585.95849  -5767401.14146  23024610.024    23024628.680
       219.000         167.000
  22525980.598     8129131.61449   6335776.64146  22525980.009    22525991.535
       230.000         179.000
 00  4 19 22 32 30.0000000  0  7G30G26G17G 5G 6G23G10
  22193884.966     7649784.40449   6076134.77747  22193885.873    22193899.662
       234.000         188.000
  22826973.276    -3587927.24249  -2767442.61046  22826972.626    22826987.577
       218.000         167.000
  21499173.373    -6913243.58549  -5375184.07047  21499172.822    21499183.474
       240.000         203.000
  24339147.090    13461770.41749  10074914.66245  24339147.609    24339172.675
       211.000         147.000
  20299969.042    -5450754.68149  -4237600.64248  20299968.934    20299977.778
       245.000         216.000
  23007050.672    -8787874.64649  -5839314.03846  23007048.302    23007065.651
       218.000         168.000
  22542921.090     8218153.81949   6405144.51446  22542919.572    22542932.454
       229.000         178.000
 00  4 19 22 33  0.0000000  0  7G30G26G17G 5G 6G23G10
  22210492.303     7737055.64349   6144138.18147  22210493.475    22210506.242
       233.000         188.000
  22813007.162    -3661318.24549  -2824630.14345  22813004.785    22813020.096
       212.000         155.000
  21491962.778    -6951135.30549  -5404710.01147  21491961.974    21491972.645
       240.000         204.000
  24359278.073    13567557.22149  10157345.44045  24359278.343    24359303.047
       211.000         147.000
  20296305.289    -5470007.72249  -4252602.99648  20296305.050    20296313.802
       245.000         216.000
  22989540.414    -8879889.93449  -5911013.88646  22989539.343    22989556.690
       222.000         169.000
  22559910.761     8307434.75349   6474713.98746  22559909.919    22559921.986
       230.000         178.000
 00  4 19 22 33 30.0000000  0  7G30G26G17G 5G 6G23G10
  22227157.948     7824633.65649   6212380.61346  22227159.118    22227172.022
       233.000         187.000
  22799102.824    -3734383.68549  -2881563.98545  22799102.480    22799115.314
       207.000         145.000
  21484789.577    -6988830.41549  -5434082.75647  21484789.020    21484799.503
       240.000         204.000
  24379401.840    13673305.96649  10239746.56845  24379402.631    24379427.258
       207.000         144.000
  20292720.051    -5488848.11449  -4267283.80748  20292719.922    20292728.605
       245.000         216.000
  22972084.204    -8971621.16949  -5982492.40546  22972083.567    22972101.196
       222.000         169.000
  22576949.082     8396971.34649   6544482.68646  22576949.103    22576960.457
       229.000         177.000
 00  4 19 22 34  0.0000000  0  7G30G26G17G 5G 6G23G10
  22243885.193     7912535.13449   6280875.09546  22243886.248    22243899.585
       234.000         187.000
  22785266.839    -3807090.19449  -2938218.15345  22785265.049    22785280.291
       210.000         143.000
  21477655.912    -7026317.87549  -5463293.69447  21477655.039    21477666.025
       239.000         204.000
  24399520.758    13779029.57549  10322128.11945  24399520.084    24399546.191
       201.000         138.000
  20289214.125    -5507271.84549  -4281639.94648  20289213.999    20289222.790
       245.000         216.000
  22954684.355    -9063056.80849  -6053740.57946  22954683.403    22954699.226
       222.000         169.000
  22594037.118     8486769.22749   6614454.98446  22594037.094    22594048.047
       228.000         176.000
 00  4 19 22 34 30.0000000  0  7G30G26G17G 5G 6G23G10
  22260671.703     8000747.92249   6349612.15646  22260672.977    22260686.512
       233.000         186.000
  22771499.732    -3879435.61249  -2994590.93645  22771498.879    22771514.091
       219.000         152.000
  21470563.309    -7063589.41549  -5492336.38147  21470562.609    21470573.340
       240.000         204.000
  24419638.483    13884747.17149  10404504.98044  24419637.357    24419664.021
       197.000         131.000
  20285787.978    -5525276.40149  -4295669.45448  20285787.881    20285796.722
       245.000         216.000
  22937337.418    -9154213.84449  -6124771.63846  22937336.392    22937352.801
       222.000         170.000
  22611174.750     8576828.04149   6684630.59846  22611173.530    22611185.761
       226.000         175.000
 00  4 19 22 35  0.0000000  0  7G30G26G17G 5G 6G23G10
  22277517.652     8089273.54649   6418592.98446  22277518.555    22277531.619
       233.000         186.000
  22757804.289    -3951405.26049  -3050670.93745  22757804.000    22757819.030
       222.000         162.000
  21463508.598    -7100661.79449  -5521223.87447  21463507.983    21463518.615
       240.000         204.000
  24439756.196    13990464.69949  10486881.72944  24439756.489    24439783.229
       195.000         128.000
  20282441.674    -5542861.39549  -4309372.02548  20282441.508    20282450.455
       245.000         216.000
  22920043.006    -9245095.96949  -6195588.53146  22920041.276    22920058.111
       221.000         170.000
  22628362.382     8667149.59449   6755010.93346  22628362.041    22628374.039
       226.000         175.000
 00  4 19 22 35 30.0000000  0  7G30G26G17G 5G 6G23G10
  22294423.952     8178116.11349   6487820.78246  22294424.751    22294438.426
       232.000         185.000
  22744177.120    -4023016.01349  -3106471.26146  22744177.414    22744191.629
       225.000         170.000
  21456492.083    -7137533.83449  -5549955.26347  21456491.490    21456502.253
       240.000         204.000
  24459873.601    14096179.49449  10569256.38244  24459874.931    24459900.078
       199.000         130.000
  20279177.057    -5560016.91449  -4322739.94248  20279176.888    20279185.885
       245.000         216.000
  22902803.114    -9335690.31349  -6266181.16246  22902801.800    22902818.161
       222.000         170.000
  22645600.140     8757734.22649   6825596.27846  22645599.538    22645611.865
       226.000         175.000
 00  4 19 22 36  0.0000000  0  7G30G26G17G 5G 6G23G10
  22311388.625     8267265.37549   6557287.55446  22311389.377    22311402.891
       232.000         185.000
  22730614.505    -4094287.84349  -3162007.49646  22730614.323    22730628.519
       223.000         173.000
  21449513.639    -7174205.43849  -5578530.47147  21449512.921    21449523.476
       240.000         204.000
  24479989.311    14201885.46649  10651624.17845  24479989.296    24480014.543
       205.000         136.000
  20275997.346    -5576726.34549  -4335760.26348  20275997.319    20276006.320
       245.000         216.000
  22885621.026    -9425981.41249  -6336537.47846  22885619.765    22885635.655
       221.000         171.000
  22662890.507     8848595.20049   6896396.94346  22662889.768    22662902.390
       224.000         175.000
 00  4 19 22 36 30.0000000  0  7G30G26G17G 5G 6G23G10
  22328409.950     8356712.62249   6626986.52346  22328410.393    22328424.161
       232.000         185.000
  22717116.478    -4165219.87249  -3217278.96446  22717115.718    22717131.387
       220.000         172.000
  21442572.267    -7210682.46449  -5606954.06147  21442571.257    21442581.992
       240.000         204.000
  24500101.018    14307570.94749  10733975.99945  24500101.922    24500126.794
       209.000         141.000
  20272904.535    -5592979.15349  -4348424.77548  20272904.450    20272913.552
       245.000         216.000
  22868499.483    -9515954.44449  -6406645.98346  22868498.048    22868514.614
       222.000         171.000
  22680236.589     8939749.21249   6967425.94946  22680235.819    22680248.635
       223.000         175.000
 00  4 19 22 37  0.0000000  0  7G30G26G17G 5G 6G23G10
  22345488.080     8446457.84449   6696917.67846  22345489.270    22345501.726
       233.000         185.000
  22703683.670    -4235808.42149  -3272282.77346  22703683.007    22703697.378
       215.000         168.000
  21435667.999    -7246964.40349  -5635225.63247  21435667.216    21435677.864
       240.000         204.000
  24520204.814    14413215.26849  10816295.75245  24520204.626    24520231.318
       209.000         144.000
  20269898.192    -5608777.66349  -4360735.28548  20269898.072    20269906.956
       245.000         216.000
  22851440.573    -9605598.71449  -6476498.30746  22851439.318    22851454.932
       222.000         171.000
  22697639.038     9031199.55049   7038685.85646  22697638.532    22697651.193
       224.000         175.000
 00  4 19 22 37 30.0000000  0  7G30G26G17G 5G 6G23G10
  22362618.880     8536479.93449   6767064.56446  22362619.770    22362632.577
       233.000         185.000
  22690314.050    -4306064.46449  -3327027.45945  22690312.773    22690328.679
       210.000         162.000
  21428803.807    -7283035.70449  -5663333.07247  21428803.168    21428813.833
       240.000         204.000
  24540297.774    14518803.03549  10898571.44145  24540298.635    24540323.888
       211.000         146.000
  20266975.958    -5624134.09649  -4372701.32148  20266975.964    20266984.706
       245.000         216.000
  22834438.889    -9694941.66049  -6546115.82146  22834436.888    22834453.809
       223.000         172.000
  22715098.846     9122951.02549   7110180.41946  22715098.265    22715110.719
       225.000         175.000
 00  4 19 22 38  0.0000000  0  7G30G26G17G 5G 6G23G10
  22379799.116     8626761.50049   6837413.64946  22379800.277    22379813.870
       233.000         185.000
  22677007.507    -4375988.44149  -3381513.40345  22677005.166    22677020.267
       208.000         157.000
  21421976.695    -7318912.29449  -5691288.78947  21421976.234    21421986.324
       241.000         205.000
  24560377.657    14624322.01849  10980793.52945  24560377.774    24560404.290
       209.000         145.000
  20264130.880    -5639085.15249  -4384351.47148  20264130.754    20264139.508
       245.000         216.000
  22817486.912    -9784023.25249  -6615529.69446  22817485.364    22817501.947
       223.000         172.000
  22732614.142     9214994.64049   7181902.62646  22732613.699    22732625.830
       224.000         176.000
 00  4 19 22 38 30.0000000  0  7G30G26G17G 5G 6G23G10
  22397024.705     8717281.63649   6907948.63946  22397025.362    22397039.371
       231.000         184.000
  22663761.655    -4445593.79749  -3435751.11145  22663761.235    22663774.512
       213.000         154.000
  21415184.902    -7354603.27549  -5719099.87547  21415184.316    21415194.765
       240.000         205.000
  24580440.322    14729750.22649  11062944.88645  24580441.684    24580466.228
       209.000         143.000
  20261354.087    -5653677.09249  -4395721.80148  20261353.837    20261362.635
       245.000         216.000
  22800578.053    -9872878.15649  -6684766.92046  22800576.289    22800593.092
       224.000         172.000
  22750177.951     9307293.05749   7253823.37846  22750177.310    22750190.053
       224.000         176.000
 00  4 19 22 39  0.0000000  0  7G30G26G17G 5G 6G23G10
  22414290.596     8808013.62249   6978648.70246  22414290.889    22414305.107
       231.000         184.000
  22650571.987    -4514905.23749  -3489759.78445  22650571.596    22650584.376
       219.000         157.000
  21408426.690    -7390117.79249  -5746773.46547  21408426.155    21408436.570
       241.000         205.000
  24600484.322    14835080.20949  11145019.70945  24600485.059    24600511.669
       207.000         141.000
  20258640.030    -5667939.37949  -4406835.25448  20258639.905    20258648.584
       245.000         216.000
  22783706.639    -9961536.40749  -6753850.92346  22783705.229    22783721.443
       224.000         174.000
  22767782.276     9399804.12349   7325909.82146  22767781.663    22767794.423
       225.000         177.000
 00  4 19 22 39 30.0000000  0  7G30G26G17G 5G 6G23G10
  22431592.625     8898935.18449   7049496.46846  22431593.411    22431606.731
       232.000         183.000
  22637436.565    -4583932.02149  -3543546.64846  22637436.998    22637450.373
       224.000         164.000
  21401698.218    -7425475.99149  -5774325.24247  21401697.613    21401707.972
       241.000         205.000
  24620510.554    14940316.71549  11227021.68345  24620512.544    24620537.593
       205.000         138.000
  20255988.026    -5681875.68949  -4417694.70048  20255988.121    20255996.773
       245.000         216.000
  22766871.254   -10050005.61849  -6822787.64246  22766870.294    22766885.994
       224.000         174.000
  22785423.304     9492507.43449   7398146.07646  22785422.890    22785435.108
       225.000         177.000
 00  4 19 22 40  0.0000000  0  7G30G26G17G 5G 6G23G10
  22448931.568     8990051.18549   7120495.76346  22448932.178    22448945.926
       231.000         183.000
  22624357.435    -4652663.48649  -3597103.40646  22624357.833    22624371.193
       228.000         170.000
  21394997.237    -7460689.63849  -5801764.38247  21394996.472    21395006.942
       241.000         205.000
  24640520.787    15045468.86449  11308957.94145  24640521.592    24640547.382
       203.000         133.000
  20253401.985    -5695465.44949  -4428284.10848  20253402.052    20253410.739
       245.000         216.000
  22750077.786   -10138254.83049  -6891552.94046  22750076.070    22750091.421
       224.000         174.000
  22803097.046     9585383.21149   7470516.71946  22803096.555    22803108.827
       226.000         177.000
 00  4 19 22 40 30.0000000  0  7G30G26G17G 5G 6G23G10
  22466309.680     9081372.86349   7191655.31546  22466310.127    22466323.688
       231.000         183.000
  22611336.274    -4721090.12749  -3650422.62146  22611335.898    22611350.089
       226.000         173.000
  21388328.522    -7495733.58249  -5829071.28247  21388327.979    21388338.654
       241.000         205.000
  24660516.197    15150543.29549  11390833.63244  24660516.670    24660541.192
       199.000         129.000
  20250889.193    -5708670.39049  -4438573.65248  20250889.281    20250897.959
       245.000         216.000
  22733333.991   -10226242.72349  -6960114.61446  22733333.021    22733348.243
       225.000         175.000
  22820804.114     9678433.91949   7543023.66546  22820804.186    22820816.257
       225.000         176.000
 00  4 19 22 41  0.0000000  0  6G30G26G17G 6G23G10
  22483731.707     9172925.35849   7262994.71346  22483732.746    22483745.980
       232.000         183.000
  22598376.971    -4789191.09949  -3703488.09646  22598376.440    22598390.091
       222.000         173.000
  21381693.102    -7530602.76549  -5856242.01547  21381692.582    21381702.992
       240.000         205.000
  20248456.084    -5721456.46849  -4448536.82248  20248455.956    20248464.774
       245.000         216.000
  22716645.962   -10313937.92849  -7028448.22746  22716644.504    22716660.678
       225.000         176.000
  22838549.272     9771684.95549   7615686.70746  22838549.201    22838560.656
       227.000         175.000
 00  4 19 22 41 30.0000000  0  6G30G26G17G 6G23G10
  22501202.529     9264734.18849   7334533.86246  22501203.001    22501217.102
       231.000         182.000
  22585486.478    -4856930.15849  -3756271.53246  22585485.724    22585499.637
       221.000         173.000
  21375094.066    -7565280.43749  -5883263.51047  21375093.461    21375103.727
       241.000         206.000
  20246108.576    -5733792.64849  -4458149.41548  20246108.431    20246117.185
       245.000         216.000
  22700019.945   -10401306.47149  -7096527.30046  22700018.045    22700033.853
       225.000         176.000
  22856336.700     9865157.81249   7688522.60946  22856336.727    22856348.058
       225.000         174.000
 00  4 19 22 42  0.0000000  0  6G30G26G17G 6G23G10
  22518725.428     9356817.29649   7406286.72746  22518726.200    22518739.987
       231.000         182.000
  22572666.336    -4924299.16249  -3808766.61146  22572665.129    22572680.368
       218.000         171.000
  21368534.714    -7599749.76649  -5910122.66147  21368533.852    21368544.243
       241.000         206.000
  20243848.921    -5745667.14649  -4467402.26348  20243848.685    20243857.601
       244.000         216.000
  22683458.742   -10488334.99049  -7164341.42846  22683457.509    22683472.893
       225.000         176.000
  22874169.016     9958866.93249   7761542.60846  22874169.042    22874181.127
       226.000         174.000
 00  4 19 22 42 30.0000000  0  6G30G26G17G 6G23G10
  22536300.250     9449172.79849   7478251.83646  22536300.904    22536314.810
       230.000         182.000
  22559915.793    -4991301.85849  -3860976.26746  22559915.466    22559929.553
       221.000         172.000
  21362015.073    -7634010.60749  -5936819.35747  21362014.565    21362024.800
       241.000         206.000
  20241676.557    -5757082.86349  -4476297.61648  20241676.389    20241685.097
       245.000         216.000
  22666961.220   -10575029.30249  -7231895.13546  22666959.241    22666975.200
       225.000         177.000
  22892047.060    10052816.01349   7834749.57746  22892046.926    22892057.904
       226.000         173.000
 00  4 19 22 43  0.0000000  0  6G30G26G17G 6G23G10
  22553926.035     9541796.09049   7550425.62646  22553926.841    22553941.920
       229.000         181.000
  22547236.212    -5057932.64849  -3912896.15446  22547235.414    22547250.101
       222.000         175.000
  21355534.037    -7668068.44749  -5963357.87247  21355533.352    21355543.653
       241.000         206.000
  20239592.089    -5768036.66849  -4484833.04248  20239591.872    20239600.787
       245.000         215.000
  22650525.330   -10661399.65449  -7299196.41346  22650523.629    22650539.182
       225.000         177.000
  22909970.851    10147005.84849   7908144.17146  22909970.078    22909983.067
       225.000         173.000
 00  4 19 22 43 30.0000000  0  6G30G26G17G 6G23G10
  22571601.682     9634681.32949   7622803.53546  22571602.425    22571616.522
       230.000         181.000
  22534627.912    -5124188.83349  -3964524.15246  22534627.282    22534641.681
       221.000         175.000
  21349093.657    -7701912.50949  -5989729.80847  21349092.970    21349103.275
       241.000         206.000
  20237596.985    -5778521.01549  -4493002.65648  20237596.813    20237605.608
       244.000         215.000
  22634149.851   -10747452.13849  -7366250.00346  22634148.065    22634163.503
       226.000         177.000
  22927940.441    10241436.27249   7981726.21246  22927940.387    22927952.016
       224.000         172.000
 00  4 19 22 44  0.0000000  0  6G30G26G17G 6G23G10
  22589326.334     9727824.10749   7695382.09646  22589327.864    22589341.182
       230.000         181.000
  22522091.471    -5190067.04049  -4015857.59946  22522090.381    22522105.110
       217.000         173.000
  21342693.614    -7735544.81449  -6015936.73847  21342693.001    21342703.186
       242.000         206.000
  20235691.319    -5788535.17749  -4500805.89648  20235691.093    20235700.150
       244.000         215.000
  22617834.243   -10833189.86949  -7433058.33746  22617832.910    22617848.340
       226.000         177.000
  22945956.366    10336110.15449   8055497.96946  22945956.655    22945968.055
       224.000         171.000
 00  4 19 22 44 30.0000000  0  6G30G26G17G 6G23G10
  22607098.517     9821216.84449   7768155.43946  22607098.901    22607113.488
       230.000         181.000
  22509631.328    -5255543.78849  -4066878.21846  22509631.366    22509645.529
       220.000         172.000
  21336334.950    -7768959.52649  -6041974.11947  21336334.133    21336344.335
       241.000         206.000
  20233873.662    -5798086.83149  -4508248.74048  20233873.271    20233882.237
       244.000         215.000
  22601576.983   -10918621.59549  -7499628.22946  22601574.925    22601591.075
       226.000         178.000
  22964018.370    10431026.07549   8129458.32146  22964017.082    22964030.824
       224.000         169.000
 00  4 19 22 45  0.0000000  0  7G30G26G17G22G 6G23G10
  22624914.797     9914841.45649   7841109.45846  22624916.017    22624929.475
       231.000         180.000
  22497248.541    -5320614.67049  -4117582.57446  22497248.709    22497262.044
       224.000         173.000
  21330015.233    -7802169.60549  -6067852.04047  21330014.508    21330024.846
       241.000         206.000
  24470196.529    -5700724.84259  -4415108.85245  24470193.787    24470211.956
       197.000         135.000
  20232138.498    -5807205.09949  -4515353.88048  20232138.372    20232147.165
       245.000         215.000
  22585375.818   -11003757.82349  -7565967.86046  22585373.781    22585389.083
       227.000         178.000
  22982124.701    10526175.24749   8203600.43346  22982123.557    22982136.585
       222.000         168.000
 00  4 19 22 45 30.0000000  0  7G30G26G17G22G 6G23G10
  22642764.687    10008642.47549   7914200.92746  22642766.349    22642780.099
       230.000         180.000
  22484938.566    -5385303.75949  -4167989.45046  22484938.961    22484952.303
       230.000         179.000
  21323723.340    -7835233.58449  -6093616.12247  21323722.584    21323732.633
       241.000         206.000
  24458500.810    -5762186.54649  -4463000.94045  24458500.472    24458513.789
       209.000         140.000
  20230474.383    -5815949.91449  -4522168.02248  20230474.224    20230483.017
       245.000         215.000
  22569223.799   -11088636.01249  -7632106.43546  22569222.492    22569237.259
       227.000         179.000
  23000266.277    10621509.46749   8277886.74346  23000265.348    23000277.548
       222.000         168.000
 00  4 19 22 46  0.0000000  0  7G30G26G17G22G 6G23G10
  22660651.773    10102638.69849   7987444.51846  22660652.836    22660667.520
       228.000         179.000
  22472708.705    -5449572.46749  -4218068.76146  22472709.257    22472722.107
       234.000         183.000
  21317463.225    -7868130.62349  -6119250.12047  21317462.768    21317472.672
       241.000         206.000
  24446874.278    -5823284.92849  -4510610.09545  24446873.142    24446887.274
       202.000         139.000
  20228885.646    -5824298.87249  -4528673.70048  20228885.474    20228894.272
       244.000         215.000
  22553127.854   -11173219.91149  -7698015.66146  22553126.096    22553140.861
       228.000         179.000
  23018447.578    10717052.60049   8352335.83146  23018446.981    23018459.273
       222.000         167.000
 00  4 19 22 46 30.0000000  0  7G30G26G17G22G 6G23G10
  22678575.272    10196826.09549   8060837.06446  22678576.138    22678590.495
       227.000         179.000
  22460556.352    -5513433.97249  -4267830.78246  22460556.450    22460569.344
       235.000         185.000
  21311234.723    -7900861.41249  -6144754.57747  21311234.130    21311244.132
       241.000         206.000
  24435317.970    -5884012.92449  -4557930.51945  24435317.821    24435332.696
       208.000         141.000
  20227370.998    -5832258.50949  -4534876.01448  20227370.803    20227379.675
       244.000         215.000
  22537087.891   -11257509.50549  -7763695.57646  22537086.989    22537101.259
       228.000         179.000
  23036666.942    10812795.76549   8426940.79046  23036666.717    23036679.299
       221.000         166.000
 00  4 19 22 47  0.0000000  0  7G30G26G17G22G 6G23G10
  22696534.027    10291198.89549   8134374.07346  22696535.266    22696549.235
       228.000         179.000
  22448477.452    -5576908.86049  -4317291.55646  22448477.033    22448489.259
       235.000         184.000
  21305035.576    -7933438.11549  -6170138.96747  21305034.871    21305044.909
       241.000         207.000
  24423835.869    -5944351.29049  -4604947.36745  24423835.111    24423850.918
       205.000         139.000
  20225932.677    -5839817.09049  -4540765.81148  20225932.578    20225941.442
       244.000         215.000
  22521106.164   -11341492.47449  -7829136.54246  22521105.323    22521119.416
       230.000         180.000
  23054920.385    10908718.27649   8501685.51246  23054919.821    23054931.901
       220.000         167.000
 00  4 19 22 47 30.0000000  0  7G30G26G17G22G 6G23G10
  22714529.147    10385763.07449   8208060.22446  22714530.068    22714545.562
       228.000         178.000
  22436472.031    -5639997.08349  -4366451.04246  22436471.814    22436483.396
       232.000         180.000
  21298868.649    -7965845.49349  -6195391.41747  21298868.110    21298878.274
       242.000         207.000
  24412433.542    -6004271.00449  -4651638.05745  24412432.595    24412449.942
       206.000         141.000
  20224575.275    -5846950.27049  -4546324.13248  20224575.058    20224583.883
       244.000         215.000
  22505181.380   -11425176.87049  -7894344.87546  22505180.468    22505194.010
       230.000         180.000
  23073205.389    11004806.10049   8576559.03646  23073204.643    23073218.353
       222.000         167.000
 00  4 19 22 48  0.0000000  0  7G30G26G17G22G 6G23G10
  22732564.312    10480537.89849   8281910.48846  22732565.762    22732579.023
       229.000         178.000
  22424539.722    -5702700.90549  -4415310.98446  22424538.785    22424551.997
       228.000         175.000
  21292738.642    -7998058.63349  -6220492.51447  21292737.774    21292748.174
       241.000         207.000
  24401115.074    -6063748.90249  -4697984.34045  24401114.770    24401125.778
       203.000         138.000
  20223301.766    -5853642.36549  -4551538.74548  20223301.570    20223310.519
       244.000         215.000
  22489314.212   -11508558.11149  -7959316.97646  22489313.382    22489327.003
       229.000         180.000
  23091522.280    11101061.69749   8651563.29246  23091521.842    23091534.241
       221.000         168.000
 00  4 19 22 48 30.0000000  0  7G30G26G17G22G 6G23G10
  22750640.164    10575526.00849   8355926.95746  22750640.999    22750655.767
       228.000         179.000
  22412682.023    -5765012.15449  -4463865.01746  22412680.464    22412694.966
       222.000         172.000
  21286646.451    -8030072.89149  -6245438.63847  21286645.842    21286655.640
       241.000         207.000
  24389885.469    -6122760.58949  -4743967.46145  24389884.274    24389901.045
       207.000         140.000
  20222114.270    -5859882.68149  -4556401.32148  20222114.182    20222122.927
       245.000         215.000
  22473506.489   -11591627.21849  -8024045.85346  22473505.086    22473518.979
       228.000         181.000
  23109871.444    11197486.54549   8726699.42846  23109871.029    23109883.922
       222.000         168.000
 00  4 19 22 49  0.0000000  0  7G30G26G17G22G 6G23G10
  22768755.420    10670721.25749   8430104.86146  22768755.059    22768771.247
       226.000         177.000
  22400902.593    -5826911.55549  -4512098.09246  22400901.319    22400915.249
       220.000         172.000
  21280591.492    -8061891.76949  -6270232.51947  21280590.724    21280600.881
       242.000         207.000
  24378745.004    -6181305.39749  -4789586.72345  24378744.137    24378758.399
       205.000         141.000
  20221015.348    -5865657.76749  -4560901.38548  20221015.352    20221024.002
       244.000         215.000
  22457758.515   -11674381.89849  -8088529.72946  22457757.048    22457771.599
       230.000         181.000
  23128254.090    11294087.71549   8801972.95246  23128253.433    23128266.111
       222.000         169.000
 00  4 19 22 49 30.0000000  0  7G30G26G17G22G 6G23G10
  22786910.000    10766123.73049   8504444.22446  22786910.280    22786924.989
       226.000         177.000
  22389204.186    -5888385.26249  -4559999.46446  22389203.387    22389217.166
       220.000         173.000
  21274572.527    -8093521.52949  -6294879.03447  21274571.730    21274581.854
       242.000         207.000
  24367692.861    -6239384.38549  -4834843.04745  24367692.797    24367709.330
       209.000         144.000
  20220002.494    -5870980.37249  -4565048.85948  20220002.504    20220011.138
       245.000         215.000
  22442070.715   -11756820.97049  -8152767.68846  22442069.419    22442083.154
       230.000         181.000
  23146674.355    11390886.54949   8877400.51146  23146673.461    23146687.090
       221.000         169.000
 00  4 19 22 50  0.0000000  0  7G30G26G17G22G 6G23G10
  22805101.125    10861717.89649   8578932.95346  22805101.807    22805116.594
       227.000         177.000
  22377582.565    -5949455.67749  -4607586.58746  22377582.382    22377596.230
       226.000         178.000
  21268584.661    -8124987.42149  -6319397.85947  21268583.856    21268593.746
       241.000         207.000
  24356727.413    -6297007.10049  -4879743.68345  24356726.119    24356739.894
       204.000         143.000
  20219072.574    -5875867.15249  -4568856.73048  20219072.607    20219081.112
       245.000         215.000
  22426445.110   -11838932.82149  -8216750.65246  22426443.516    22426457.803
       228.000         181.000
  23165134.024    11487892.05549   8952989.11246  23165133.482    23165146.656
       221.000         169.000
 00  4 19 22 50 30.0000000  0  7G30G26G17G22G 6G23G10
  22823323.889    10957478.29949   8653551.19546  22823325.321    22823339.943
       229.000         177.000
  22366035.208    -6010137.20049  -4654870.68346  22366035.366    22366048.911
       229.000         184.000
  21262625.557    -8156302.46149  -6343799.13947  21262624.971    21262634.673
       242.000         207.000
  24345848.388    -6354176.92949  -4924291.63145  24345847.850    24345864.539
       206.000         143.000
  20218225.861    -5880316.60649  -4572323.82748  20218225.754    20218234.545
       244.000         215.000
  22410880.890   -11920722.00649  -8280482.20146  22410879.371    22410893.571
       230.000         182.000
  23183631.240    11585094.97249   9028731.53346  23183631.156    23183643.726
       223.000         169.000
 00  4 19 22 51  0.0000000  0  7G30G26G17G22G 6G23G10
  22841579.681    11053412.20449   8728304.63846  22841581.122    22841595.091
       228.000         175.000
  22354561.013    -6070434.46949  -4701855.37447  22354561.259    22354574.507
       232.000         188.000
  21256696.345    -8187460.71149  -6368078.24447  21256695.766    21256705.620
       241.000         207.000
  24335054.151    -6410900.01549  -4968491.23645  24335054.722    24335068.439
       211.000         143.000
  20217463.919    -5884320.50949  -4575443.74148  20217463.771    20217472.354
       244.000         215.000
  22395377.334   -12002192.23649  -8343965.22746  22395375.874    22395390.715
       230.000         182.000
  23202164.589    11682488.50449   9104622.49246  23202164.176    23202176.946
       221.000         168.000
 00  4 19 22 51 30.0000000  0  7G30G26G17G22G 6G23G10
  22859870.212    11149528.74849   8803200.41846  22859871.011    22859885.261
       226.000         175.000
  22343160.128    -6130346.47149  -4748539.86447  22343160.032    22343173.577
       232.000         191.000
  21250800.306    -8218444.48749  -6392221.39347  21250799.717    21250809.686
       242.000         207.000
  24324344.174    -6467181.20449  -5012346.71645  24324342.238    24324361.370
       209.000         142.000
  20216787.064    -5887877.51149  -4578215.42348  20216787.020    20216795.741
       244.000         215.000
  22379936.233   -12083334.66949  -8407192.83446  22379935.543    22379949.136
       230.000         182.000
  23220732.822    11780064.54049   9180655.65346  23220732.212    23220745.075
       220.000         167.000
 00  4 19 22 52  0.0000000  0  7G30G26G17G22G 6G23G10
  22878194.293    11245821.07049   8878233.15846  22878194.506    22878210.546
       225.000         175.000
  22331835.417    -6189858.11449  -4794912.37947  22331835.552    22331848.389
       231.000         190.000
  21244942.149    -8249228.89649  -6416209.19447  21244941.413    21244951.465
       242.000         207.000
  24313717.729    -6523024.54249  -5055860.86945  24313716.634    24313730.989
       204.000         142.000
  20216201.286    -5890955.72049  -4580614.01648  20216201.225    20216209.861
       244.000         215.000
  22364556.535   -12164154.28049  -8470168.89346  22364555.530    22364569.712
       230.000         183.000
  23239332.531    11877806.04649   9256817.76046  23239331.695    23239344.557
       219.000         166.000
 00  4 19 22 52 30.0000000  0  7G30G26G17G22G 6G23G10
  22896555.166    11342307.44149   8953417.11446  22896555.714    22896571.497
       225.000         174.000
  22320594.213    -6248930.86449  -4840942.92346  22320593.964    22320606.658
       229.000         187.000
  21239126.970    -8279787.76849  -6440021.25347  21239126.309    21239136.253
       242.000         207.000
  24303179.044    -6578404.09649  -5099013.74245  24303179.379    24303194.095
       210.000         142.000
  20215711.615    -5893528.95849  -4582619.12348  20215711.514    20215720.196
       245.000         215.000
  22349239.929   -12244642.68949  -8532886.86846  22349239.134    22349252.803
       230.000         183.000
  23257964.335    11975716.17849   9333111.25846  23257963.497    23257976.815
       220.000         165.000
 00  4 19 22 53  0.0000000  0  7G30G26G17G22G 6G23G10
  22914956.141    11439004.41549   9028765.14546  22914956.676    22914972.503
       225.000         174.000
  22309441.885    -6307536.11649  -4886609.21746  22309440.905    22309453.458
       224.000         178.000
  21233356.208    -8310113.00649  -6463651.25847  21233355.574    21233365.571
       242.000         207.000
  24292730.804    -6633309.58149  -5141797.09545  24292729.124    24292745.141
       205.000         142.000
  20215316.715    -5895604.24749  -4584236.22048  20215316.657    20215325.429
       244.000         215.000
  22333988.057   -12324790.62249  -8595339.54846  22333986.773    22334000.772
       231.000         184.000
  23276629.704    12073802.54349   9409542.08346  23276629.715    23276641.079
       220.000         164.000
 00  4 19 22 53 30.0000000  0  7G30G26G17G22G 6G23G10
  22933394.689    11535898.51749   9104266.82046  22933395.441    22933411.539
       225.000         173.000
  22298380.213    -6365663.82749  -4931903.41846  22298380.033    22298393.237
       217.000         166.000
  21227627.927    -8340215.01949  -6487107.32147  21227627.409    21227637.207
       242.000         208.000
  24282373.312    -6687738.54849  -5184209.27345  24282373.603    24282389.483
       205.000         141.000
  20215012.998    -5897200.33749  -4585479.91648  20215013.028    20215021.470
       245.000         215.000
  22318800.932   -12404598.58149  -8657527.31346  22318799.796    22318813.710
       230.000         184.000
  23295328.200    12172063.55749   9486108.98746  23295327.081    23295341.274
       219.000         163.000
 00  4 19 22 54  0.0000000  0  7G30G26G17G22G 6G23G10
  22951867.146    11632971.10249   9179907.53646  22951868.862    22951882.581
       227.000         173.000
  22287407.224    -6423324.99349  -4976833.99446  22287405.860    22287418.743
       220.000         163.000
  21221937.071    -8370120.77249  -6510410.45947  21221936.479    21221946.309
       242.000         208.000
  24272108.515    -6741679.76549  -5226241.22745  24272109.788    24272122.035
       210.000         142.000
  20214797.559    -5898332.56349  -4586362.16048  20214797.357    20214806.183
       245.000         215.000
  22303676.750   -12484075.75849  -8719457.32346  22303675.777    22303689.556
       229.000         184.000
  23314061.048    12270504.84749   9562816.38846  23314059.642    23314072.905
       217.000         163.000
 00  4 19 22 54 30.0000000  0  7G30G26G17G22G 6G23G10
  22970371.894    11730213.19649   9255680.31546  22970373.042    22970389.075
       223.000         174.000
  22276518.939    -6480543.13249  -5021419.39546  22276518.747    22276531.232
       227.000         170.000
  21216278.657    -8399855.81149  -6533580.57047  21216278.016    21216287.959
       242.000         208.000
  24261936.470    -6795134.91049  -5267894.57045  24261933.723    24261950.326
       203.000         142.000
  20214662.911    -5899040.10249  -4586913.47948  20214662.840    20214671.534
       245.000         215.000
  22288614.791   -12563225.82449  -8781132.44246  22288613.994    22288627.427
       231.000         184.000
  23332826.446    12369117.42549   9639657.23545  23332826.530    23332839.557
       218.000         162.000
 00  4 19 22 55  0.0000000  0  7G30G26G17G22G 6G23G10
  22988905.470    11827606.79249   9331571.23846  22988904.712    22988922.824
       221.000         172.000
  22265712.282    -6537332.62949  -5065670.81546  22265712.278    22265724.080
       226.000         173.000
  21210648.335    -8429443.06549  -6556635.52947  21210647.854    21210657.568
       242.000         208.000
  24251849.801    -6848140.16049  -5309197.25645  24251849.754    24251863.879
       207.000         144.000
  20214605.290    -5899342.80849  -4587149.35048  20214605.340    20214613.910
       245.000         215.000
  22273611.985   -12642065.17849  -8842565.46046  22273611.240    22273624.697
       230.000         185.000
  23351620.498    12467880.44449   9716615.30145  23351620.579    23351634.002
       218.000         161.000
 00  4 19 22 55 30.0000000  0  7G30G26G17G22G 6G23G10
  23007465.281    11925138.13449   9407569.42646  23007465.823    23007480.674
       226.000         174.000
  22254982.882    -6593715.23949  -5109605.14446  22254982.376    22254995.226
       222.000         174.000
  21205044.829    -8458889.80349  -6579580.98847  21205044.313    21205054.162
       242.000         208.000
  24241848.790    -6900695.31349  -5350149.25845  24241848.498    24241861.717
       209.000         142.000
  20214626.359    -5899232.22749  -4587063.17748  20214626.146    20214634.869
       245.000         215.000
  22258667.177   -12720599.41549  -8903760.71246  22258665.956    22258679.608
       230.000         185.000
  23370441.538    12566785.29149   9793683.91545  23370440.561    23370454.552
       218.000         161.000
 00  4 19 22 56  0.0000000  0  7G30G26G17G22G 6G23G10
  23026050.713    12022804.80549   9483673.06746  23026052.715    23026068.680
       229.000         174.000
  22244330.108    -6649694.62249  -5153225.23746  22244329.101    22244343.115
       220.000         174.000
  21199470.540    -8488182.74549  -6602406.61147  21199469.972    21199479.983
       242.000         208.000
  24231933.212    -6952802.57149  -5390752.24345  24231930.793    24231948.163
       206.000         144.000
  20214729.421    -5898690.48549  -4586641.04148  20214729.394    20214737.950
       245.000         215.000
  22243781.579   -12798822.85749  -8964713.79146  22243780.121    22243794.009
       230.000         185.000
  23389287.474    12665821.00449   9870854.50245  23389286.654    23389299.577
       218.000         161.000
 00  4 19 22 56 30.0000000  0  7G30G26G17G22G 6G23G10
  23044664.624    12120620.60849   9559892.88546  23044666.379    23044679.976
       226.000         171.000
  22233758.877    -6705245.54549  -5196511.46346  22233758.449    22233772.470
       222.000         174.000
  21193929.728    -8517299.76449  -6625095.15147  21193928.908    21193939.203
       243.000         208.000
  24222102.179    -7004464.22749  -5431008.04245  24222102.457    24222116.679
       210.000         144.000
  20214918.774    -5897695.52149  -4585865.74148  20214918.593    20214927.394
       245.000         215.000
  22228958.297   -12876718.56349  -9025411.48146  22228957.603    22228971.101
       230.000         186.000
  23408154.847    12764969.09149   9948112.62545  23408154.512    23408168.502
       220.000         160.000
 00  4 19 22 57  0.0000000  0  7G30G26G17G22G 6G23G10
  23063307.476    12218587.13949   9636230.21246  23063307.295    23063324.885
       221.000         173.000
  22223273.192    -6760348.34949  -5239448.54946  22223273.898    22223286.097
       229.000         179.000
  21188425.365    -8546225.20049  -6647634.40247  21188424.719    21188434.637
       243.000         208.000
  24212355.344    -7055683.08849  -5470918.74945  24212355.665    24212368.383
       213.000         144.000
  20215200.180    -5896216.77149  -4584713.46648  20215199.948    20215208.783
       245.000         215.000
  22214201.241   -12954266.44549  -9085838.15346  22214200.529    22214213.656
       231.000         186.000
  23427046.259    12864243.64449  10025469.31045  23427045.244    23427059.011
       218.000         160.000
 00  4 19 22 57 30.0000000  0  7G30G26G17G22G 6G23G10
  23081977.592    12316698.10449   9712680.08446  23081978.699    23081993.972
       226.000         172.000
  22212874.430    -6814994.79249  -5282030.04546  22212874.547    22212886.998
       228.000         182.000
  21182961.219    -8574939.26849  -6670008.95047  21182960.612    21182970.216
       244.000         208.000
  24202698.272    -7106431.14549  -5510462.65145  24202695.962    24202713.181
       212.000         144.000
  20215576.720    -5894237.96849  -4583171.54248  20215576.608    20215585.469
       245.000         215.000
  22199515.933   -13031437.42849  -9145971.13846  22199514.716    22199528.241
       230.000         186.000
  23445964.824    12963660.79449  10102937.12745  23445963.647    23445977.654
       217.000         160.000
 00  4 19 22 58  0.0000000  0  7G30G26G17G22G 6G23G10
  23100676.311    12414959.86649   9789247.37046  23100678.043    23100694.342
       228.000         173.000
  22202566.935    -6869160.53249  -5324236.95746  22202567.083    22202579.842
       221.000         179.000
  21177538.267    -8603436.98549  -6692214.92247  21177537.546    21177547.505
       243.000         208.000
  24193129.945    -7156712.48349  -5549642.87745  24193128.955    24193143.848
       210.000         146.000
  20216049.172    -5891755.40649  -4581237.08248  20216049.200    20216057.826
       245.000         215.000
  22184904.028   -13108222.25849  -9205803.23246  22184903.221    22184916.305
       231.000         187.000
  23464913.327    13063234.97749  10180527.27345  23464913.049    23464925.419
       220.000         160.000
 00  4 19 22 58 30.0000000  0  7G30G26G17G22G 6G23G10
  23119402.639    12513366.07149   9865927.26146  23119403.380    23119419.368
       223.000         171.000
  22192351.763    -6922840.01549  -5366064.95046  22192350.755    22192363.902
       218.000         175.000
  21172155.036    -8631725.86849  -6714258.16847  21172154.323    21172164.259
       243.000         209.000
  24183650.689    -7206526.12449  -5588458.64645  24183648.888    24183664.672
       209.000         146.000
  20216615.867    -5888777.33949  -4578916.51948  20216615.838    20216624.445
       245.000         215.000
  22170364.693   -13184625.94249  -9265338.33046  22170363.976    22170376.664
       231.000         187.000
  23483895.210    13162985.06049  10258254.48945  23483894.408    23483908.365
       217.000         161.000
 00  4 19 22 59  0.0000000  0  7G30G26G17G22G 6G23G10
  23138154.649    12611907.62649   9942712.60446  23138155.009    23138171.128
       223.000         172.000
  22182225.608    -6976051.17249  -5407528.01146  22182225.865    22182239.170
       222.000         173.000
  21166810.885    -8659809.39249  -6736141.40547  21166810.042    21166820.140
       243.000         209.000
  24174260.763    -7255870.83449  -5626909.05945  24174259.418    24174274.319
       207.000         146.000
  20217273.707    -5885320.48749  -4576222.88048  20217273.583    20217282.421
       245.000         215.000
  22155895.516   -13260661.46249  -9324586.57646  22155894.763    22155907.885
       231.000         187.000
  23502913.553    13262926.94749  10336131.13945  23502913.152    23502925.683
       219.000         161.000
 00  4 19 22 59 30.0000000  0  7G30G26G17G22G 6G23G10
  23156932.732    12710585.94749  10019604.52046  23156933.948    23156949.742
       226.000         171.000
  22172187.198    -7028803.50949  -5448633.61646  22172187.734    22172199.088
       229.000         174.000
  21161503.451    -8687699.76549  -6757874.12947  21161502.697    21161512.704
       243.000         209.000
  24164962.913    -7304731.30549  -5664982.10545  24164962.435    24164979.579
       206.000         148.000
  20218019.138    -5881403.12649  -4573170.39648  20218018.927    20218027.546
       245.000         215.000
  22141490.570   -13336359.04849  -9383571.47947  22141489.346    22141502.385
       231.000         188.000
  23521966.351    13363049.92649  10414148.91545  23521965.322    23521979.055
       219.000         161.000
 00  4 19 23  0  0.0000000  0  7G30G26G17G22G 6G23G10
  23175736.099    12809397.35749  10096600.10046  23175737.621    23175753.336
       223.000         170.000
  22162235.477    -7081100.73949  -5489384.64846  22162235.464    22162245.995
       230.000         174.000
  21156230.169    -8715410.80249  -6779467.11047  21156229.467    21156239.279
       243.000         209.000
  24155755.147    -7353118.13649  -5702686.10645  24155755.748    24155768.540
       211.000         146.000
  20218848.377    -5877045.32549  -4569774.71348  20218848.213    20218856.934
       245.000         215.000
  22127144.503   -13411746.89249  -9442315.03647  22127143.168    22127156.679
       232.000         188.000
  23541050.858    13463339.65049  10492296.62145  23541050.020    23541063.970
       219.000         161.000
 00  4 19 23  0 30.0000000  0  7G30G26G17G22G 6G23G10
  23194562.578    12908329.94349  10173690.17846  23194562.998    23194579.964
       222.000         169.000
  22152367.054    -7132959.81249  -5529794.20046  22152365.696    22152379.736
       222.000         172.000
  21150991.799    -8742938.70649  -6800917.38647  21150991.253    21151001.139
       243.000         209.000
  24146638.462    -7401025.93049  -5740016.73045  24146638.370    24146653.707
       213.000         147.000
  20219759.854    -5872255.37349  -4566042.28748  20219759.732    20219768.643
       245.000         215.000
  22112855.860   -13486833.17849  -9500823.61847  22112855.179    22112868.039
       232.000         188.000
  23560161.138    13563764.52249  10570549.63945  23560161.070    23560175.019
       219.000         162.000
 00  4 19 23  1  0.0000000  0  7G30G26G17G22G 6G23G10
  23213412.828    13007388.08449  10250878.03546  23213414.338    23213429.367
       223.000         169.000
  22142581.528    -7184380.85149  -5569862.33046  22142580.471    22142593.909
       219.000         168.000
  21145787.652    -8770286.48349  -6822227.29847  21145786.826    21145796.821
       243.000         209.000
  24137614.370    -7448447.47349  -5776968.58245  24137612.429    24137629.412
       209.000         145.000
  20220754.927    -5867026.27049  -4561967.66148  20220754.983    20220763.676
       245.000         215.000
  22098625.123   -13561615.30249  -9559095.19047  22098624.181    22098637.292
       233.000         189.000
  23579292.884    13664301.85249  10648890.31145  23579291.786    23579305.251
       217.000         162.000
 00  4 19 23  1 30.0000000  0  7G30G26G17G22G 6G23G10
  23232285.112    13106561.70449  10328155.91746  23232286.363    23232302.366
       221.000         167.000
  22132883.337    -7235343.99649  -5609573.70246  22132883.474    22132895.434
       227.000         171.000
  21140616.444    -8797460.85949  -6843402.09247  21140615.826    21140625.643
       243.000         209.000
  24128682.915    -7495382.73749  -5813541.42545  24128681.341    24128695.939
       207.000         145.000
  20221836.537    -5861342.53449  -4557538.77348  20221836.364    20221845.116
       245.000         215.000
  22084455.206   -13636077.81049  -9617117.70447  22084454.161    22084467.367
       232.000         190.000
  23598443.819    13764940.62949  10727310.00745  23598443.428    23598456.767
       219.000         162.000
 00  4 19 23  2  0.0000000  0  7G30G26G17G22G 6G23G10
  23251178.830    13205847.38649  10405521.09746  23251180.423    23251195.135
       222.000         170.000
  22123275.113    -7285835.86349  -5648917.91946  22123275.365    22123285.372
       227.000         169.000
  21135478.422    -8824461.25749  -6864441.31747  21135477.773    21135487.715
       243.000         209.000
  24119843.737    -7541831.50149  -5849735.21145  24119843.100    24119858.909
       210.000         146.000
  20223006.756    -5855192.95249  -4552746.88348  20223006.484    20223015.491
       244.000         215.000
  22070351.212   -13710193.94349  -9674870.31047  22070350.304    22070363.466
       232.000         190.000
  23617611.679    13865668.01349  10805798.77645  23617610.209    23617624.656
       214.000         161.000
 00  4 19 23  2 30.0000000  0  7G30G26G17G22G 6G23G10
  23270095.830    13305256.36149  10482982.38746  23270096.877    23270114.232
       223.000         167.000
  22113758.456    -7335845.88949  -5687886.66946  22113758.663    22113768.824
       224.000         166.000
  21130373.247    -8851289.07349  -6885346.07047  21130372.308    21130382.206
       244.000         209.000
  24111099.325    -7587783.63349  -5885542.00445  24111098.034    24111114.193
       207.000         145.000
  20224268.877    -5848560.54049  -4547578.77348  20224268.760    20224277.682
       244.000         215.000
  22056316.092   -13783948.28149  -9732341.01247  22056314.891    22056327.919
       232.000         190.000
  23636795.397    13966478.81649  10884352.52945  23636794.917    23636808.757
       217.000         160.000
 00  4 19 23  3  0.0000000  0  7G30G26G17G22G 6G23G10
  23289036.019    13404787.03549  10560538.42846  23289037.255    23289053.552
       222.000         168.000
  22104338.574    -7385346.67049  -5726458.56246  22104338.855    22104350.993
       226.000         169.000
  21125297.469    -8877962.07849  -6906130.18147  21125296.791    21125306.500
       243.000         209.000
  24102449.493    -7633239.78149  -5920962.40845  24102448.752    24102465.119
       208.000         147.000
  20225623.842    -5841440.24749  -4542030.48148  20225623.822    20225632.379
       245.000         215.000
  22042351.283   -13857333.05849  -9789523.73147  22042350.258    22042362.806
       233.000         191.000
  23655998.552    14067391.91649  10962986.00445  23655997.254    23656011.734
       214.000         160.000
 00  4 19 23  3 30.0000000  0  7G30G26G17G22G 6G23G10
  23307996.683    13504424.01449  10638177.40946  23307998.049    23308014.033
       223.000         167.000
  22095016.945    -7434331.78149  -5764628.62346  22095017.018    22095029.580
       230.000         179.000
  21120250.125    -8904485.97449  -6926798.10747  21120249.486    21120259.241
       243.000         209.000
  24093892.242    -7678207.86849  -5956002.36445  24093893.844    24093905.378
       213.000         147.000
  20227069.610    -5833842.72249  -4536110.32648  20227069.271    20227078.108
       245.000         215.000
  22028457.034   -13930347.31349  -9846417.73947  22028456.047    22028468.652
       233.000         191.000
  23675222.529    14168414.05249  11041704.41845  23675222.045    23675235.653
       217.000         159.000
 00  4 19 23  4  0.0000000  0  7G30G26G17G22G 6G23G10
  23326977.677    13604168.95149  10715900.40646  23326978.209    23326995.514
       221.000         169.000
  22085791.325    -7482813.06049  -5802406.09346  22085791.415    22085803.936
       232.000         185.000
  21115231.394    -8930859.44449  -6947348.81947  21115230.900    21115240.494
       243.000         209.000
  24085427.113    -7722691.89449  -5990665.20145  24085427.016    24085443.945
       214.000         148.000
  20228602.214    -5825788.94349  -4529834.65348  20228602.230    20228610.771
       245.000         215.000
  22014630.669   -14003004.42649  -9903033.46647  22014629.769    22014642.086
       233.000         191.000
  23694466.649    14269541.89749  11120505.23445  23694465.093    23694480.339
       214.000         158.000
 00  4 19 23  4 30.0000000  0  7G30G26G17G22G 6G23G10
  23345975.648    13704002.73649  10793692.71646  23345975.697    23345993.826
       219.000         166.000
  22076661.175    -7530792.07549  -5839792.20646  22076660.126    22076672.744
       228.000         184.000
  21110241.941    -8957079.00649  -6967779.60147  21110241.244    21110250.964
       243.000         209.000
  24077050.822    -7766711.39949  -6024966.10645  24077049.016    24077062.104
       210.000         147.000
  20230219.477    -5817290.33349  -4523212.35848  20230219.341    20230228.004
       245.000         215.000
  22000869.462   -14075318.96749  -9959382.24647  22000868.366    22000881.180
       234.000         192.000
  23713732.342    14370783.54449  11199394.70545  23713732.455    23713745.585
       214.000         157.000
 00  4 19 23  5  0.0000000  0  7G30G26G17G22G 6G23G10
  23364985.638    13803899.82849  10871534.27346  23364987.036    23365003.368
       223.000         168.000
  22067624.612    -7578278.58449  -5876794.55046  22067623.872    22067636.164
       229.000         180.000
  21105281.825    -8983144.47649  -6988090.31447  21105281.268    21105291.150
       244.000         209.000
  24068760.814    -7810275.68249  -6058912.22545  24068761.793    24068776.071
       214.000         149.000
  20231920.678    -5808350.36949  -4516246.15248  20231920.513    20231929.080
       245.000         215.000
  21987173.635   -14147290.30949 -10015463.59647  21987172.227    21987185.097
       235.000         192.000
  23733021.305    14472147.42849  11278379.43145  23733020.322    23733035.102
       213.000         156.000
 00  4 19 23  5 30.0000000  0  7G30G26G17G22G 6G23G10
  23384008.903    13903865.84149  10949429.64046  23384008.957    23384026.249
       221.000         164.000
  22058678.046    -7625292.59349  -5913428.73946  22058677.975    22058690.288
       231.000         181.000
  21100354.001    -9009040.17949  -7008268.74047  21100353.189    21100362.907
       244.000         209.000
  24060558.429    -7853377.90049  -6092498.31245  24060556.204    24060571.969
       213.000         147.000
  20233706.077    -5798967.92449  -4508935.16348  20233705.657    20233714.646
       244.000         215.000
  21973544.132   -14218913.05049 -10071273.31447  21973543.093    21973555.689
       234.000         192.000
  23752331.035    14573620.45049  11357449.19045  23752330.794    23752344.647
       212.000         156.000
 00  4 19 23  6  0.0000000  0  7G30G26G17G22G 6G23G10
  23403047.926    14003915.65349  11027390.19346  23403049.226    23403064.143
       221.000         167.000
  22049821.063    -7671835.98849  -5949696.17646  22049821.116    22049833.210
       234.000         187.000
  21095458.769    -9034764.59449  -7028313.69147  21095457.998    21095467.875
       243.000         209.000
  24052445.768    -7896011.11549  -6125718.94845  24052442.261    24052460.672
       204.000         149.000
  20235579.419    -5789123.29749  -4501264.02248  20235579.270    20235588.004
       245.000         215.000
  21959981.469   -14290184.19049 -10126809.05747  21959980.362    21959992.933
       234.000         193.000
  23771658.067    14675183.82149  11436589.35245  23771657.484    23771672.070
       212.000         155.000
 00  4 19 23  6 30.0000000  0  7G30G26G17G22G 6G23G10
  23422103.046    14104049.79749  11105416.55046  23422103.285    23422120.775
       220.000         165.000
  22041056.195    -7717895.93149  -5985586.91947  22041056.324    22041068.290
       232.000         190.000
  21090597.013    -9060312.97149  -7048221.47347  21090596.354    21090606.132
       244.000         209.000
  24044423.514    -7938166.94549  -6158567.58945  24044424.042    24044437.275
       212.000         148.000
  20237547.982    -5778778.46249  -4493203.11448  20237547.767    20237556.619
       245.000         215.000
  21946488.660   -14361088.38849 -10182058.87647  21946487.633    21946500.028
       235.000         193.000
  23791003.151    14776842.47449  11515803.74545  23791002.911    23791017.264
       212.000         154.000
 00  4 19 23  7  0.0000000  0  7G30G26G17G22G 6G23G10
  23441178.808    14204292.19349  11183527.17346  23441180.129    23441195.966
       222.000         166.000
  22032385.429    -7763460.45749  -6021091.60946  22032384.677    22032396.631
       229.000         186.000
  21085769.829    -9085679.91649  -7067987.87447  21085769.216    21085778.841
       244.000         210.000
  24036497.084    -7979819.78049  -6191024.21845  24036495.400    24036512.892
       213.000         150.000
  20239616.160    -5767910.00949  -4484734.19348  20239616.095    20239624.900
       245.000         215.000
  21933069.062   -14431608.24549 -10237009.21547  21933068.023    21933080.081
       235.000         194.000
  23810365.856    14878593.51349  11595090.15145  23810365.367    23810379.658
       213.000         154.000
 00  4 19 23  7 30.0000000  0  7G30G26G17G22G 6G23G10
  23460279.897    14304667.92849  11261741.76846  23460280.056    23460298.033
       221.000         164.000
  22023811.805    -7808513.75249  -6056197.95146  22023811.303    22023822.792
       231.000         182.000
  21080978.405    -9110858.97549  -7087607.87447  21080977.963    21080987.578
       244.000         210.000
  24028669.421    -8020955.06449  -6223077.66445  24028667.040    24028683.161
       210.000         148.000
  20241785.336    -5756510.99849  -4475851.85048  20241785.334    20241794.013
       245.000         215.000
  21919721.902   -14501747.30349 -10291662.83047  21919720.903    21919733.109
       235.000         194.000
  23829744.825    14980430.02249  11674443.13145  23829744.191    23829758.571
       212.000         153.000
 00  4 19 23  8  0.0000000  0  7G30G26G17G22G 6G23G10
  23479404.150    14405165.27849  11340051.10746  23479404.087    23479422.019
       218.000         164.000
  22015339.015    -7853038.39049  -6090892.36946  22015339.198    22015350.886
       232.000         184.000
  21076223.645    -9135845.25949  -7107077.66047  21076222.984    21076232.658
       244.000         210.000
  24020938.389    -8061582.24649  -6254735.09245  24020937.011    24020951.683
       210.000         149.000
  20244055.779    -5744579.63149  -4466554.68748  20244055.752    20244064.589
       245.000         215.000
  21906446.297   -14571510.24549 -10346023.37647  21906445.313    21906457.465
       235.000         194.000
  23849142.523    15082364.71649  11753872.63945  23849142.622    23849154.841
       215.000         153.000
 00  4 19 23  8 30.0000000  0  7G30G26G17G22G 6G23G10
  23498547.954    14505766.15649  11418441.10646  23498549.733    23498566.827
       224.000         167.000
  22006968.527    -7897025.59349  -6125167.99746  22006967.733    22006980.350
       228.000         186.000
  21071508.880    -9160621.29949  -7126383.61247  21071508.298    21071517.657
       244.000         210.000
  24013303.909    -8101700.96849  -6285996.34545  24013303.186    24013318.547
       213.000         149.000
  20246424.146    -5732133.67049  -4456856.53448  20246423.902    20246432.689
       244.000         215.000
  21893241.990   -14640898.63149 -10400092.04847  21893240.745    21893253.451
       235.000         194.000
  23868562.182    15184414.92549  11833392.17645  23868561.619    23868574.681
       212.000         153.000
 00  4 19 23  9  0.0000000  0  7G30G26G17G22G 6G23G10
  23517711.528    14606470.58449  11496911.79245  23517712.047    23517729.682
       221.000         162.000
  21998698.589    -7940482.82049  -6159030.60146  21998697.059    21998711.219
       222.000         184.000
  21066834.179    -9185186.94149  -7145525.61947  21066833.485    21066842.925
       244.000         210.000
  24005766.454    -8141310.57649  -6316860.88545  24005765.145    24005780.847
       209.000         149.000
  20248885.299    -5719200.35649  -4446778.62948  20248885.049    20248893.688
       244.000         215.000
  21880106.509   -14709925.35649 -10453878.92247  21880105.488    21880117.585
       235.000         195.000
  23888002.280    15286572.95749  11912995.71145  23888001.181    23888015.611
       215.000         153.000
 00  4 19 23  9 30.0000000  0  7G30G26G17G22G 6G23G10
  23536890.888    14707256.72249  11575446.18746  23536890.430    23536910.383
       218.000         165.000
  21990527.648    -7983418.83549  -6192487.05146  21990527.625    21990540.057
       226.000         181.000
  21062198.322    -9209548.42149  -7164508.54047  21062197.614    21062207.137
       243.000         210.000
  23998322.853    -8180425.82649  -6347340.22445  23998321.867    23998336.992
       211.000         148.000
  20251435.883    -5705796.89749  -4436334.38048  20251435.683    20251444.554
       244.000         215.000
  21867038.428   -14778597.87549 -10507389.78847  21867037.295    21867049.616
       235.000         195.000
  23907461.767    15388832.50449  11992678.35145  23907462.478    23907474.059
       216.000         152.000
 00  4 19 23 10  0.0000000  0  7G30G26G17G22G 6G23G10
  23556080.785    14808099.88349  11654024.97145  23556083.203    23556098.408
       224.000         161.000
  21982455.241    -8025839.89549  -6225542.32946  21982455.832    21982466.848
       232.000         184.000
  21057600.917    -9233707.80749  -7183333.99247  21057600.177    21057610.052
       243.000         210.000
  23990972.342    -8219052.55149  -6377438.84545  23990972.365    23990986.586
       211.000         148.000
  20254075.820    -5691923.91949  -4425524.27348  20254075.655    20254084.287
       244.000         215.000
  21854039.519   -14846906.63949 -10560617.21447  21854038.894    21854050.673
       236.000         195.000
  23926939.035    15491185.41549  12072433.76645  23926937.506    23926952.176
       214.000         152.000
 00  4 19 23 10 30.0000000  0  7G30G26G17G22G 6G23G10
  23575281.836    14909000.50649  11732648.53446  23575281.822    23575300.750
       218.000         163.000
  21974479.966    -8067750.45049  -6258199.78646  21974480.124    21974491.678
       231.000         184.000
  21053039.139    -9257679.79049  -7202013.41047  21053038.385    21053048.198
       243.000         210.000
  23983718.099    -8257174.07949  -6407143.85545  23983716.638    23983732.167
       211.000         149.000
  20256806.061    -5677576.40149  -4414344.38748  20256806.015    20256814.588
       245.000         214.000
  21841110.912   -14914846.11949 -10613556.88147  21841110.164    21841122.274
       235.000         196.000
  23946431.618    15593619.64749  12152252.53245  23946430.041    23946443.690
       213.000         152.000
 00  4 19 23 11  0.0000000  0  7G30G26G17G22G 6G23G10
  23594495.674    15009969.05749  11811325.04445  23594495.581    23594513.599
       219.000         161.000
  21966601.742    -8109150.82649  -6290459.72146  21966601.338    21966612.373
       232.000         183.000
  21048509.768    -9281481.69049  -7220560.30247  21048509.030    21048518.764
       243.000         210.000
  23976559.485    -8294792.01249  -6436456.43645  23976558.464    23976572.274
       212.000         149.000
  20259627.779    -5662748.09549  -4402789.86848  20259627.542    20259636.267
       245.000         214.000
  21828255.224   -14982402.38149 -10666197.93647  21828254.314    21828266.583
       235.000         196.000
  23965939.734    15696135.27849  12232134.72145  23965939.995    23965951.826
       216.000         151.000
 00  4 19 23 11 30.0000000  0  7G30G26G17G22G 6G23G10
  23613718.806    15110986.91449  11890039.94045  23613720.252    23613737.831
       219.000         161.000
  21958822.020    -8150033.80249  -6322316.47046  21958822.563    21958832.804
       236.000         184.000
  21044012.117    -9305116.73749  -7238977.17447  21044011.424    21044021.019
       243.000         211.000
  23969494.959    -8331916.77149  -6465384.76745  23969492.775    23969508.136
       210.000         149.000
  20262540.029    -5647444.15949  -4390864.72148  20262539.846    20262548.627
       244.000         214.000
  21815474.403   -15049565.16949 -10718532.39747  21815473.562    21815485.671
       235.000         196.000
  23985461.890    15798724.38349  12312074.17645  23985460.681    23985474.809
       214.000         151.000
 00  4 19 23 12  0.0000000  0  7G30G26G17G22G 6G23G10
  23632950.729    15212049.72749  11968789.88645  23632952.088    23632967.972
       218.000         162.000
  21951140.346    -8190402.34849  -6353772.37947  21951140.891    21951150.968
       239.000         190.000
  21039547.268    -9328579.42549  -7257259.74447  21039546.525    21039556.390
       243.000         211.000
  23962526.583    -8368535.16449  -6493918.51945  23962525.659    23962541.183
       212.000         149.000
  20265542.485    -5631666.08549  -4378570.12548  20265542.447    20265551.210
       244.000         214.000
  21802768.291   -15116335.61549 -10770561.14047  21802767.428    21802779.278
       236.000         196.000
  24004998.932    15901391.82249  12392074.66845  24004998.485    24005011.670
       211.000         150.000
 00  4 19 23 12 30.0000000  0  7G30G26G17G22G 6G23G10
  23652190.478    15313154.17049  12047572.29045  23652191.329    23652209.913
       217.000         158.000
  21943557.311    -8230251.71849  -6384823.74447  21943557.311    21943567.650
       237.000         190.000
  21035114.544    -9351873.47949  -7275410.91347  21035113.824    21035123.692
       243.000         211.000
  23955654.118    -8404649.47049  -6522059.47845  23955653.336    23955667.043
       211.000         149.000
  20268632.582    -5615427.61549  -4365916.77948  20268632.558    20268641.300
       244.000         214.000
  21790136.187   -15182717.11249 -10822286.81447  21790135.493    21790147.332
       236.000         197.000
  24024550.157    16004134.00349  12472133.37945  24024548.791    24024563.853
       213.000         150.000
 00  4 19 23 13  0.0000000  0  7G30G26G17G22G 6G23G10
  23671436.630    15414291.64049  12126380.40045  23671437.285    23671455.805
       217.000         160.000
  21936073.271    -8269580.21949  -6415469.23146  21936072.513    21936083.689
       228.000         185.000
  21030715.329    -9374991.56349  -7293424.96247  21030714.729    21030724.600
       243.000         211.000
  23948874.761    -8440275.11549  -6549819.66045  23948874.069    23948888.656
       213.000         149.000
  20271809.248    -5598734.28749  -4352908.99748  20271809.129    20271817.993
       244.000         214.000
  21777576.943   -15248715.87549 -10873714.25247  21777575.988    21777588.066
       236.000         197.000
  24044113.112    16106937.21249  12552239.65645  24044112.737    24044126.702
       214.000         150.000
 00  4 19 23 13 30.0000000  0  7G30G26G17G22G 6G23G10
  23690687.072    15515453.07549  12205207.14845  23690688.967    23690706.017
       219.000         158.000
  21928689.223    -8308381.85849  -6445704.16346  21928688.625    21928699.611
       227.000         180.000
  21026351.363    -9397923.99849  -7311294.34947  21026350.590    21026360.296
       243.000         211.000
  23942190.699    -8475400.70949  -6577190.20145  23942189.537    23942204.969
       213.000         150.000
  20275075.648    -5581568.97949  -4339533.43648  20275075.547    20275084.279
       245.000         214.000
  21765087.931   -15314345.42849 -10924853.99847  21765086.934    21765098.706
       236.000         197.000
  24063686.672    16209796.56949  12632389.68645  24063686.876    24063700.265
       212.000         150.000
 00  4 19 23 14  0.0000000  0  7G30G26G17G22G 6G23G10
  23709945.836    15616656.26049  12284066.50545  23709945.866    23709964.540
       215.000         159.000
  21921406.587    -8346650.95749  -6475524.12746  21921406.456    21921417.335
       230.000         181.000
  21022021.946    -9420675.00549  -7329022.37047  21022021.168    21022030.684
       244.000         211.000
  23935603.536    -8510016.44049  -6604163.45745  23935602.077    23935616.645
       211.000         151.000
  20278436.016    -5563910.34149  -4325773.47448  20278435.951    20278444.620
       245.000         214.000
  21752669.200   -15379605.32749 -10975705.70747  21752668.571    21752680.260
       237.000         198.000
  24083272.656    16312721.33649  12712590.69845  24083271.178    24083285.611
       210.000         150.000
 00  4 19 23 14 30.0000000  0  7G30G26G17G22G 6G23G10
  23729213.452    15717907.86149  12362963.47745  23729216.046    23729233.338
       221.000         161.000
  21914227.995    -8384374.58049  -6504919.06047  21914228.375    21914240.048
       232.000         188.000
  21017726.286    -9443248.80249  -7346612.30247  21017725.681    21017735.178
       243.000         211.000
  23929111.444    -8544131.81449  -6630746.79145  23929111.061    23929124.371
       213.000         151.000
  20281893.038    -5545743.82049  -4311617.75548  20281892.858    20281901.708
       244.000         214.000
  21740320.744   -15444496.32949 -11026269.95947  21740319.820    21740331.910
       236.000         198.000
  24102870.787    16415710.06149  12792841.52545  24102869.721    24102884.676
       210.000         149.000
 00  4 19 23 15  0.0000000  0  7G30G26G17G22G 6G23G10
  23748493.856    15819224.77049  12441911.44045  23748493.090    23748511.560
       213.000         156.000
  21907152.515    -8421556.56849  -6533891.90747  21907151.595    21907164.437
       226.000         191.000
  21013464.711    -9465643.33249  -7364062.54447  21013464.161    21013473.897
       244.000         211.000
  23922715.934    -8577740.22449  -6656935.09645  23922714.240    23922729.890
       213.000         152.000
  20285450.462    -5527049.34149  -4297050.63748  20285450.255    20285459.028
       245.000         214.000
  21728041.040   -15509025.84549 -11076552.54147  21728040.381    21728052.058
       236.000         198.000
  24122485.512    16518785.37949  12873159.82645  24122484.931    24122500.051
       210.000         150.000
 00  4 19 23 15 30.0000000  0  7G30G26G17G22G 6G23G10
  23767786.721    15920609.21149  12520911.96345  23767788.992    23767806.282
       221.000         162.000
  21900180.291    -8458193.41949  -6562439.91046  21900179.261    21900192.203
       221.000         186.000
  21009236.226    -9487863.99249  -7381377.30347  21009235.289    21009245.038
       244.000         211.000
  23916418.563    -8610832.35449  -6682721.10745  23916416.919    23916433.341
       211.000         151.000
  20289107.543    -5507831.45849  -4282075.67348  20289107.363    20289116.147
       245.000         214.000
  21715830.643   -15573191.18949 -11126551.34147  21715829.654    21715841.473
       237.000         198.000
  24142118.072    16621954.33749  12953551.11145  24142117.770    24142132.738
       212.000         149.000
 00  4 19 23 16  0.0000000  0  7G30G26G17G22G 6G23G10
  23787091.204    16022053.82149  12599959.33945  23787091.519    23787110.391
       213.000         157.000
  21893311.711    -8494285.98449  -6590563.84946  21893311.046    21893323.231
       228.000         185.000
  21005039.304    -9509918.87849  -7398562.88547  21005038.584    21005048.035
       243.000         211.000
  23910218.410    -8643413.21149  -6708108.71045  23910217.931    23910233.248
       212.000         151.000
  20292862.458    -5488099.30449  -4266699.98148  20292862.084    20292871.073
       244.000         214.000
  21703690.537   -15636987.19749 -11176262.35147  21703689.708    21703701.102
       237.000         198.000
  24161767.137    16725210.34749  13034010.22645  24161767.247    24161781.447
       213.000         149.000
 00  4 19 23 16 30.0000000  0  7G30G26G17G22G 6G23G10
  23806404.266    16123543.19349  12679041.71845  23806405.289    23806424.298
       222.000         160.000
  21886547.062    -8529834.98849  -6618264.27947  21886547.548    21886558.841
       233.000         189.000
  21000875.727    -9531798.33949  -7415611.77647  21000875.217    21000884.579
       243.000         211.000
  23904115.398    -8675485.03149  -6733099.66545  23904113.946    23904130.215
       210.000         151.000
  20296713.255    -5467863.10649  -4250931.52648  20296713.188    20296721.950
       244.000         214.000
  21691619.973   -15700417.81949 -11225688.65047  21691619.045    21691630.666
       237.000         199.000
  24181431.421    16828546.19149  13114531.56245  24181431.084    24181447.108
       212.000         149.000
 00  4 19 23 17  0.0000000  0  7G30G26G17G22G 6G23G10
  23825724.129    16225067.98749  12758151.52345  23825724.634    23825744.607
       212.000         160.000
  21879885.131    -8564844.21149  -6645544.09147  21879884.631    21879896.595
       230.000         190.000
  20996745.764    -9553501.27149  -7432523.11547  20996745.276    20996754.583
       243.000         211.000
  23898112.357    -8707030.90249  -6757680.77745  23898111.382    23898125.944
       211.000         151.000
  20300656.979    -5447138.82249  -4234782.74448  20300656.718    20300665.424
       244.000         214.000
  21679619.104   -15763482.06249 -11274829.45447  21679618.532    21679630.158
       237.000         199.000
  24201108.010    16931946.83249  13195103.36645  24201106.732    24201122.129
       209.000         148.000
 00  4 19 23 17 30.0000000  0  7G30G26G17G22G 6G23G10
  23845045.838    16326603.66249  12837269.95045  23845046.918    23845063.908
       218.000         155.000
  21873328.789    -8599297.16449  -6672390.38147  21873328.590    21873340.605
       232.000         190.000
  20992649.094    -9575029.31049  -7449298.17147  20992648.372    20992657.960
       243.000         211.000
  23892209.622    -8738049.85249  -6781851.30145  23892208.708    23892223.351
       212.000         150.000
  20304691.355    -5425937.95049  -4218262.59248  20304691.355    20304699.939
       244.000         214.000
  21667689.078   -15826174.24449 -11323680.34347  21667688.262    21667700.017
       237.000         199.000
  24220792.023    17035386.96249  13275705.94645  24220790.566    24220807.001
       208.000         147.000
 00  4 19 23 18  0.0000000  0  7G30G26G17G22G 6G23G10
  23864369.791    16428150.68649  12916397.13045  23864370.760    23864390.164
       215.000         157.000
  21866877.839    -8633197.28849  -6698805.94947  21866878.285    21866888.835
       236.000         191.000
  20988584.785    -9596387.35049  -7465940.76347  20988584.176    20988593.693
       243.000         211.000
  23886406.096    -8768547.02849  -6805615.27345  23886404.936    23886420.112
       210.000         150.000
  20308815.193    -5404267.00749  -4201376.15848  20308815.240    20308823.770
       244.000         214.000
  21655830.790   -15888489.20049 -11372237.29547  21655829.701    21655841.554
       237.000         199.000
  24240483.680    17138867.39249  13356339.90745  24240482.673    24240497.922
       207.000         146.000
 00  4 19 23 18 30.0000000  0  7G30G26G17G22G 6G23G10
  23883695.544    16529706.39849  12995531.07345  23883697.990    23883715.364
       219.000         161.000
  21860532.740    -8666541.62649  -6724788.46947  21860533.058    21860543.385
       237.000         192.000
  20984552.459    -9617577.14549  -7482452.25847  20984551.817    20984561.167
       244.000         211.000
  23880699.833    -8798533.27449  -6828981.09245  23880699.406    23880713.190
       212.000         151.000
  20313025.360    -5382142.46949  -4184136.26748  20313025.015    20313033.884
       244.000         214.000
  21644043.019   -15950433.56249 -11420505.47247  21644042.131    21644053.579
       237.000         200.000
  24260181.628    17242380.20249  13436999.10645  24260181.796    24260195.645
       208.000         146.000
 00  4 19 23 19  0.0000000  0  7G30G26G17G22G 6G23G10
  23903021.462    16631262.63049  13074665.52245  23903022.972    23903040.858
       215.000         154.000
  21854294.345    -8699324.96749  -6750333.83847  21854293.807    21854304.484
       230.000         190.000
  20980548.290    -9638618.96449  -7498848.45047  20980547.429    20980556.946
       243.000         211.000
  23875089.512    -8828015.68649  -6851954.32545  23875088.400    23875102.585
       210.000         151.000
  20317321.379    -5359566.63749  -4166544.72748  20317321.131    20317330.059
       244.000         214.000
  21632326.281   -16012004.94849 -11468483.02147  21632325.313    21632336.595
       238.000         200.000
  24279883.381    17345913.42749  13517674.21845  24279882.927    24279897.104
       211.000         146.000
 00  4 19 23 19 30.0000000  0  7G30G26G17G22G 6G23G10
  23922347.484    16732821.17749  13153801.65145  23922348.733    23922368.145
       216.000         157.000
  21848163.168    -8731543.13949  -6775438.75846  21848161.912    21848173.843
       228.000         187.000
  20976570.328    -9659522.99549  -7515137.26647  20976569.633    20976579.088
       243.000         212.000
  23869569.372    -8857023.85149  -6874558.01945  23869568.472    23869583.269
       212.000         151.000
  20321704.198    -5336534.71049  -4148597.78048  20321704.067    20321712.879
       244.000         214.000
  21620681.409   -16073198.53149 -11516166.17647  21620680.115    21620691.845
       237.000         200.000
  24299589.233    17449468.09849  13598366.05645  24299589.604    24299604.169
       211.000         147.000
 00  4 19 23 20  0.0000000  0  7G30G26G17G22G 6G23G10
  23941674.246    16834382.22549  13232939.73745  23941676.262    23941694.382
       215.000         157.000
  21842138.162    -8763203.51649  -6800109.05046  21842138.242    21842148.589
       230.000         187.000
  20972619.467    -9680284.76949  -7531315.23547  20972618.878    20972628.182
       244.000         212.000
  23864139.239    -8885558.76249  -6896792.95845  23864136.682    23864152.448
       210.000         150.000
  20326176.249    -5313033.98949  -4130285.54048  20326176.161    20326185.043
       245.000         214.000
  21609108.788   -16134012.14349 -11563553.25747  21609108.006    21609119.228
       238.000         201.000
  24319299.337    17553044.48849  13679074.81545  24319299.100    24319314.262
       212.000         147.000
 00  4 19 23 20 30.0000000  0  7G30G26G17G22G 6G23G10
  23960999.081    16935933.90249  13312070.56845  23961001.514    23961019.239
       216.000         154.000
  21836219.978    -8794303.32549  -6824342.54546  21836220.279    21836230.313
       229.000         185.000
  20968699.153    -9700886.08249  -7547368.16847  20968698.462    20968707.971
       243.000         211.000
  23858801.219    -8913609.60249  -6918650.69745  23858800.046    23858815.368
       211.000         151.000
  20330742.590    -5289037.73449  -4111587.17648  20330742.630    20330751.249
       244.000         214.000
  21597607.797   -16194449.70949 -11610647.31447  21597607.338    21597618.253
       238.000         201.000
  24339013.451    17656642.45049  13759800.38245  24339014.231    24339028.389
       212.000         148.000
 00  4 19 23 21  0.0000000  0  7G30G26G17G22G 6G23G10
  23980323.819    17037483.11349  13391199.46045  23980325.176    23980344.947
       219.000         160.000
  21830408.838    -8824840.26549  -6848137.47246  21830408.053    21830418.648
       226.000         181.000
  20964812.637    -9721309.47949  -7563282.46547  20964811.923    20964821.403
       244.000         211.000
  23853558.239    -8941160.95349  -6940119.22445  23853557.546    23853572.375
       213.000         152.000
  20335407.374    -5264524.37949  -4092485.87348  20335407.400    20335416.284
       245.000         214.000
  21586182.417   -16254490.19249 -11657431.95947  21586181.647    21586192.919
       239.000         202.000
  24358733.877    17760273.67949  13840551.84645  24358734.639    24358748.467
       213.000         147.000
 00  4 19 23 21 30.0000000  0  7G30G26G17G22G 6G23G10
  23999648.262    17139033.05849  13470328.87145  23999649.079    23999668.823
       213.000         154.000
  21824704.801    -8854813.79749  -6871493.37646  21824704.561    21824715.622
       229.000         181.000
  20960964.761    -9741530.02849  -7579038.69847  20960963.997    20960973.427
       244.000         211.000
  23848413.138    -8968199.66749  -6961188.29545  23848412.358    23848426.828
       213.000         152.000
  20340173.193    -5239479.66949  -4072970.53548  20340173.141    20340181.846
       244.000         214.000
  21574834.016   -16314126.06949 -11703901.32847  21574833.124    21574844.186
       239.000         202.000
  24378463.981    17863955.21749  13921342.52745  24378463.681    24378477.924
       212.000         148.000
 00  4 19 23 22  0.0000000  0  7G30G26G17G22G 6G23G10
  24018972.229    17240579.52049  13549455.66245  24018973.221    24018992.699
       219.000         154.000
  21819109.454    -8884217.08949  -6894404.92346  21819109.745    21819120.767
       227.000         184.000
  20957158.567    -9761531.62149  -7594624.32047  20957157.921    20957167.326
       244.000         211.000
  23843371.133    -8994696.03649  -6981834.75845  23843371.347    23843383.782
       215.000         153.000
  20345042.127    -5213893.25649  -4053033.08948  20345042.040    20345050.856
       244.000         214.000
  21563563.226   -16373354.00449 -11750052.82347  21563562.426    21563573.717
       238.000         202.000
  24398205.472    17967696.56649  14002179.82045  24398205.284    24398220.018
       212.000         148.000
 00  4 19 23 22 30.0000000  0  7G30G26G17G22G 6G23G10
  24038297.834    17342134.62849  13628589.10245  24038298.412    24038318.597
       209.000         155.000
  21813623.778    -8913044.01349  -6916867.33446  21813622.613    21813634.914
       227.000         185.000
  20953394.278    -9781312.81449  -7610038.19447  20953393.547    20953403.116
       243.000         211.000
  23838432.741    -9020646.25149  -7002055.61545  23838431.697    23838445.909
       213.000         152.000
  20350011.487    -5187779.26349  -4032684.53348  20350011.310    20350020.156
       244.000         214.000
  21552371.356   -16432167.17549 -11795881.12747  21552370.394    21552381.633
       239.000         203.000
  24417958.278    18071498.24849  14083064.11845  24417957.919    24417973.113
       210.000         147.000
 00  4 19 23 23  0.0000000  0  7G30G26G17G22G 6G23G10
  24057626.086    17443703.83349  13707733.50545  24057627.591    24057647.180
       219.000         156.000
  21808248.068    -8941292.89349  -6938879.32747  21808248.444    21808258.974
       230.000         188.000
  20949669.799    -9800884.76149  -7625289.02347  20949669.076    20949678.545
       244.000         211.000
  23833597.377    -9046056.17149  -7021855.50745  23833596.285    23833610.946
       213.000         152.000
  20355078.625    -5161151.58049  -4011935.71548  20355078.432    20355087.350
       245.000         214.000
  21541258.217   -16490566.43849 -11841386.90547  21541257.418    21541268.535
       240.000         203.000
  24437720.768    18175350.35949  14163987.71145  24437720.478    24437735.883
       211.000         146.000
 00  4 19 23 23 30.0000000  0  7G30G26G17G22G 6G23G10
  24076955.904    17545280.12849  13786883.53545  24076956.710    24076976.874
       216.000         156.000
  21802982.816    -8968962.15549  -6960439.70747  21802982.859    21802993.979
       232.000         190.000
  20945982.660    -9820260.79649  -7640387.18947  20945981.809    20945991.449
       243.000         212.000
  23828863.918    -9070929.79749  -7041237.47245  23828863.611    23828877.430
       214.000         153.000
  20360242.150    -5134016.82749  -3990791.77548  20360242.208    20360250.808
       244.000         213.000
  21530221.039   -16548566.51849 -11886581.62747  21530219.989    21530231.348
       239.000         203.000
  24457490.129    18279238.63549  14244939.47645  24457490.232    24457504.096
       212.000         145.000
 00  4 19 23 24  0.0000000  0  8G30G26G17G22G21G 6G23G10
  24096283.850    17646848.30849  13866027.13945  24096284.989    24096305.867
       219.000         155.000
  21797821.951    -8996082.92349  -6981572.69447  21797821.662    21797832.749
       230.000         190.000
  20942326.433    -9839474.35549  -7655358.75147  20942325.899    20942335.111
       244.000         212.000
  23824228.487    -9095289.54149  -7060219.02745  23824227.920    23824242.067
       213.000         153.000
  24935833.129    -4418624.87959  -3423188.80445  24935829.484    24935855.329
       206.000         134.000
  20365493.984    -5106418.42049  -3969286.53948  20365493.882    20365502.524
       245.000         213.000
  21519253.972   -16606198.07849 -11931489.20147  21519253.191    21519264.456
       240.000         203.000
  24477258.487    18383121.42349  14325886.96645  24477257.767    24477273.765
       211.000         144.000
 00  4 19 23 24 30.0000000  0  8G30G26G17G22G21G 6G23G10
  24115612.748    17748420.80649  13945174.14745  24115612.879    24115632.955
       213.000         153.000
  21792766.092    -9022651.29349  -7002275.22147  21792766.232    21792777.323
       231.000         189.000
  20938704.101    -9858509.64649  -7670191.39947  20938703.657    20938713.040
       244.000         212.000
  23819691.473    -9119131.17749  -7078796.86645  23819690.022    23819705.681
       212.000         153.000
  24918426.186    -4510096.12849  -3494464.43945  24918424.704    24918449.698
       211.000         138.000
  20370835.873    -5078346.77649  -3947412.55648  20370836.004    20370844.537
       244.000         213.000
  21508359.871   -16663446.30149 -11976098.06847  21508358.913    21508370.150
       241.000         203.000
  24497027.693    18487008.93049  14406838.15345  24497027.431    24497043.209
       209.000         143.000
 00  4 19 23 25  0.0000000  0  8G30G26G17G22G21G 6G23G10
  24134943.679    17850005.06449  14024330.30245  24134946.254    24134966.211
       213.000         148.000
  21787820.509    -9048639.75949  -7022525.89446  21787820.376    21787830.905
       230.000         187.000
  20935118.345    -9877352.85349  -7684874.37647  20935117.720    20935127.241
       243.000         212.000
  23815255.163    -9142443.99149  -7096962.63245  23815255.012    23815269.538
       214.000         154.000
  24901044.248    -4601437.48949  -3565638.93345  24901042.077    24901067.792
       210.000         140.000
  20376273.932    -5049769.54849  -3925144.60848  20376273.819    20376282.782
       243.000         213.000
  21497542.368   -16720292.30049 -12020393.51347  21497541.532    21497552.653
       240.000         203.000
  24516801.223    18590919.04149  14487806.93145  24516801.292    24516815.150
       210.000         141.000
 00  4 19 23 25 30.0000000  0  8G30G26G17G22G21G 6G23G10
  24154275.431    17951592.11949  14103488.65645  24154277.382    24154297.053
       219.000         155.000
  21782986.042    -9074044.55049  -7042321.74746  21782985.623    21782997.056
       229.000         185.000
  20931566.974    -9896015.44949  -7699416.61747  20931566.348    20931575.677
       244.000         212.000
  23810917.695    -9165237.27449  -7114723.57445  23810916.955    23810931.774
       213.000         154.000
  24883688.654    -4692639.12549  -3636704.51245  24883687.092    24883710.461
       207.000         138.000
  20381807.259    -5020691.61849  -3902486.50748  20381807.328    20381816.006
       244.000         213.000
  21486801.508   -16776735.41349 -12064375.03147  21486800.538    21486811.696
       240.000         204.000
  24536579.768    18694855.37449  14568796.16545  24536579.020    24536594.411
       210.000         141.000
 00  4 19 23 26  0.0000000  0  8G30G26G17G22G21G 6G23G10
  24173605.657    18053171.36549  14182640.87945  24173606.620    24173627.254
       215.000         156.000
  21778261.035    -9098873.92449  -7061669.22146  21778260.954    21778271.900
       229.000         184.000
  20928049.119    -9914501.69749  -7713821.44747  20928048.344    20928057.987
       244.000         212.000
  23806677.510    -9187520.31049  -7132086.92245  23806676.001    23806690.340
       211.000         153.000
  24866362.009    -4783688.77649  -3707651.64545  24866360.677    24866383.354
       201.000         137.000
  20387434.498    -4991120.25649  -3879443.90548  20387434.553    20387443.223
       244.000         213.000
  21476137.387   -16832775.22049 -12108042.27747  21476136.680    21476147.773
       241.000         204.000
  24556363.800    18798820.63549  14649807.93245  24556361.814    24556378.280
       208.000         141.000
 00  4 19 23 26 30.0000000  0  8G30G26G17G22G21G 6G23G10
  24192931.031    18154725.80149  14261773.77645  24192932.651    24192951.613
       216.000         153.000
  21773647.828    -9123115.80349  -7080558.91246  21773647.657    21773659.176
       229.000         184.000
  20924562.871    -9932821.94349  -7728096.92647  20924562.087    20924571.576
       243.000         212.000
  23802530.589    -9209311.27849  -7149066.84545  23802529.182    23802545.203
       214.000         154.000
  24849063.371    -4874590.10649  -3778483.21145  24849059.384    24849086.907
       211.000         134.000
  20393157.129    -4961047.73849  -3856010.79148  20393156.781    20393165.610
       244.000         213.000
  21465549.834   -16888412.66549 -12151396.00147  21465549.030    21465559.950
       240.000         204.000
  24576154.336    18902819.57149  14730845.95445  24576153.453    24576168.249
       206.000         140.000
 00  4 19 23 27  0.0000000  0  8G30G26G17G22G21G 6G23G10
  24212252.441    18256258.13749  14340889.50045  24212252.057    24212273.913
       210.000         150.000
  21769150.254    -9146750.35849  -7098975.37146  21769149.571    21769160.853
       229.000         184.000
  20921105.673    -9950989.22849  -7742253.21347  20921104.970    20921114.227
       243.000         212.000
  23798478.223    -9230607.05449  -7165660.92545  23798477.187    23798491.269
       214.000         154.000
  24831792.710    -4965344.96149  -3849200.67945  24831791.788    24831815.918
       204.000         137.000
  20398974.212    -4930478.64649  -3832190.74148  20398974.074    20398982.954
       244.000         213.000
  21455038.859   -16943647.65949 -12194436.12147  21455038.036    21455049.004
       240.000         204.000
  24595949.176    19006841.96949  14811902.24745  24595948.179    24595963.004
       206.000         140.000
 00  4 19 23 27 30.0000000  0  8G30G26G17G22G21G 6G23G10
  24231566.832    18357756.34249  14419978.52245  24231567.565    24231588.801
       211.000         144.000
  21764764.270    -9169798.56249  -7116934.92146  21764764.237    21764775.095
       230.000         185.000
  20917680.171    -9968990.23349  -7756279.93447  20917679.392    20917688.699
       243.000         212.000
  23794521.904    -9251397.76349  -7181861.44845  23794521.216    23794534.956
       213.000         154.000
  24814550.128    -5055953.61049  -3919804.20045  24814548.146    24814572.120
       207.000         139.000
  20404883.126    -4899427.11249  -3807994.76648  20404882.953    20404892.045
       243.000         213.000
  21444603.185   -16998487.04649 -12237167.97947  21444602.531    21444613.138
       241.000         204.000
  24615748.711    19110888.40249  14892977.27645  24615748.872    24615762.255
       211.000         139.000
 00  4 19 23 28  0.0000000  0  8G30G26G17G22G21G 6G23G10
  24250874.556    18459216.41249  14499037.95745  24250875.398    24250896.391
       215.000         147.000
  21760488.881    -9192265.80749  -7134441.78646  21760489.347    21760499.967
       232.000         186.000
  20914288.738    -9986812.10149  -7770167.06947  20914287.990    20914297.451
       244.000         212.000
  23790662.580    -9271678.64449  -7197664.71045  23790661.358    23790675.992
       213.000         154.000
  24797334.100    -5146422.43049  -3990298.76345  24797333.044    24797356.902
       204.000         140.000
  20410883.862    -4867893.25249  -3783422.95648  20410883.899    20410892.651
       244.000         213.000
  21434242.080   -17052934.46149 -12279594.40947  21434241.254    21434251.878
       241.000         205.000
  24635549.480    19214941.21849  14974057.27845  24635548.485    24635563.119
       210.000         138.000
 00  4 19 23 28 30.0000000  0  8G30G26G17G22G21G 6G23G10
  24270173.798    18560632.69149  14578063.21945  24270174.958    24270196.392
       212.000         150.000
  21756326.666    -9214138.54849  -7151485.40146  21756326.758    21756337.220
       233.000         187.000
  20910931.605   -10004453.81349  -7783913.83147  20910930.914    20910940.255
       243.000         212.000
  23786902.135    -9291439.12949  -7213062.46445  23786901.151    23786916.366
       214.000         154.000
  24780143.305    -5236757.65049  -4060689.22345  24780140.336    24780166.173
       202.000         140.000
  20416978.349    -4835866.67849  -3758467.21148  20416978.320    20416987.372
       244.000         213.000
  21423954.044   -17106997.54849 -12321721.35947  21423953.156    21423964.144
       241.000         205.000
  24655349.887    19318992.91749  15055136.39645  24655348.607    24655364.542
       204.000         137.000
 00  4 19 23 29  0.0000000  0  8G30G26G17G22G21G 6G23G10
  24289463.162    18661997.87049  14657048.59945  24289464.863    24289485.100
       215.000         153.000
  21752275.782    -9235426.19249  -7168073.09047  21752275.873    21752286.396
       233.000         189.000
  20907610.957   -10021903.70049  -7797511.11747  20907610.263    20907619.422
       244.000         212.000
  23783244.778    -9310658.93549  -7228038.90745  23783243.293    23783257.421
       217.000         154.000
  24762981.505    -5326941.26249  -4130961.56445  24762979.826    24763003.362
       209.000         139.000
  20423166.951    -4803345.56349  -3733126.11048  20423166.816    20423175.769
       244.000         213.000
  21413738.399   -17160680.68949 -12363552.25347  21413737.638    21413748.317
       240.000         205.000
  24675149.714    19423040.84449  15136212.61945  24675148.460    24675166.787
       205.000         136.000
 00  4 19 23 29 30.0000000  0  8G30G26G17G22G21G 6G23G10
  24308740.697    18763299.19849  14735984.27845  24308741.488    24308762.337
       212.000         152.000
  21748334.608    -9256137.13249  -7184211.39847  21748334.741    21748345.304
       234.000         190.000
  20904328.490   -10039153.21949  -7810952.27547  20904327.865    20904337.207
       243.000         212.000
  23779690.465    -9329336.75049  -7242593.01745  23779689.943    23779703.510
       211.000         154.000
  24745849.761    -5416966.58049  -4201110.58245  24745847.736    24745871.466
       203.000         141.000
  20429450.087    -4770327.61349  -3707397.86348  20429449.836    20429458.957
       244.000         213.000
  21403594.081   -17213988.94649 -12405091.02847  21403593.321    21403604.018
       241.000         205.000
  24694950.130    19527092.00049  15217291.31845  24694949.122    24694963.553
       202.000         134.000
 00  4 19 23 30  0.0000000  0  8G30G26G17G22G21G 6G23G10
  24328007.436    18864545.76749  14814877.24145  24328007.861    24328029.634
       207.000         143.000
  21744507.463    -9276248.76349  -7199882.70447  21744507.681    21744518.023
       233.000         190.000
  20901080.159   -10056223.33649  -7824253.63647  20901079.434    20901088.593
       244.000         212.000
  23776238.446    -9347476.84149  -7256728.12645  23776238.013    23776252.756
       213.000         154.000
  24728748.209    -5506833.43849  -4271136.10745  24728747.065    24728768.811
       212.000         141.000
  20435829.803    -4736802.27249  -3681274.25247  20435829.809    20435838.604
       243.000         212.000
  21393521.744   -17266918.88649 -12446335.00847  21393521.104    21393531.620
       241.000         206.000
  24714750.395    19631142.59449  15298369.58445  24714750.264    24714765.758
       204.000         134.000
 00  4 19 23 30 30.0000000  0  8G30G26G17G22G21G 6G23G10
  24347260.872    18965721.67449  14893715.16045  24347262.511    24347283.080
       218.000         146.000
  21740793.490    -9295765.37349  -7215090.36847  21740793.402    21740804.129
       234.000         190.000
  20897865.048   -10073118.70249  -7837418.83147  20897864.220    20897873.728
       244.000         212.000
  23772887.913    -9365084.00249  -7270447.95145  23772886.303    23772901.184
       214.000         154.000
  24711677.086    -5596540.24049  -4341036.93545  24711675.773    24711699.503
       207.000         142.000
  20442305.122    -4702774.29049  -3654758.97547  20442305.147    20442313.857
       244.000         212.000
  21383522.087   -17319466.97549 -12487281.44347  21383521.316    21383531.856
       241.000         206.000
  24734550.908    19735194.63649  15379448.98745  24734549.638    24734565.779
       206.000         134.000
 00  4 19 23 31  0.0000000  0  7G30G26G17G22G21G 6G23
  24366502.031    19066832.06049  14972502.07745  24366503.371    24366525.058
       218.000         151.000
  21737191.314    -9314694.69349  -7229840.39347  21737191.126    21737202.217
       234.000         190.000
  20894684.234   -10089833.79649  -7850443.56047  20894683.452    20894692.921
       244.000         212.000
  23769636.173    -9382171.32349  -7283762.69445  23769635.264    23769650.134
       215.000         155.000
  24694635.596    -5686092.67949  -4410817.46545  24694634.430    24694657.399
       212.000         142.000
  20448874.347    -4668253.00649  -3627859.30647  20448874.259    20448883.116
       244.000         212.000
  21373598.738   -17371614.14749 -12527915.48547  21373598.036    21373608.306
       241.000         206.000
 00  4 19 23 31 30.0000000  0  7G30G26G17G22G21G 6G23
  24385732.217    19167886.24249  15051245.18645  24385732.599    24385753.459
       207.000         145.000
  21733701.835    -9333031.51749  -7244128.74147  21733701.841    21733712.398
       234.000         190.000
  20891536.945   -10106372.88449  -7863331.14047  20891536.350    20891545.650
       244.000         212.000
  23766481.176    -9398751.13949  -7296681.98145  23766480.518    23766494.101
       215.000         155.000
  24677621.051    -5775502.10649  -4480486.59945  24677620.159    24677642.675
       202.000         141.000
  20455537.440    -4633238.08949  -3600574.99547  20455537.416    20455546.185
       244.000         212.000
  21363754.195   -17423346.95349 -12568226.64147  21363753.361    21363763.886
       241.000         206.000
 00  4 19 23 32  0.0000000  0  7G30G26G17G22G21G 6G23
  24404953.797    19268895.30449  15129953.07445  24404955.891    24404976.630
       210.000         143.000
  21730327.034    -9350765.94049  -7257947.68347  21730327.108    21730337.795
       234.000         190.000
  20888424.141   -10122730.77449  -7876077.52747  20888423.635    20888432.930
       244.000         212.000
  23763423.858    -9414817.60949  -7309201.26845  23763422.725    23763436.914
       215.000         155.000
  24660636.772    -5864752.26549  -4550031.59645  24660635.867    24660658.983
       213.000         140.000
  20462297.001    -4597716.53549  -3572895.89647  20462297.106    20462305.917
       244.000         212.000
  21353991.945   -17474647.46149 -12608200.94147  21353991.040    21354001.786
       242.000         206.000
 00  4 19 23 32 30.0000000  0  7G30G26G17G22G21G 6G23
  24424167.975    19369864.54349  15208629.93945  24424169.799    24424191.515
       214.000         150.000
  21727066.503    -9367899.65149  -7271298.52547  21727066.115    21727076.950
       231.000         190.000
  20885348.730   -10138892.09649  -7888670.74247  20885348.004    20885357.395
       244.000         212.000
  23760465.648    -9430362.59049  -7321314.18345  23760465.302    23760478.831
       214.000         155.000
  24643685.987    -5953828.02549  -4619440.73845  24643684.103    24643707.321
       212.000         142.000
  20469152.260    -4561692.16449  -3544824.99247  20469152.191    20469161.072
       244.000         212.000
  21344314.103   -17525504.58549 -12647829.74447  21344313.080    21344323.840
       241.000         206.000
 00  4 19 23 33  0.0000000  0  7G30G26G17G22G21G 6G23
  24443378.000    19470812.10949  15287289.86245  24443379.061    24443402.144
       208.000         150.000
  21723923.493    -9384415.70949  -7284168.08047  21723923.571    21723933.178
       234.000         189.000
  20882308.285   -10154869.69449  -7901120.79447  20882307.599    20882316.962
       244.000         212.000
  23757606.744    -9445386.32249  -7333020.93645  23757606.391    23757620.171
       215.000         154.000
  24626769.760    -6042720.95549  -4688707.41445  24626767.743    24626790.640
       209.000         141.000
  20476103.309    -4525164.31349  -3516361.76247  20476103.389    20476112.255
       244.000         212.000
  21334720.265   -17575919.84549 -12687114.23947  21334719.361    21334729.795
       242.000         207.000
 00  4 19 23 33 30.0000000  0  7G30G26G17G22G21G 6G23
  24462580.690    19571722.21849  15365920.58345  24462583.646    24462603.843
       213.000         148.000
  21720897.401    -9400317.90549  -7296559.30247  21720897.436    21720907.161
       233.000         188.000
  20879300.033   -10170678.06449  -7913438.98247  20879299.302    20879308.634
       244.000         212.000
  23754846.690    -9459890.08549  -7344322.51945  23754844.943    23754859.504
       213.000         154.000
  24609888.613    -6131429.04249  -4757830.00945  24609887.210    24609908.808
       212.000         140.000
  20483148.456    -4488141.79849  -3487513.08147  20483148.481    20483157.360
       244.000         212.000
  21325207.202   -17625910.88549 -12726068.17747  21325206.557    21325216.789
       241.000         207.000
 00  4 19 23 34  0.0000000  0  7G30G26G17G22G21G 6G23
  24481773.482    19672578.30949  15444509.36045  24481775.939    24481796.046
       219.000         146.000
  21717987.788    -9415607.60949  -7308473.28246  21717987.920    21717997.844
       234.000         187.000
  20876322.344   -10186325.66949  -7925631.89947  20876321.763    20876330.895
       244.000         212.000
  23752186.596    -9473868.28849  -7355214.58145  23752186.324    23752200.267
       215.000         154.000
  24593039.862    -6219967.31549  -4826820.32445  24593037.434    24593060.411
       211.000         142.000
  20490286.662    -4450630.57049  -3458283.58247  20490286.840    20490295.611
       244.000         212.000
  21315771.104   -17675497.45049 -12764706.93747  21315770.409    21315780.686
       241.000         207.000
 00  4 19 23 34 30.0000000  0  7G30G26G17G22G21G 6G23
  24500955.439    19773378.52649  15523054.60745  24500955.761    24500978.058
       210.000         143.000
  21715193.706    -9430290.58749  -7319914.48347  21715193.614    21715204.143
       235.000         188.000
  20873373.724   -10201820.65849  -7937705.89347  20873373.184    20873382.322
       244.000         212.000
  23749625.796    -9487325.65949  -7365700.81345  23749624.717    23749639.433
       215.000         155.000
  24576218.037    -6308364.85049  -4895700.98645  24576215.780    24576238.168
       207.000         144.000
  20497515.925    -4412640.67449  -3428681.09447  20497515.825    20497524.911
       244.000         212.000
  21306408.838   -17724696.07049 -12803043.40347  21306408.071    21306418.226
       241.000         207.000
 00  4 19 23 35  0.0000000  0  7G30G26G17G22G21G 6G23
  24520123.894    19874107.92349  15601544.51945  24520124.911    24520148.923
       201.000         140.000
  21712515.261    -9444365.51049  -7330881.87847  21712514.759    21712525.508
       234.000         188.000
  20870453.186   -10217168.32649  -7949665.09447  20870452.546    20870461.944
       244.000         212.000
  23747164.018    -9500262.66349  -7375781.56545  23747163.661    23747177.264
       214.000         155.000
  24559418.376    -6396645.60749  -4964490.60845  24559417.119    24559439.478
       212.000         143.000
  20504836.142    -4374172.69549  -3398706.07947  20504836.067    20504845.031
       243.000         212.000
  21297116.744   -17773525.72949 -12841092.36847  21297116.003    21297126.182
       241.000         207.000
 00  4 19 23 35 30.0000000  0  7G30G26G17G22G21G 6G23
  24539274.140    19974741.94949  15679960.10145  24539275.593    24539298.302
       207.000         142.000
  21709950.927    -9457840.92349  -7341382.12547  21709951.114    21709960.871
       236.000         188.000
  20867562.709   -10232357.67849  -7961500.92747  20867562.097    20867571.310
       244.000         212.000
  23744801.721    -9512676.97249  -7385455.02745  23744801.386    23744814.795
       216.000         155.000
  24542638.320    -6484823.05749  -5033199.75745  24542635.937    24542658.947
       210.000         142.000
  20512248.017    -4335223.14049  -3368355.80947  20512248.046    20512257.057
       244.000         212.000
  21287893.539   -17821993.39649 -12878859.25947  21287892.679    21287903.243
       242.000         207.000
 00  4 19 23 36  0.0000000  0  7G30G26G17G22G21G 6G23
  24558408.833    20075293.41049  15758311.41645  24558410.566    24558432.223
       212.000         146.000
  21707501.163    -9470714.23449  -7351413.21347  21707501.030    21707510.965
       236.000         189.000
  20864703.250   -10247384.20049  -7973209.87847  20864702.707    20864711.984
       244.000         212.000
  23742538.196    -9524571.95349  -7394723.83445  23742537.174    23742550.863
       214.000         155.000
  24525879.249    -6572890.61449  -5101823.27545  24525877.568    24525898.393
       208.000         141.000
  20519753.066    -4295784.12249  -3337624.14147  20519753.111    20519762.082
       243.000         212.000
  21278738.763   -17870101.72049 -12916346.15047  21278738.006    21278748.330
       242.000         208.000
 00  4 19 23 36 30.0000000  0  7G30G26G17G22G21G 6G23
  24577525.642    20175751.15549  15836589.72045  24577527.552    24577550.697
       212.000         147.000
  21705165.003    -9482990.78149  -7360979.27047  21705164.837    21705175.345
       234.000         189.000
  20861875.084   -10262245.92549  -7984790.41147  20861874.195    20861883.604
       244.000         212.000
  23740371.919    -9535955.22649  -7403593.89445  23740371.923    23740384.935
       215.000         155.000
  24509146.610    -6660818.64349  -5170338.04345  24509145.132    24509167.216
       210.000         142.000
  20527350.629    -4255858.92349  -3306513.62647  20527350.391    20527359.447
       244.000         212.000
  21269654.724   -17917838.14649 -12953543.24247  21269653.755    21269663.881
       242.000         208.000
 00  4 19 23 37  0.0000000  0  7G30G26G17G22G21G 6G23
  24596620.552    20276093.31349  15914777.92145  24596621.903    24596644.978
       213.000         148.000
  21702943.126    -9494666.00649  -7370076.74847  21702942.925    21702953.349
       234.000         189.000
  20859080.225   -10276933.10149  -7996234.93747  20859079.650    20859088.807
       244.000         212.000
  23738302.447    -9546830.22449  -7412067.90145  23738301.346    23738315.657
       214.000         155.000
  24492445.889    -6748579.44549  -5238722.48945  24492443.154    24492466.257
       212.000         144.000
  20535042.400    -4215438.35749  -3275017.11547  20535042.106    20535051.214
       243.000         211.000
  21260643.565   -17965191.46649 -12990441.81547  21260642.863    21260652.970
       242.000         208.000
 00  4 19 23 37 30.0000000  0  7G30G26G17G22G21G 6G23
  24615693.797    20376321.02349  15992876.95545  24615695.748    24615717.715
       215.000         150.000
  21700835.153    -9505743.25849  -7378708.29947  21700834.875    21700845.695
       233.000         189.000
  20856322.994   -10291422.33549  -8007525.22047  20856322.189    20856331.586
       243.000         212.000
  23736328.807    -9557201.63349  -7420149.50745  23736328.142    23736341.813
       215.000         155.000
  24475782.271    -6836145.43949  -5306955.14445  24475781.139    24475801.590
       213.000         144.000
  20542829.012    -4174519.27949  -3243132.15447  20542828.885    20542837.974
       243.000         211.000
  21251708.143   -18012146.96449 -13027030.39747  21251707.399    21251717.654
       242.000         208.000
 00  4 19 23 38  0.0000000  0  7G30G26G17G22G21G 6G23
  24634750.074    20476460.21049  16070907.02145  24634751.067    24634773.797
       210.000         146.000
  21698840.617    -9516223.81649  -7386874.87846  21698840.086    21698851.150
       232.000         187.000
  20853607.052   -10305694.36949  -8018646.25747  20853606.309    20853615.680
       243.000         212.000
  23734450.984    -9567069.44349  -7427838.70145  23734450.782    23734464.641
       215.000         156.000
  24459159.481    -6923496.61049  -5375020.44045  24459157.048    24459178.875
       210.000         142.000
  20550710.956    -4133099.63449  -3210857.14347  20550710.849    20550719.880
       243.000         211.000
  21242850.456   -18058693.86549 -13063300.59747  21242849.701    21242859.748
       242.000         208.000
 00  4 19 23 38 30.0000000  0  7G30G26G17G22G21G 6G23
  24653787.384    20576500.79349  16148860.23045  24653787.648    24653813.014
       203.000         137.000
  21696962.835    -9526091.03649  -7394563.54947  21696962.545    21696973.281
       233.000         188.000
  20850935.096   -10319735.40749  -8029587.29747  20850934.558    20850943.691
       244.000         212.000
  23732668.648    -9576435.94849  -7435137.26645  23732667.706    23732682.413
       214.000         156.000
  24442576.751    -7010636.87149  -5442921.36245  24442574.028    24442596.912
       209.000         143.000
  20558687.018    -4091185.07849  -3178196.49247  20558687.307    20558696.049
       244.000         211.000
  21234072.193   -18104823.47449 -13099245.63847  21234071.268    21234081.584
       242.000         209.000
 00  4 19 23 39  0.0000000  0  7G30G26G17G22G21G 6G23
  24672810.928    20676468.21249  16226756.44245  24672813.467    24672834.550
       208.000         135.000
  21695203.415    -9535336.45249  -7401767.70146  21695202.974    21695213.552
       232.000         187.000
  20848307.930   -10333541.06649  -8040344.92247  20848307.237    20848316.538
       244.000         212.000
  23730980.328    -9585307.70649  -7442050.30345  23730979.275    23730993.766
       216.000         156.000
  24426032.682    -7097573.89849  -5510663.92845  24426030.611    24426052.441
       209.000         145.000
  20566755.892    -4048783.01549  -3145155.95747  20566755.651    20566764.657
       243.000         211.000
  21225373.272   -18150536.16949 -13134865.81447  21225372.610    21225382.569
       242.000         209.000
 00  4 19 23 39 30.0000000  0  7G30G26G17G22G21G 6G23
  24691824.887    20776384.48549  16304612.81645  24691825.705    24691850.196
       215.000         143.000
  21693559.710    -9543973.51149  -7408497.80246  21693559.481    21693569.860
       234.000         187.000
  20845722.787   -10347126.02949  -8050930.57547  20845721.947    20845731.285
       244.000         212.000
  23729388.658    -9593671.89449  -7448567.83845  23729387.167    23729402.120
       217.000         156.000
  24409526.499    -7184311.95749  -5578251.46445  24409524.698    24409546.051
       207.000         145.000
  20574916.761    -4005897.24849  -3111738.50947  20574916.782    20574925.832
       243.000         211.000
  21216752.194   -18195839.75149 -13170167.19947  21216751.359    21216761.643
       242.000         209.000
 00  4 19 23 40  0.0000000  0  7G30G26G17G22G21G 6G23
  24710829.378    20876251.53349  16382430.82645  24710830.748    24710854.544
       215.000         152.000
  21692031.944    -9552002.06749  -7414753.76447  21692032.039    21692042.039
       235.000         188.000
  20843172.179   -10360529.39349  -8061374.72647  20843171.433    20843180.707
       244.000         212.000
  23727895.384    -9601519.23549  -7454682.61745  23727894.171    23727908.590
       217.000         156.000
  24393055.921    -7270862.82949  -5645693.13145  24393054.130    24393074.266
       208.000         144.000
  20583169.805    -3962527.42449  -3077943.88047  20583169.738    20583178.796
       243.000         211.000
  21208209.911   -18240729.60749 -13205146.20847  21208209.282    21208219.397
       242.000         209.000
 00  4 19 23 40 30.0000000  0  7G30G26G17G22G21G 6G23
  24729819.270    20976042.34149  16460189.40345  24729821.281    24729844.836
       210.000         153.000
  21690619.346    -9559424.94349  -7420537.76146  21690619.327    21690628.749
       235.000         187.000
  20840650.887   -10373778.55649  -8071698.71547  20840650.088    20840659.379
       244.000         212.000
  23726502.579    -9608838.35149  -7460385.79945  23726501.545    23726515.942
       217.000         157.000
  24376619.822    -7357233.32149  -5712994.24245  24376617.739    24376639.828
       213.000         146.000
  20591515.814    -3918669.08349  -3043768.58447  20591515.750    20591525.065
       243.000         210.000
  21199746.455   -18285204.90949 -13239802.18547  21199745.631    21199755.661
       243.000         209.000
 00  4 19 23 41  0.0000000  0  7G30G26G17G22G21G 6G23
  24748793.747    21075752.52749  16537885.15045  24748794.996    24748819.066
       202.000         148.000
  21689318.768    -9566259.43649  -7425863.29846  21689319.127    21689328.719
       235.000         187.000
  20838157.153   -10386883.16549  -8081910.07047  20838156.504    20838165.663
       244.000         212.000
  23725214.745    -9615605.94549  -7465659.20145  23725212.677    23725228.255
       216.000         157.000
  24360218.017    -7443423.27349  -5780154.66845  24360216.213    24360237.001
       212.000         146.000
  20599957.726    -3874306.49749  -3009200.37347  20599957.636    20599966.875
       243.000         210.000
  21191362.312   -18329263.49049 -13274133.44547  21191361.696    21191371.516
       243.000         209.000
 00  4 19 23 41 30.0000000  0  7G30G26G17G22G21G 6G23
  24767746.612    21175348.87249  16615492.15945  24767747.485    24767771.214
       203.000         141.000
  21688129.381    -9572509.28249  -7430733.24946  21688129.550    21688139.312
       234.000         187.000
  20835688.527   -10399855.90549  -8092018.66947  20835687.774    20835697.149
       244.000         212.000
  23724032.556    -9621817.51049  -7470499.37545  23724032.304    23724046.142
       215.000         156.000
  24343844.319    -7529465.27849  -5847199.82345  24343842.239    24343862.741
       213.000         146.000
  20608494.540    -3829445.35349  -2974243.68447  20608494.586    20608503.553
       242.000         210.000
  21183054.486   -18372920.98649 -13308152.17647  21183053.697    21183063.822
       243.000         209.000
 00  4 19 23 42  0.0000000  0  7G30G26G17G22G21G 6G23
  24786679.879    21274842.35149  16693019.06045  24786680.008    24786705.700
       208.000         137.000
  21687063.463    -9578110.65149  -7435097.92046  21687063.458    21687073.029
       234.000         187.000
  20833254.090   -10412648.77049  -8101987.10448  20833253.429    20833262.638
       244.000         213.000
  23722958.644    -9627461.65149  -7474897.37345  23722958.208    23722971.695
       215.000         156.000
  24327503.947    -7615332.87049  -5914109.07745  24327503.010    24327521.526
       210.000         147.000
  20617131.611    -3784057.36349  -2938876.45947  20617131.727    20617140.546
       243.000         210.000
  21174829.727   -18416142.07849 -13341830.85047  21174829.011    21174839.037
       243.000         210.000
 00  4 19 23 42 30.0000000  0  7G30G26G17G22G21G 6G23
  24805586.298    21374194.39149  16770435.84545  24805587.679    24805612.715
       211.000         137.000
  21686119.505    -9583070.88549  -7438962.99446  21686119.022    21686129.246
       233.000         187.000
  20830853.417   -10425264.45649  -8111817.48148  20830852.931    20830861.821
       244.000         213.000
  23721984.032    -9632583.94149  -7478888.73845  23721982.623    23721997.958
       213.000         156.000
  24311190.021    -7701060.41149  -5980909.17745  24311187.825    24311209.023
       209.000         147.000
  20625862.814    -3738174.77649  -2903123.83547  20625862.582    20625872.304
       242.000         210.000
  21166681.089   -18458962.99849 -13375197.70447  21166680.262    21166690.300
       243.000         210.000
 00  4 19 23 43  0.0000000  0  6G26G17G22G21G 6G23
  21685308.285    -9587333.20049  -7442284.23446  21685308.383    21685318.363
       234.000         187.000
  20828493.730   -10437664.37749  -8121479.73048  20828493.144    20828502.393
       244.000         213.000
  23721112.509    -9637163.26049  -7482457.01945  23721112.356    23721125.089
       215.000         156.000
  24294908.185    -7786620.12549  -6047578.50445  24294906.696    24294926.045
       213.000         148.000
  20634692.260    -3691776.12149  -2866969.08747  20634692.460    20634701.319
       243.000         210.000
  21158614.487   -18501352.81149 -13408228.62847  21158613.657    21158623.618
       242.000         210.000
 00  4 19 23 43 30.0000000  0  6G26G17G22G21G 6G23
  21684624.458    -9590926.84649  -7445084.43347  21684624.617    21684634.921
       234.000         189.000
  20826168.117   -10449885.62249  -8131002.75448  20826167.504    20826176.539
       244.000         213.000
  23720331.838    -9641266.16449  -7485654.05745  23720331.007    23720345.138
       216.000         156.000
  24278651.450    -7872047.41549  -6114144.65445  24278649.581    24278669.239
       211.000         147.000
  20643609.868    -3644913.92949  -2830453.13347  20643609.726    20643619.314
       242.000         210.000
  21150621.131   -18543357.86049 -13440959.74047  21150620.500    21150630.493
       242.000         210.000
 00  4 19 23 44  0.0000000  0  6G26G17G22G21G 6G23
  21684060.038    -9593892.62449  -7447395.37647  21684059.748    21684069.516
       234.000         189.000
  20823871.993   -10461951.64749  -8140404.82547  20823871.214    20823880.303
       244.000         212.000
  23719634.090    -9644933.28949  -7488511.52745  23719632.940    23719647.798
       215.000         156.000
  24262418.988    -7957346.97449  -6180611.28645  24262416.599    24262436.758
       210.000         148.000
  20652613.006    -3597602.35849  -2793587.02947  20652613.063    20652621.970
       243.000         210.000
  21142696.320   -18585002.66149 -13473410.13547  21142695.486    21142705.312
       242.000         210.000
 00  4 19 23 44 30.0000000  0  6G26G17G22G21G 6G23
  21683612.501    -9596244.34249  -7449227.84547  21683612.907    21683622.599
       237.000         190.000
  20821606.595   -10473856.20649  -8149681.08347  20821605.952    20821615.226
       244.000         212.000
  23719026.053    -9648127.29249  -7491000.33345  23719025.081    23719039.170
       215.000         156.000
  24246216.362    -8042489.69149  -6246955.68945  24246214.285    24246235.054
       212.000         149.000
  20661704.924    -3549824.35149  -2756357.46147  20661705.019    20661714.034
       244.000         210.000
  21134842.845   -18626272.30849 -13505568.20947  21134842.153    21134851.964
       243.000         210.000
 00  4 19 23 45  0.0000000  0  6G26G17G22G21G 6G23
  21683279.306    -9597995.55249  -7450592.38047  21683279.748    21683289.680
       236.000         191.000
  20819373.039   -10485593.53749  -8158827.03347  20819372.498    20819381.643
       243.000         212.000
  23718512.707    -9650824.74349  -7493102.22345  23718511.746    23718525.402
       215.000         156.000
  24230049.344    -8127445.57949  -6313154.51145  24230048.067    24230067.548
       213.000         149.000
  20670887.155    -3501571.61249  -2718757.97447  20670887.033    20670896.384
       242.000         210.000
  21127062.880   -18667155.95249 -13537425.49547  21127061.939    21127072.084
       242.000         210.000
 00  4 19 23 45 30.0000000  0  6G26G17G22G21G 6G23
  21683056.874    -9599164.28849  -7451503.04147  21683056.163    21683066.893
       235.000         190.000
  20817175.864   -10497139.79549  -8167824.09747  20817175.229    20817184.442
       244.000         212.000
  23718095.181    -9653018.64249  -7494811.74145  23718094.015    23718108.423
       215.000         156.000
  24213922.734    -8212189.18549  -6379187.94345  24213921.271    24213939.808
       209.000         148.000
  20680162.588    -3452829.04149  -2680776.80447  20680162.611    20680171.850
       242.000         210.000
  21119359.082   -18707639.19249 -13568970.78847  21119358.352    21119368.346
       242.000         210.000
 00  4 19 23 46  0.0000000  0  6G26G17G22G21G 6G23
  21682947.079    -9599740.82949  -7451952.25047  21682946.978    21682956.944
       235.000         190.000
  20815017.000   -10508484.38949  -8176664.02447  20815016.394    20815025.580
       243.000         212.000
  23717777.637    -9654687.50349  -7496112.13145  23717776.625    23717790.839
       215.000         156.000
  24197839.609    -8296703.77449  -6445042.89445  24197838.545    24197858.383
       211.000         150.000
  20689532.012    -3403592.41449  -2642410.64447  20689531.995    20689541.461
       243.000         210.000
  21111733.661   -18747710.80549 -13600195.33047  21111732.981    21111742.812
       243.000         210.000
 00  4 19 23 46 30.0000000  0  6G26G17G22G21G 6G23
  21682951.093    -9599719.72349  -7451935.75847  21682950.636    21682961.148
       234.000         190.000
  20812896.606   -10519626.88849  -8185346.47147  20812896.082    20812904.854
       244.000         212.000
  23717561.566    -9655822.89249  -7496996.84645  23717559.995    23717574.055
       215.000         156.000
  24181800.421    -8380988.64549  -6510718.87345  24181798.299    24181817.813
       215.000         149.000
  20698991.994    -3353880.12849  -2603673.84747  20698991.736    20699000.980
       242.000         209.000
  21104187.039   -18787368.31849 -13631097.18747  21104186.366    21104195.935
       243.000         210.000
 00  4 19 23 47  0.0000000  0  6G26G17G22G21G 6G23
  21683070.779    -9599090.13749  -7451445.13047  21683071.002    21683081.100
       235.000         190.000
  20810816.669   -10530556.89549  -8193863.34548  20810816.122    20810825.248
       244.000         213.000
  23717443.531    -9656443.21649  -7497480.21245  23717442.566    23717456.142
       214.000         156.000
  24165801.017    -8465063.94049  -6576231.54645  24165798.975    24165818.398
       212.000         150.000
  20708542.093    -3303694.21749  -2564567.99947  20708542.195    20708551.139
       243.000         209.000
  21096718.451   -18826615.61649 -13661679.40547  21096717.786    21096727.580
       243.000         210.000
 00  4 19 23 47 30.0000000  0  6G26G17G22G21G 6G23
  21683310.662    -9597829.77549  -7450462.99047  21683310.926    21683320.398
       236.000         190.000
  20808778.258   -10541268.96749  -8202210.39648  20808777.623    20808786.907
       244.000         213.000
  23717422.133    -9656555.27049  -7497567.51745  23717421.341    23717434.836
       215.000         155.000
  24149839.783    -8548938.68349  -6641587.95245  24149837.935    24149857.730
       215.000         151.000
  20718184.741    -3253021.81249  -2525083.05347  20718184.689    20718193.905
       243.000         209.000
  21089328.043   -18865452.35049 -13691941.70247  21089327.273    21089337.259
       243.000         211.000
 00  4 19 23 48  0.0000000  0  6G26G17G22G21G 6G23
  21683673.194    -9595924.61449  -7448978.41647  21683673.046    21683682.947
       234.000         189.000
  20806776.575   -10551787.98149  -8210407.01648  20806776.059    20806785.063
       244.000         213.000
  23717498.215    -9656155.17049  -7497255.74845  23717498.058    23717510.861
       216.000         155.000
  24133913.810    -8632628.21949  -6706800.05445  24133911.521    24133931.409
       212.000         151.000
  20727918.960    -3201868.55649  -2485223.42747  20727919.160    20727928.179
       242.000         209.000
  21082013.278   -18903891.01749 -13721893.81547  21082012.486    21082022.194
       243.000         211.000
 00  4 19 23 48 30.0000000  0  6G26G17G22G21G 6G23
  21684155.171    -9593391.27849  -7447004.33147  21684154.962    21684164.777
       235.000         189.000
  20804809.500   -10562125.05149  -8218461.85348  20804808.910    20804817.911
       243.000         213.000
  23717670.801    -9655248.57749  -7496549.30545  23717670.438    23717684.383
       215.000         155.000
  24118019.646    -8716150.78949  -6771882.07245  24118017.724    24118036.265
       212.000         150.000
  20737745.895    -3150228.11449  -2444984.15647  20737745.907    20737755.138
       243.000         209.000
  21074775.202   -18941926.90249 -13751532.07147  21074774.387    21074784.342
       243.000         211.000
 00  4 19 23 49  0.0000000  0  6G26G17G22G21G 6G23
  21684758.105    -9590222.64049  -7444535.22947  21684758.354    21684768.016
       236.000         190.000
  20802876.567   -10572282.48349  -8226376.72047  20802876.089    20802885.083
       244.000         212.000
  23717940.595    -9653830.62049  -7495444.41745  23717938.753    23717953.723
       215.000         155.000
  24102157.499    -8799504.66749  -6836832.65445  24102155.915    24102174.657
       213.000         150.000
  20747668.317    -3098085.66349  -2404353.73247  20747668.228    20747677.629
       242.000         209.000
  21067615.735   -18979549.83949 -13780848.55047  21067615.014    21067624.708
       243.000         211.000
 00  4 19 23 49 30.0000000  0  6G26G17G22G21G 6G23
  21685482.017    -9586418.36949  -7441570.82647  21685482.233    21685492.315
       236.000         190.000
  20800974.192   -10582279.51449  -8234166.59747  20800973.396    20800982.761
       244.000         212.000
  23718309.670    -9651890.99749  -7493933.03545  23718308.577    23718322.054
       214.000         155.000
  24086329.537    -8882678.81249  -6901643.19245  24086327.053    24086346.148
       212.000         150.000
  20757685.381    -3045445.57649  -2363335.53047  20757685.403    20757694.947
       242.000         209.000
  21060537.041   -19016748.34649 -13809834.30447  21060536.314    21060545.918
       243.000         211.000
 00  4 19 23 50  0.0000000  0  6G26G17G22G21G 6G23
  21686323.389    -9581996.92649  -7438125.50947  21686323.810    21686333.481
       237.000         191.000
  20799102.841   -10592113.21349  -8241829.20247  20799102.541    20799111.528
       244.000         212.000
  23718778.707    -9649426.63249  -7492012.76045  23718777.602    23718791.589
       214.000         155.000
  24070536.383    -8965669.30549  -6966310.64845  24070535.545    24070552.933
       212.000         150.000
  20767796.037    -2992314.32549  -2321934.60447  20767796.174    20767805.574
       242.000         209.000
  21053540.205   -19053516.43149 -13838484.66247  21053539.668    21053549.022
       244.000         211.000
 00  4 19 23 50 30.0000000  0  6G26G17G22G21G 6G23
  21687281.644    -9576961.48049  -7434201.75247  21687281.887    21687291.297
       237.000         191.000
  20797268.225   -10601754.44149  -8249341.82648  20797267.721    20797276.798
       244.000         213.000
  23719347.166    -9646438.34949  -7489684.24645  23719345.649    23719361.084
       214.000         155.000
  24054782.597    -9048454.06849  -7030817.82545  24054780.192    24054799.009
       212.000         150.000
  20778001.570    -2938684.10249  -2280144.86747  20778001.409    20778010.750
       241.000         208.000
  21046628.628   -19089836.84049 -13866786.18447  21046627.863    21046637.490
       243.000         211.000
 00  4 19 23 51  0.0000000  0  6G26G17G22G21G 6G23
  21688362.418    -9571281.85349  -7429776.02747  21688362.489    21688372.008
       237.000         191.000
  20795471.244   -10611197.57949  -8256700.09548  20795470.495    20795479.499
       243.000         213.000
  23720014.998    -9642928.63749  -7486949.42245  23720014.696    23720028.151
       213.000         155.000
  24039070.199    -9131020.86249  -7095155.14645  24039068.489    24039086.261
       214.000         150.000
  20788301.476    -2884557.72049  -2237968.52247  20788301.318    20788310.778
       242.000         208.000
  21039800.379   -19125718.91649 -13894746.14747  21039799.850    21039809.369
       244.000         211.000
 00  4 19 23 51 30.0000000  0  6G26G17G22G21G 6G23
  21689564.589    -9564964.42549  -7424853.31547  21689564.927    21689574.625
       237.000         191.000
  20793713.664   -10620433.45949  -8263896.86647  20793712.992    20793721.942
       244.000         212.000
  23720780.356    -9638906.26449  -7483815.12645  23720779.376    23720793.343
       215.000         154.000
  24023397.889    -9213377.47449  -7159328.72245  24023395.819    24023414.504
       211.000         151.000
  20798692.887    -2829950.42249  -2195417.43947  20798692.635    20798702.015
       242.000         208.000
  21033051.046   -19161186.54749 -13922383.17247  21033050.352    21033059.723
       244.000         212.000
 00  4 19 23 52  0.0000000  0  6G26G17G22G21G 6G23
  21690887.085    -9558014.15649  -7419437.47247  21690886.921    21690897.210
       236.000         191.000
  20791996.553   -10629456.91649  -8270928.11048  20791995.871    20792004.901
       244.000         213.000
  23721642.566    -9634376.12449  -7480285.17645  23721641.669    23721655.980
       213.000         155.000
  24007765.495    -9295524.66249  -7223339.11545  24007763.831    24007782.652
       211.000         151.000
  20809173.828    -2774872.95949  -2152499.98747  20809173.739    20809183.550
       241.000         208.000
  21026377.458   -19196256.03349 -13949709.95447  21026376.552    21026385.991
       243.000         212.000
 00  4 19 23 52 30.0000000  0  6G26G17G22G21G 6G23
  21692332.227    -9550419.56949  -7413519.57247  21692331.981    21692342.141
       236.000         190.000
  20790316.442   -10638285.91249  -8277807.82948  20790315.684    20790324.830
       243.000         213.000
  23722599.587    -9629346.63649  -7476366.10745  23722598.397    23722613.111
       214.000         155.000
  23992170.152    -9377476.57649  -7287197.33245  23992169.287    23992186.568
       215.000         152.000
  20819741.489    -2719339.72449  -2109227.38947  20819741.573    20819751.226
       242.000         208.000
  21019776.231   -19230945.15149 -13976740.34847  21019775.602    21019785.039
       244.000         212.000
 00  4 19 23 53  0.0000000  0  6G26G17G22G21G 6G23
  21693898.213    -9542190.19449  -7407107.03047  21693898.247    21693908.380
       235.000         190.000
  20788670.089   -10646937.63849  -8284549.41448  20788669.284    20788678.514
       244.000         213.000
  23723647.905    -9623837.90449  -7472073.60845  23723647.611    23723661.538
       215.000         155.000
  23976607.431    -9459257.84949  -7350922.59745  23976605.831    23976624.445
       213.000         154.000
  20830393.676    -2663362.02449  -2065608.45347  20830393.199    20830403.203
       241.000         207.000
  21013241.018   -19265287.76449 -14003500.73847  21013240.426    21013249.846
       244.000         212.000
 00  4 19 23 53 30.0000000  0  6G26G17G22G21G 6G23
  21695578.881    -9533358.22949  -7400224.93947  21695579.543    21695588.208
       237.000         190.000
  20787059.522   -10655401.08949  -8291144.29148  20787058.949    20787067.881
       244.000         213.000
  23724787.611    -9617849.19049  -7467407.09245  23724786.822    23724800.663
       216.000         156.000
  23961076.337    -9540872.89049  -7414518.33845  23961074.753    23961091.630
       213.000         153.000
  20841130.357    -2606940.68849  -2021643.83047  20841130.326    20841139.804
       242.000         207.000
  21006770.822   -19299288.64049 -14029994.83947  21006770.336    21006779.530
       244.000         212.000
 00  4 19 23 54  0.0000000  0  6G26G17G22G21G 6G23
  21697374.881    -9523920.43149  -7392870.76847  21697375.030    21697384.808
       236.000         190.000
  20785482.767   -10663686.90749  -8297600.74948  20785482.370    20785491.311
       244.000         213.000
  23726017.287    -9611387.08049  -7462371.70045  23726016.840    23726030.875
       214.000         156.000
  23945578.822    -9622311.51049  -7477976.61045  23945577.731    23945594.854
       216.000         153.000
  20851953.715    -2550063.95149  -1977324.34447  20851953.673    20851963.190
       242.000         207.000
  21000367.690   -19332937.05749 -14056214.29647  21000367.128    21000376.403
       244.000         212.000
 00  4 19 23 54 30.0000000  0  6G26G17G22G21G 6G23
  21699285.413    -9513880.41849  -7385047.34847  21699285.397    21699295.031
       236.000         190.000
  20783940.208   -10671793.13649  -8303917.26848  20783939.608    20783948.562
       244.000         213.000
  23727336.603    -9604454.14449  -7456969.44445  23727336.047    23727349.800
       214.000         155.000
  23930115.656    -9703570.33449  -7541294.78545  23930113.927    23930131.095
       215.000         154.000
  20862866.561    -2492716.83649  -1932638.34547  20862866.568    20862876.140
       241.000         207.000
  20994033.522   -19366223.18449 -14082151.45747  20994032.933    20994042.293
       244.000         212.000
 00  4 19 23 55  0.0000000  0  6G26G17G22G21G 6G23
  21701310.054    -9503240.61249  -7376756.54147  21701309.716    21701319.707
       236.000         190.000
  20782434.932   -10679703.25649  -8310080.97548  20782434.350    20782443.296
       243.000         213.000
  23728746.539    -9597044.42349  -7451195.66145  23728745.641    23728759.656
       215.000         155.000
  23914690.303    -9784629.26949  -7604457.20445  23914688.196    23914707.115
       215.000         154.000
  20873869.749    -2434894.56349  -1887582.08547  20873869.461    20873879.257
       241.000         207.000
  20987772.167   -19399126.21149 -14107790.09647  20987771.498    20987780.959
       244.000         212.000
 00  4 19 23 55 30.0000000  0  6G26G17G22G21G 6G23
  21703453.510    -9491976.25949  -7367979.08247  21703453.082    21703463.336
       235.000         189.000
  20780964.400   -10687430.84149  -8316102.44848  20780963.748    20780972.821
       243.000         213.000
  23730250.205    -9589142.78349  -7445038.57745  23730249.610    23730263.304
       214.000         155.000
  23899304.911    -9865478.34249  -7667456.11445  23899304.646    23899321.131
       214.000         154.000
  20884962.020    -2376604.46149  -1842161.29047  20884962.351    20884971.203
       241.000         207.000
  20981590.339   -19431611.54249 -14133103.26048  20981589.688    20981598.904
       244.000         213.000
 00  4 19 23 56  0.0000000  0  6G26G17G22G21G 6G23
  21705718.863    -9480071.63349  -7358702.70447  21705718.854    21705729.066
       235.000         189.000
  20779526.190   -10694988.88149  -8321991.80548  20779525.704    20779534.652
       244.000         213.000
  23731845.992    -9580757.08349  -7438504.29045  23731844.416    23731859.248
       213.000         154.000
  23883960.157    -9946113.62749  -7730288.41445  23883958.779    23883976.560
       215.000         155.000
  20896140.836    -2317859.92149  -1796386.37447  20896140.953    20896150.269
       241.000         206.000
  20975491.587   -19463660.65349 -14158076.51148  20975491.100    20975500.346
       244.000         213.000
 00  4 19 23 56 30.0000000  0  6G26G17G22G21G 6G23
  21708107.650    -9467517.86749  -7348920.49947  21708107.750    21708117.849
       235.000         189.000
  20778121.260   -10702371.53649  -8327744.50348  20778120.576    20778129.528
       243.000         213.000
  23733535.774    -9571877.00649  -7431584.78945  23733534.856    23733549.397
       214.000         154.000
  23868654.544   -10026543.62849  -7792960.75945  23868653.205    23868671.034
       215.000         155.000
  20907404.386    -2258670.10249  -1750264.49747  20907404.575    20907413.675
       242.000         206.000
  20969476.128   -19495271.68749 -14182708.41048  20969475.314    20969485.018
       244.000         213.000
 00  4 19 23 57  0.0000000  0  6G26G17G22G21G 6G23
  21710620.965    -9454310.18649  -7338628.75647  21710620.940    21710630.453
       235.000         189.000
  20776751.037   -10709571.97149  -8333355.21348  20776750.315    20776759.389
       244.000         213.000
  23735320.112    -9562500.44749  -7424278.41045  23735318.981    23735334.429
       215.000         154.000
  23853386.705   -10106775.34349  -7855478.60945  23853385.135    23853402.472
       215.000         156.000
  20918751.103    -2199042.83049  -1703801.74947  20918750.820    20918760.409
       240.000         206.000
  20963543.714   -19526446.40849 -14207000.32448  20963543.081    20963552.434
       244.000         213.000
 00  4 19 23 57 30.0000000  0  6G26G17G22G21G 6G23
  21713257.412    -9440455.45549  -7327832.83447  21713257.555    21713267.107
       235.000         189.000
  20775416.507   -10716584.82449  -8338819.75647  20775415.879    20775424.954
       244.000         212.000
  23737198.934    -9552627.02849  -7416584.88345  23737198.559    23737212.035
       214.000         155.000
  23838156.609   -10186808.77949  -7917841.93145  23838155.528    23838172.899
       214.000         156.000
  20930183.492    -2138965.14349  -1656988.03047  20930183.316    20930192.564
       240.000         205.000
  20957693.473   -19557189.30249 -14230955.75048  20957692.781    20957702.033
       244.000         213.000
 00  4 19 23 58  0.0000000  0  6G26G17G22G21G 6G23
  21716013.321    -9425972.62749  -7316547.46047  21716013.247    21716023.132
       235.000         189.000
  20774122.578   -10723384.41049  -8344118.11347  20774122.184    20774130.956
       243.000         212.000
  23739173.614    -9542249.90749  -7408498.85145  23739173.442    23739187.705
       214.000         156.000
  23822967.484   -10266627.07649  -7980037.62045  23822965.284    23822983.780
       213.000         156.000
  20941704.682    -2078420.86849  -1609810.72647  20941704.490    20941714.199
       240.000         205.000
  20951923.051   -19587512.68949 -14254584.28548  20951922.286    20951931.630
       244.000         213.000
 00  4 19 23 58 30.0000000  0  6G26G17G22G21G 6G23
  21718886.689    -9410872.69849  -7304781.24947  21718886.548    21718896.751
       236.000         189.000
  20772869.381   -10729969.98049  -8349249.70948  20772868.632    20772877.957
       243.000         213.000
  23741245.472    -9531363.04949  -7400015.61645  23741244.498    23741259.217
       214.000         155.000
  23807819.755   -10346227.23149  -8042063.33545  23807818.390    23807835.052
       216.000         157.000
  20953318.301    -2017390.91249  -1562254.98247  20953318.599    20953328.029
       240.000         205.000
  20946229.097   -19617434.20849 -14277899.68248  20946228.388    20946237.554
       244.000         213.000
 00  4 19 23 59  0.0000000  0  6G26G17G22G21G 6G23
  21721876.116    -9395163.26649  -7292540.09147  21721875.958    21721885.783
       234.000         189.000
  20771657.142   -10736340.05449  -8354213.38247  20771656.511    20771665.369
       243.000         212.000
  23743412.612    -9519974.51449  -7391141.45745  23743411.698    23743425.497
       214.000         155.000
  23792715.805   -10425597.75849  -8103910.12345  23792714.696    23792731.422
       216.000         158.000
  20965025.871    -1955867.54149  -1514314.74747  20965025.735    20965035.462
       241.000         205.000
  20940613.096   -19646946.04149 -14300895.83848  20940612.586    20940621.870
       245.000         213.000
